<?xml version="1.0" encoding="UTF-8" standalone="no" ?>
<gpx xmlns="http://www.topografix.com/GPX/1/1" xmlns:xsi="http://www.w3.org/2001/XMLSchema-instance" xsi:schemaLocation="http://www.topografix.com/GPX/1/1 http://www.topografix.com/GPX/1/1/gpx.xsd" version="1.1" creator="VisuGPX - https://www.visugpx.com">
  <metadata>
    <name>Colomers J1 (CAF)</name>
    <desc><![CDATA[WE dans le cirque de Colomers.
J1 : Banhs de Tredos - refuge de Colomers   petite ascension eu port de Caldes sous la neige.]]></desc>
  </metadata>
  <trk>
    <name><![CDATA[COLOM J1---7:47:10]]></name>
    <trkseg>
      <trkpt lat="42.6782" lon="0.91592">
        <ele>1473.36</ele>
        <time>2011-02-19T09:12:13Z</time>
      </trkpt>
      <trkpt lat="42.6782" lon="0.91592">
        <ele>1471.44</ele>
        <time>2011-02-19T09:12:16Z</time>
      </trkpt>
      <trkpt lat="42.6782" lon="0.91592">
        <ele>1472.88</ele>
        <time>2011-02-19T09:13:46Z</time>
      </trkpt>
      <trkpt lat="42.6782" lon="0.91592">
        <ele>1472.88</ele>
        <time>2011-02-19T09:14:06Z</time>
      </trkpt>
      <trkpt lat="42.6782" lon="0.91592">
        <ele>1469.51</ele>
        <time>2011-02-19T09:14:18Z</time>
      </trkpt>
      <trkpt lat="42.6782" lon="0.91592">
        <ele>1471.92</ele>
        <time>2011-02-19T09:14:19Z</time>
      </trkpt>
      <trkpt lat="42.6782" lon="0.91592">
        <ele>1472.88</ele>
        <time>2011-02-19T09:14:21Z</time>
      </trkpt>
      <trkpt lat="42.67821" lon="0.91591">
        <ele>1472.4</ele>
        <time>2011-02-19T09:14:39Z</time>
      </trkpt>
      <trkpt lat="42.6782" lon="0.9159">
        <ele>1473.36</ele>
        <time>2011-02-19T09:14:47Z</time>
      </trkpt>
      <trkpt lat="42.67821" lon="0.9159">
        <ele>1473.36</ele>
        <time>2011-02-19T09:14:58Z</time>
      </trkpt>
      <trkpt lat="42.67821" lon="0.91591">
        <ele>1473.36</ele>
        <time>2011-02-19T09:15:04Z</time>
      </trkpt>
      <trkpt lat="42.67821" lon="0.91591">
        <ele>1472.4</ele>
        <time>2011-02-19T09:15:24Z</time>
      </trkpt>
      <trkpt lat="42.6782" lon="0.91592">
        <ele>1472.4</ele>
        <time>2011-02-19T09:15:37Z</time>
      </trkpt>
      <trkpt lat="42.6782" lon="0.916">
        <ele>1472.88</ele>
        <time>2011-02-19T09:15:52Z</time>
      </trkpt>
      <trkpt lat="42.67819" lon="0.91603">
        <ele>1473.36</ele>
        <time>2011-02-19T09:15:56Z</time>
      </trkpt>
      <trkpt lat="42.67816" lon="0.91604">
        <ele>1473.36</ele>
        <time>2011-02-19T09:16:00Z</time>
      </trkpt>
      <trkpt lat="42.67813" lon="0.91605">
        <ele>1473.36</ele>
        <time>2011-02-19T09:16:03Z</time>
      </trkpt>
      <trkpt lat="42.67806" lon="0.91604">
        <ele>1473.36</ele>
        <time>2011-02-19T09:16:09Z</time>
      </trkpt>
      <trkpt lat="42.67797" lon="0.916">
        <ele>1473.84</ele>
        <time>2011-02-19T09:16:17Z</time>
      </trkpt>
      <trkpt lat="42.67794" lon="0.91598">
        <ele>1473.84</ele>
        <time>2011-02-19T09:16:20Z</time>
      </trkpt>
      <trkpt lat="42.67791" lon="0.91598">
        <ele>1474.32</ele>
        <time>2011-02-19T09:16:22Z</time>
      </trkpt>
      <trkpt lat="42.67785" lon="0.91591">
        <ele>1473.84</ele>
        <time>2011-02-19T09:16:29Z</time>
      </trkpt>
      <trkpt lat="42.6778" lon="0.91589">
        <ele>1473.84</ele>
        <time>2011-02-19T09:16:34Z</time>
      </trkpt>
      <trkpt lat="42.67772" lon="0.91583">
        <ele>1474.8</ele>
        <time>2011-02-19T09:16:42Z</time>
      </trkpt>
      <trkpt lat="42.67753" lon="0.9157">
        <ele>1475.76</ele>
        <time>2011-02-19T09:16:57Z</time>
      </trkpt>
      <trkpt lat="42.67744" lon="0.91564">
        <ele>1476.24</ele>
        <time>2011-02-19T09:17:05Z</time>
      </trkpt>
      <trkpt lat="42.67735" lon="0.91556">
        <ele>1477.2</ele>
        <time>2011-02-19T09:17:15Z</time>
      </trkpt>
      <trkpt lat="42.67727" lon="0.91551">
        <ele>1477.68</ele>
        <time>2011-02-19T09:17:23Z</time>
      </trkpt>
      <trkpt lat="42.67715" lon="0.91541">
        <ele>1478.65</ele>
        <time>2011-02-19T09:17:37Z</time>
      </trkpt>
      <trkpt lat="42.67712" lon="0.91539">
        <ele>1479.13</ele>
        <time>2011-02-19T09:17:40Z</time>
      </trkpt>
      <trkpt lat="42.67697" lon="0.91532">
        <ele>1480.57</ele>
        <time>2011-02-19T09:17:55Z</time>
      </trkpt>
      <trkpt lat="42.67693" lon="0.9153">
        <ele>1480.57</ele>
        <time>2011-02-19T09:18:00Z</time>
      </trkpt>
      <trkpt lat="42.67682" lon="0.91528">
        <ele>1481.05</ele>
        <time>2011-02-19T09:18:09Z</time>
      </trkpt>
      <trkpt lat="42.67673" lon="0.91526">
        <ele>1482.49</ele>
        <time>2011-02-19T09:18:19Z</time>
      </trkpt>
      <trkpt lat="42.67663" lon="0.91526">
        <ele>1482.49</ele>
        <time>2011-02-19T09:18:28Z</time>
      </trkpt>
      <trkpt lat="42.67652" lon="0.91525">
        <ele>1483.93</ele>
        <time>2011-02-19T09:18:39Z</time>
      </trkpt>
      <trkpt lat="42.67645" lon="0.91524">
        <ele>1484.41</ele>
        <time>2011-02-19T09:18:47Z</time>
      </trkpt>
      <trkpt lat="42.67643" lon="0.91523">
        <ele>1484.41</ele>
        <time>2011-02-19T09:18:49Z</time>
      </trkpt>
      <trkpt lat="42.67629" lon="0.91522">
        <ele>1485.85</ele>
        <time>2011-02-19T09:19:01Z</time>
      </trkpt>
      <trkpt lat="42.67615" lon="0.91519">
        <ele>1486.82</ele>
        <time>2011-02-19T09:19:14Z</time>
      </trkpt>
      <trkpt lat="42.67611" lon="0.91517">
        <ele>1486.82</ele>
        <time>2011-02-19T09:19:18Z</time>
      </trkpt>
      <trkpt lat="42.67607" lon="0.91517">
        <ele>1486.82</ele>
        <time>2011-02-19T09:19:22Z</time>
      </trkpt>
      <trkpt lat="42.67598" lon="0.91514">
        <ele>1487.78</ele>
        <time>2011-02-19T09:19:32Z</time>
      </trkpt>
      <trkpt lat="42.67594" lon="0.91514">
        <ele>1487.78</ele>
        <time>2011-02-19T09:19:36Z</time>
      </trkpt>
      <trkpt lat="42.67592" lon="0.91513">
        <ele>1487.78</ele>
        <time>2011-02-19T09:19:39Z</time>
      </trkpt>
      <trkpt lat="42.67586" lon="0.91513">
        <ele>1488.26</ele>
        <time>2011-02-19T09:19:44Z</time>
      </trkpt>
      <trkpt lat="42.67581" lon="0.91512">
        <ele>1488.74</ele>
        <time>2011-02-19T09:19:49Z</time>
      </trkpt>
      <trkpt lat="42.67576" lon="0.9151">
        <ele>1488.74</ele>
        <time>2011-02-19T09:19:55Z</time>
      </trkpt>
      <trkpt lat="42.67567" lon="0.91506">
        <ele>1489.7</ele>
        <time>2011-02-19T09:20:08Z</time>
      </trkpt>
      <trkpt lat="42.67556" lon="0.91502">
        <ele>1490.66</ele>
        <time>2011-02-19T09:20:22Z</time>
      </trkpt>
      <trkpt lat="42.67544" lon="0.91496">
        <ele>1491.14</ele>
        <time>2011-02-19T09:20:34Z</time>
      </trkpt>
      <trkpt lat="42.67542" lon="0.91496">
        <ele>1491.62</ele>
        <time>2011-02-19T09:20:36Z</time>
      </trkpt>
      <trkpt lat="42.67535" lon="0.91493">
        <ele>1491.62</ele>
        <time>2011-02-19T09:20:43Z</time>
      </trkpt>
      <trkpt lat="42.67532" lon="0.91493">
        <ele>1491.62</ele>
        <time>2011-02-19T09:20:47Z</time>
      </trkpt>
      <trkpt lat="42.67522" lon="0.91491">
        <ele>1492.58</ele>
        <time>2011-02-19T09:20:58Z</time>
      </trkpt>
      <trkpt lat="42.6752" lon="0.9149">
        <ele>1492.58</ele>
        <time>2011-02-19T09:21:01Z</time>
      </trkpt>
      <trkpt lat="42.67516" lon="0.91493">
        <ele>1492.58</ele>
        <time>2011-02-19T09:21:12Z</time>
      </trkpt>
      <trkpt lat="42.67514" lon="0.91492">
        <ele>1493.06</ele>
        <time>2011-02-19T09:21:32Z</time>
      </trkpt>
      <trkpt lat="42.67514" lon="0.91492">
        <ele>1492.58</ele>
        <time>2011-02-19T09:22:00Z</time>
      </trkpt>
      <trkpt lat="42.67508" lon="0.91492">
        <ele>1493.06</ele>
        <time>2011-02-19T09:22:14Z</time>
      </trkpt>
      <trkpt lat="42.67506" lon="0.91493">
        <ele>1493.55</ele>
        <time>2011-02-19T09:22:18Z</time>
      </trkpt>
      <trkpt lat="42.67507" lon="0.91492">
        <ele>1493.06</ele>
        <time>2011-02-19T09:22:28Z</time>
      </trkpt>
      <trkpt lat="42.67507" lon="0.91492">
        <ele>1493.55</ele>
        <time>2011-02-19T09:22:44Z</time>
      </trkpt>
      <trkpt lat="42.67506" lon="0.91491">
        <ele>1493.55</ele>
        <time>2011-02-19T09:23:00Z</time>
      </trkpt>
      <trkpt lat="42.67506" lon="0.91491">
        <ele>1494.03</ele>
        <time>2011-02-19T09:23:03Z</time>
      </trkpt>
      <trkpt lat="42.67494" lon="0.9149">
        <ele>1494.03</ele>
        <time>2011-02-19T09:23:14Z</time>
      </trkpt>
      <trkpt lat="42.67487" lon="0.91491">
        <ele>1494.51</ele>
        <time>2011-02-19T09:23:23Z</time>
      </trkpt>
      <trkpt lat="42.67484" lon="0.91493">
        <ele>1494.51</ele>
        <time>2011-02-19T09:23:29Z</time>
      </trkpt>
      <trkpt lat="42.6747" lon="0.91492">
        <ele>1495.47</ele>
        <time>2011-02-19T09:23:42Z</time>
      </trkpt>
      <trkpt lat="42.67455" lon="0.9149">
        <ele>1496.43</ele>
        <time>2011-02-19T09:23:55Z</time>
      </trkpt>
      <trkpt lat="42.67449" lon="0.9149">
        <ele>1496.43</ele>
        <time>2011-02-19T09:24:00Z</time>
      </trkpt>
      <trkpt lat="42.67444" lon="0.91488">
        <ele>1496.91</ele>
        <time>2011-02-19T09:24:04Z</time>
      </trkpt>
      <trkpt lat="42.67437" lon="0.91486">
        <ele>1497.87</ele>
        <time>2011-02-19T09:24:11Z</time>
      </trkpt>
      <trkpt lat="42.67423" lon="0.91481">
        <ele>1498.35</ele>
        <time>2011-02-19T09:24:22Z</time>
      </trkpt>
      <trkpt lat="42.67415" lon="0.91477">
        <ele>1498.83</ele>
        <time>2011-02-19T09:24:31Z</time>
      </trkpt>
      <trkpt lat="42.67405" lon="0.9147">
        <ele>1499.31</ele>
        <time>2011-02-19T09:24:41Z</time>
      </trkpt>
      <trkpt lat="42.67394" lon="0.91465">
        <ele>1500.76</ele>
        <time>2011-02-19T09:24:54Z</time>
      </trkpt>
      <trkpt lat="42.67393" lon="0.91465">
        <ele>1500.76</ele>
        <time>2011-02-19T09:24:55Z</time>
      </trkpt>
      <trkpt lat="42.67381" lon="0.91461">
        <ele>1501.24</ele>
        <time>2011-02-19T09:25:07Z</time>
      </trkpt>
      <trkpt lat="42.67374" lon="0.91459">
        <ele>1501.72</ele>
        <time>2011-02-19T09:25:13Z</time>
      </trkpt>
      <trkpt lat="42.67371" lon="0.9146">
        <ele>1502.2</ele>
        <time>2011-02-19T09:25:17Z</time>
      </trkpt>
      <trkpt lat="42.67366" lon="0.91458">
        <ele>1502.68</ele>
        <time>2011-02-19T09:25:23Z</time>
      </trkpt>
      <trkpt lat="42.67363" lon="0.91457">
        <ele>1503.16</ele>
        <time>2011-02-19T09:25:27Z</time>
      </trkpt>
      <trkpt lat="42.6735" lon="0.91455">
        <ele>1504.12</ele>
        <time>2011-02-19T09:25:41Z</time>
      </trkpt>
      <trkpt lat="42.67344" lon="0.91455">
        <ele>1505.08</ele>
        <time>2011-02-19T09:25:47Z</time>
      </trkpt>
      <trkpt lat="42.67334" lon="0.91453">
        <ele>1505.08</ele>
        <time>2011-02-19T09:25:57Z</time>
      </trkpt>
      <trkpt lat="42.67325" lon="0.91453">
        <ele>1505.56</ele>
        <time>2011-02-19T09:26:05Z</time>
      </trkpt>
      <trkpt lat="42.6732" lon="0.91454">
        <ele>1506.52</ele>
        <time>2011-02-19T09:26:10Z</time>
      </trkpt>
      <trkpt lat="42.67307" lon="0.91452">
        <ele>1507.48</ele>
        <time>2011-02-19T09:26:23Z</time>
      </trkpt>
      <trkpt lat="42.67296" lon="0.9145">
        <ele>1508.45</ele>
        <time>2011-02-19T09:26:36Z</time>
      </trkpt>
      <trkpt lat="42.67293" lon="0.91449">
        <ele>1508.45</ele>
        <time>2011-02-19T09:26:39Z</time>
      </trkpt>
      <trkpt lat="42.67285" lon="0.91451">
        <ele>1508.93</ele>
        <time>2011-02-19T09:26:47Z</time>
      </trkpt>
      <trkpt lat="42.67273" lon="0.91453">
        <ele>1509.41</ele>
        <time>2011-02-19T09:26:57Z</time>
      </trkpt>
      <trkpt lat="42.67266" lon="0.91455">
        <ele>1509.41</ele>
        <time>2011-02-19T09:27:03Z</time>
      </trkpt>
      <trkpt lat="42.67262" lon="0.91456">
        <ele>1509.89</ele>
        <time>2011-02-19T09:27:07Z</time>
      </trkpt>
      <trkpt lat="42.67249" lon="0.91463">
        <ele>1510.37</ele>
        <time>2011-02-19T09:27:19Z</time>
      </trkpt>
      <trkpt lat="42.67245" lon="0.91466">
        <ele>1510.37</ele>
        <time>2011-02-19T09:27:24Z</time>
      </trkpt>
      <trkpt lat="42.67241" lon="0.91469">
        <ele>1510.85</ele>
        <time>2011-02-19T09:27:28Z</time>
      </trkpt>
      <trkpt lat="42.67238" lon="0.91471">
        <ele>1510.85</ele>
        <time>2011-02-19T09:27:32Z</time>
      </trkpt>
      <trkpt lat="42.67227" lon="0.91478">
        <ele>1511.81</ele>
        <time>2011-02-19T09:27:44Z</time>
      </trkpt>
      <trkpt lat="42.67222" lon="0.91482">
        <ele>1512.29</ele>
        <time>2011-02-19T09:27:49Z</time>
      </trkpt>
      <trkpt lat="42.67214" lon="0.91487">
        <ele>1513.25</ele>
        <time>2011-02-19T09:27:58Z</time>
      </trkpt>
      <trkpt lat="42.67211" lon="0.91489">
        <ele>1513.73</ele>
        <time>2011-02-19T09:28:02Z</time>
      </trkpt>
      <trkpt lat="42.67206" lon="0.9149">
        <ele>1513.73</ele>
        <time>2011-02-19T09:28:07Z</time>
      </trkpt>
      <trkpt lat="42.67197" lon="0.91492">
        <ele>1515.18</ele>
        <time>2011-02-19T09:28:16Z</time>
      </trkpt>
      <trkpt lat="42.67184" lon="0.91493">
        <ele>1515.66</ele>
        <time>2011-02-19T09:28:30Z</time>
      </trkpt>
      <trkpt lat="42.67182" lon="0.91494">
        <ele>1516.14</ele>
        <time>2011-02-19T09:28:32Z</time>
      </trkpt>
      <trkpt lat="42.67173" lon="0.91495">
        <ele>1517.1</ele>
        <time>2011-02-19T09:28:42Z</time>
      </trkpt>
      <trkpt lat="42.67162" lon="0.91497">
        <ele>1519.02</ele>
        <time>2011-02-19T09:28:55Z</time>
      </trkpt>
      <trkpt lat="42.67152" lon="0.91498">
        <ele>1519.98</ele>
        <time>2011-02-19T09:29:07Z</time>
      </trkpt>
      <trkpt lat="42.67151" lon="0.91498">
        <ele>1519.98</ele>
        <time>2011-02-19T09:29:08Z</time>
      </trkpt>
      <trkpt lat="42.67147" lon="0.91499">
        <ele>1520.94</ele>
        <time>2011-02-19T09:29:12Z</time>
      </trkpt>
      <trkpt lat="42.67139" lon="0.91502">
        <ele>1521.42</ele>
        <time>2011-02-19T09:29:20Z</time>
      </trkpt>
      <trkpt lat="42.67132" lon="0.91503">
        <ele>1522.39</ele>
        <time>2011-02-19T09:29:29Z</time>
      </trkpt>
      <trkpt lat="42.67128" lon="0.91503">
        <ele>1522.87</ele>
        <time>2011-02-19T09:29:33Z</time>
      </trkpt>
      <trkpt lat="42.67117" lon="0.91505">
        <ele>1524.31</ele>
        <time>2011-02-19T09:29:45Z</time>
      </trkpt>
      <trkpt lat="42.67108" lon="0.91508">
        <ele>1525.27</ele>
        <time>2011-02-19T09:29:56Z</time>
      </trkpt>
      <trkpt lat="42.67096" lon="0.91514">
        <ele>1526.23</ele>
        <time>2011-02-19T09:30:08Z</time>
      </trkpt>
      <trkpt lat="42.67089" lon="0.91521">
        <ele>1527.19</ele>
        <time>2011-02-19T09:30:18Z</time>
      </trkpt>
      <trkpt lat="42.67078" lon="0.91529">
        <ele>1528.63</ele>
        <time>2011-02-19T09:30:32Z</time>
      </trkpt>
      <trkpt lat="42.67069" lon="0.91535">
        <ele>1529.59</ele>
        <time>2011-02-19T09:30:44Z</time>
      </trkpt>
      <trkpt lat="42.67063" lon="0.91541">
        <ele>1530.56</ele>
        <time>2011-02-19T09:30:53Z</time>
      </trkpt>
      <trkpt lat="42.67059" lon="0.91546">
        <ele>1532</ele>
        <time>2011-02-19T09:30:59Z</time>
      </trkpt>
      <trkpt lat="42.67051" lon="0.91554">
        <ele>1532.48</ele>
        <time>2011-02-19T09:31:11Z</time>
      </trkpt>
      <trkpt lat="42.67043" lon="0.91563">
        <ele>1534.4</ele>
        <time>2011-02-19T09:31:24Z</time>
      </trkpt>
      <trkpt lat="42.67035" lon="0.91575">
        <ele>1535.84</ele>
        <time>2011-02-19T09:31:38Z</time>
      </trkpt>
      <trkpt lat="42.67033" lon="0.91582">
        <ele>1536.32</ele>
        <time>2011-02-19T09:31:45Z</time>
      </trkpt>
      <trkpt lat="42.67029" lon="0.91593">
        <ele>1537.77</ele>
        <time>2011-02-19T09:31:57Z</time>
      </trkpt>
      <trkpt lat="42.67026" lon="0.91599">
        <ele>1538.25</ele>
        <time>2011-02-19T09:32:03Z</time>
      </trkpt>
      <trkpt lat="42.67025" lon="0.91604">
        <ele>1538.73</ele>
        <time>2011-02-19T09:32:07Z</time>
      </trkpt>
      <trkpt lat="42.67021" lon="0.91618">
        <ele>1539.69</ele>
        <time>2011-02-19T09:32:20Z</time>
      </trkpt>
      <trkpt lat="42.67018" lon="0.91625">
        <ele>1540.17</ele>
        <time>2011-02-19T09:32:27Z</time>
      </trkpt>
      <trkpt lat="42.67017" lon="0.91631">
        <ele>1540.65</ele>
        <time>2011-02-19T09:32:33Z</time>
      </trkpt>
      <trkpt lat="42.67015" lon="0.91638">
        <ele>1541.13</ele>
        <time>2011-02-19T09:32:39Z</time>
      </trkpt>
      <trkpt lat="42.67007" lon="0.91652">
        <ele>1541.61</ele>
        <time>2011-02-19T09:32:53Z</time>
      </trkpt>
      <trkpt lat="42.67001" lon="0.91657">
        <ele>1543.05</ele>
        <time>2011-02-19T09:33:01Z</time>
      </trkpt>
      <trkpt lat="42.66992" lon="0.91661">
        <ele>1543.53</ele>
        <time>2011-02-19T09:33:11Z</time>
      </trkpt>
      <trkpt lat="42.66982" lon="0.91656">
        <ele>1545.46</ele>
        <time>2011-02-19T09:33:25Z</time>
      </trkpt>
      <trkpt lat="42.6698" lon="0.91654">
        <ele>1545.46</ele>
        <time>2011-02-19T09:33:28Z</time>
      </trkpt>
      <trkpt lat="42.66972" lon="0.91644">
        <ele>1546.9</ele>
        <time>2011-02-19T09:33:44Z</time>
      </trkpt>
      <trkpt lat="42.66966" lon="0.91639">
        <ele>1548.34</ele>
        <time>2011-02-19T09:33:53Z</time>
      </trkpt>
      <trkpt lat="42.66962" lon="0.91635">
        <ele>1547.86</ele>
        <time>2011-02-19T09:33:58Z</time>
      </trkpt>
      <trkpt lat="42.66954" lon="0.91627">
        <ele>1549.3</ele>
        <time>2011-02-19T09:34:09Z</time>
      </trkpt>
      <trkpt lat="42.66946" lon="0.91617">
        <ele>1550.74</ele>
        <time>2011-02-19T09:34:23Z</time>
      </trkpt>
      <trkpt lat="42.66937" lon="0.91606">
        <ele>1552.19</ele>
        <time>2011-02-19T09:34:37Z</time>
      </trkpt>
      <trkpt lat="42.66928" lon="0.91598">
        <ele>1553.15</ele>
        <time>2011-02-19T09:34:51Z</time>
      </trkpt>
      <trkpt lat="42.66926" lon="0.91595">
        <ele>1553.63</ele>
        <time>2011-02-19T09:34:55Z</time>
      </trkpt>
      <trkpt lat="42.66918" lon="0.91585">
        <ele>1555.07</ele>
        <time>2011-02-19T09:35:09Z</time>
      </trkpt>
      <trkpt lat="42.6691" lon="0.91575">
        <ele>1556.03</ele>
        <time>2011-02-19T09:35:22Z</time>
      </trkpt>
      <trkpt lat="42.66901" lon="0.91564">
        <ele>1557.47</ele>
        <time>2011-02-19T09:35:36Z</time>
      </trkpt>
      <trkpt lat="42.669" lon="0.91563">
        <ele>1557.47</ele>
        <time>2011-02-19T09:35:37Z</time>
      </trkpt>
      <trkpt lat="42.66892" lon="0.91553">
        <ele>1558.92</ele>
        <time>2011-02-19T09:35:51Z</time>
      </trkpt>
      <trkpt lat="42.66883" lon="0.91545">
        <ele>1559.88</ele>
        <time>2011-02-19T09:36:04Z</time>
      </trkpt>
      <trkpt lat="42.66873" lon="0.91546">
        <ele>1561.32</ele>
        <time>2011-02-19T09:36:18Z</time>
      </trkpt>
      <trkpt lat="42.66867" lon="0.91551">
        <ele>1562.76</ele>
        <time>2011-02-19T09:36:28Z</time>
      </trkpt>
      <trkpt lat="42.66862" lon="0.9156">
        <ele>1564.2</ele>
        <time>2011-02-19T09:36:42Z</time>
      </trkpt>
      <trkpt lat="42.66856" lon="0.91568">
        <ele>1565.16</ele>
        <time>2011-02-19T09:36:54Z</time>
      </trkpt>
      <trkpt lat="42.66853" lon="0.91574">
        <ele>1565.64</ele>
        <time>2011-02-19T09:37:02Z</time>
      </trkpt>
      <trkpt lat="42.66849" lon="0.91586">
        <ele>1567.09</ele>
        <time>2011-02-19T09:37:12Z</time>
      </trkpt>
      <trkpt lat="42.66849" lon="0.91589">
        <ele>1567.09</ele>
        <time>2011-02-19T09:37:16Z</time>
      </trkpt>
      <trkpt lat="42.66846" lon="0.91604">
        <ele>1568.53</ele>
        <time>2011-02-19T09:37:29Z</time>
      </trkpt>
      <trkpt lat="42.66841" lon="0.91615">
        <ele>1570.45</ele>
        <time>2011-02-19T09:37:42Z</time>
      </trkpt>
      <trkpt lat="42.6684" lon="0.91618">
        <ele>1570.45</ele>
        <time>2011-02-19T09:37:45Z</time>
      </trkpt>
      <trkpt lat="42.66837" lon="0.91629">
        <ele>1570.93</ele>
        <time>2011-02-19T09:37:55Z</time>
      </trkpt>
      <trkpt lat="42.66834" lon="0.91638">
        <ele>1571.89</ele>
        <time>2011-02-19T09:38:04Z</time>
      </trkpt>
      <trkpt lat="42.66832" lon="0.91643">
        <ele>1572.37</ele>
        <time>2011-02-19T09:38:09Z</time>
      </trkpt>
      <trkpt lat="42.66831" lon="0.91651">
        <ele>1573.33</ele>
        <time>2011-02-19T09:38:19Z</time>
      </trkpt>
      <trkpt lat="42.66831" lon="0.91652">
        <ele>1572.85</ele>
        <time>2011-02-19T09:38:20Z</time>
      </trkpt>
      <trkpt lat="42.66827" lon="0.91663">
        <ele>1573.33</ele>
        <time>2011-02-19T09:38:30Z</time>
      </trkpt>
      <trkpt lat="42.66826" lon="0.91665">
        <ele>1573.82</ele>
        <time>2011-02-19T09:38:31Z</time>
      </trkpt>
      <trkpt lat="42.66822" lon="0.91675">
        <ele>1574.78</ele>
        <time>2011-02-19T09:38:41Z</time>
      </trkpt>
      <trkpt lat="42.66821" lon="0.91678">
        <ele>1574.78</ele>
        <time>2011-02-19T09:38:43Z</time>
      </trkpt>
      <trkpt lat="42.66815" lon="0.91697">
        <ele>1575.74</ele>
        <time>2011-02-19T09:38:56Z</time>
      </trkpt>
      <trkpt lat="42.66809" lon="0.91713">
        <ele>1576.7</ele>
        <time>2011-02-19T09:39:09Z</time>
      </trkpt>
      <trkpt lat="42.66802" lon="0.91731">
        <ele>1577.66</ele>
        <time>2011-02-19T09:39:25Z</time>
      </trkpt>
      <trkpt lat="42.66801" lon="0.91737">
        <ele>1577.66</ele>
        <time>2011-02-19T09:39:30Z</time>
      </trkpt>
      <trkpt lat="42.668" lon="0.91741">
        <ele>1578.14</ele>
        <time>2011-02-19T09:39:34Z</time>
      </trkpt>
      <trkpt lat="42.66793" lon="0.91755">
        <ele>1579.1</ele>
        <time>2011-02-19T09:39:48Z</time>
      </trkpt>
      <trkpt lat="42.6679" lon="0.91767">
        <ele>1580.54</ele>
        <time>2011-02-19T09:39:59Z</time>
      </trkpt>
      <trkpt lat="42.66786" lon="0.91775">
        <ele>1580.54</ele>
        <time>2011-02-19T09:40:07Z</time>
      </trkpt>
      <trkpt lat="42.66782" lon="0.91786">
        <ele>1581.99</ele>
        <time>2011-02-19T09:40:19Z</time>
      </trkpt>
      <trkpt lat="42.66776" lon="0.91795">
        <ele>1583.43</ele>
        <time>2011-02-19T09:40:30Z</time>
      </trkpt>
      <trkpt lat="42.66774" lon="0.918">
        <ele>1582.95</ele>
        <time>2011-02-19T09:40:36Z</time>
      </trkpt>
      <trkpt lat="42.66768" lon="0.91811">
        <ele>1583.91</ele>
        <time>2011-02-19T09:40:48Z</time>
      </trkpt>
      <trkpt lat="42.66761" lon="0.91823">
        <ele>1584.87</ele>
        <time>2011-02-19T09:41:01Z</time>
      </trkpt>
      <trkpt lat="42.66758" lon="0.91829">
        <ele>1585.83</ele>
        <time>2011-02-19T09:41:09Z</time>
      </trkpt>
      <trkpt lat="42.66749" lon="0.9184">
        <ele>1587.27</ele>
        <time>2011-02-19T09:41:22Z</time>
      </trkpt>
      <trkpt lat="42.66746" lon="0.91844">
        <ele>1587.75</ele>
        <time>2011-02-19T09:41:27Z</time>
      </trkpt>
      <trkpt lat="42.66737" lon="0.91853">
        <ele>1587.75</ele>
        <time>2011-02-19T09:41:39Z</time>
      </trkpt>
      <trkpt lat="42.66728" lon="0.91857">
        <ele>1589.2</ele>
        <time>2011-02-19T09:41:52Z</time>
      </trkpt>
      <trkpt lat="42.66722" lon="0.91856">
        <ele>1588.72</ele>
        <time>2011-02-19T09:41:58Z</time>
      </trkpt>
      <trkpt lat="42.66715" lon="0.91845">
        <ele>1590.16</ele>
        <time>2011-02-19T09:42:11Z</time>
      </trkpt>
      <trkpt lat="42.66714" lon="0.91839">
        <ele>1591.12</ele>
        <time>2011-02-19T09:42:17Z</time>
      </trkpt>
      <trkpt lat="42.66715" lon="0.91826">
        <ele>1592.56</ele>
        <time>2011-02-19T09:42:29Z</time>
      </trkpt>
      <trkpt lat="42.66716" lon="0.91817">
        <ele>1593.04</ele>
        <time>2011-02-19T09:42:36Z</time>
      </trkpt>
      <trkpt lat="42.66718" lon="0.91801">
        <ele>1594.48</ele>
        <time>2011-02-19T09:42:49Z</time>
      </trkpt>
      <trkpt lat="42.66718" lon="0.91793">
        <ele>1595.45</ele>
        <time>2011-02-19T09:42:56Z</time>
      </trkpt>
      <trkpt lat="42.66718" lon="0.91786">
        <ele>1595.45</ele>
        <time>2011-02-19T09:43:01Z</time>
      </trkpt>
      <trkpt lat="42.66714" lon="0.91771">
        <ele>1596.41</ele>
        <time>2011-02-19T09:43:13Z</time>
      </trkpt>
      <trkpt lat="42.66708" lon="0.9176">
        <ele>1596.89</ele>
        <time>2011-02-19T09:43:25Z</time>
      </trkpt>
      <trkpt lat="42.667" lon="0.9175">
        <ele>1598.33</ele>
        <time>2011-02-19T09:43:37Z</time>
      </trkpt>
      <trkpt lat="42.6669" lon="0.9175">
        <ele>1599.29</ele>
        <time>2011-02-19T09:43:50Z</time>
      </trkpt>
      <trkpt lat="42.66684" lon="0.91757">
        <ele>1601.21</ele>
        <time>2011-02-19T09:44:03Z</time>
      </trkpt>
      <trkpt lat="42.66683" lon="0.91761">
        <ele>1601.21</ele>
        <time>2011-02-19T09:44:08Z</time>
      </trkpt>
      <trkpt lat="42.66678" lon="0.91776">
        <ele>1603.14</ele>
        <time>2011-02-19T09:44:23Z</time>
      </trkpt>
      <trkpt lat="42.66676" lon="0.91781">
        <ele>1604.1</ele>
        <time>2011-02-19T09:44:30Z</time>
      </trkpt>
      <trkpt lat="42.66668" lon="0.91791">
        <ele>1605.54</ele>
        <time>2011-02-19T09:44:44Z</time>
      </trkpt>
      <trkpt lat="42.66666" lon="0.91792">
        <ele>1606.02</ele>
        <time>2011-02-19T09:44:48Z</time>
      </trkpt>
      <trkpt lat="42.6666" lon="0.91795">
        <ele>1607.46</ele>
        <time>2011-02-19T09:44:59Z</time>
      </trkpt>
      <trkpt lat="42.6665" lon="0.91798">
        <ele>1608.42</ele>
        <time>2011-02-19T09:45:11Z</time>
      </trkpt>
      <trkpt lat="42.6664" lon="0.91799">
        <ele>1609.86</ele>
        <time>2011-02-19T09:45:24Z</time>
      </trkpt>
      <trkpt lat="42.66639" lon="0.91799">
        <ele>1609.86</ele>
        <time>2011-02-19T09:45:25Z</time>
      </trkpt>
      <trkpt lat="42.66633" lon="0.918">
        <ele>1610.83</ele>
        <time>2011-02-19T09:45:33Z</time>
      </trkpt>
      <trkpt lat="42.66628" lon="0.91802">
        <ele>1611.31</ele>
        <time>2011-02-19T09:45:39Z</time>
      </trkpt>
      <trkpt lat="42.6662" lon="0.91806">
        <ele>1612.27</ele>
        <time>2011-02-19T09:45:49Z</time>
      </trkpt>
      <trkpt lat="42.66618" lon="0.91812">
        <ele>1612.75</ele>
        <time>2011-02-19T09:45:56Z</time>
      </trkpt>
      <trkpt lat="42.66614" lon="0.91824">
        <ele>1613.71</ele>
        <time>2011-02-19T09:46:09Z</time>
      </trkpt>
      <trkpt lat="42.6661" lon="0.91836">
        <ele>1614.67</ele>
        <time>2011-02-19T09:46:22Z</time>
      </trkpt>
      <trkpt lat="42.66606" lon="0.91845">
        <ele>1616.11</ele>
        <time>2011-02-19T09:46:35Z</time>
      </trkpt>
      <trkpt lat="42.66601" lon="0.91854">
        <ele>1617.56</ele>
        <time>2011-02-19T09:46:48Z</time>
      </trkpt>
      <trkpt lat="42.66597" lon="0.9186">
        <ele>1618.04</ele>
        <time>2011-02-19T09:46:58Z</time>
      </trkpt>
      <trkpt lat="42.6659" lon="0.9187">
        <ele>1619.48</ele>
        <time>2011-02-19T09:47:10Z</time>
      </trkpt>
      <trkpt lat="42.66584" lon="0.9188">
        <ele>1620.92</ele>
        <time>2011-02-19T09:47:22Z</time>
      </trkpt>
      <trkpt lat="42.66583" lon="0.91882">
        <ele>1620.92</ele>
        <time>2011-02-19T09:47:24Z</time>
      </trkpt>
      <trkpt lat="42.66575" lon="0.91887">
        <ele>1622.36</ele>
        <time>2011-02-19T09:47:36Z</time>
      </trkpt>
      <trkpt lat="42.66568" lon="0.9189">
        <ele>1623.8</ele>
        <time>2011-02-19T09:47:47Z</time>
      </trkpt>
      <trkpt lat="42.66559" lon="0.91889">
        <ele>1625.25</ele>
        <time>2011-02-19T09:47:59Z</time>
      </trkpt>
      <trkpt lat="42.66558" lon="0.91889">
        <ele>1625.25</ele>
        <time>2011-02-19T09:48:00Z</time>
      </trkpt>
      <trkpt lat="42.66551" lon="0.91885">
        <ele>1626.21</ele>
        <time>2011-02-19T09:48:12Z</time>
      </trkpt>
      <trkpt lat="42.66546" lon="0.91884">
        <ele>1627.17</ele>
        <time>2011-02-19T09:48:19Z</time>
      </trkpt>
      <trkpt lat="42.66534" lon="0.91884">
        <ele>1628.61</ele>
        <time>2011-02-19T09:48:34Z</time>
      </trkpt>
      <trkpt lat="42.66532" lon="0.91885">
        <ele>1628.61</ele>
        <time>2011-02-19T09:48:37Z</time>
      </trkpt>
      <trkpt lat="42.66524" lon="0.91893">
        <ele>1630.05</ele>
        <time>2011-02-19T09:48:50Z</time>
      </trkpt>
      <trkpt lat="42.66522" lon="0.91898">
        <ele>1630.53</ele>
        <time>2011-02-19T09:48:59Z</time>
      </trkpt>
      <trkpt lat="42.6652" lon="0.91901">
        <ele>1631.01</ele>
        <time>2011-02-19T09:49:03Z</time>
      </trkpt>
      <trkpt lat="42.66515" lon="0.91911">
        <ele>1632.94</ele>
        <time>2011-02-19T09:49:17Z</time>
      </trkpt>
      <trkpt lat="42.66509" lon="0.91921">
        <ele>1633.9</ele>
        <time>2011-02-19T09:49:29Z</time>
      </trkpt>
      <trkpt lat="42.66505" lon="0.91931">
        <ele>1635.82</ele>
        <time>2011-02-19T09:49:42Z</time>
      </trkpt>
      <trkpt lat="42.66497" lon="0.91938">
        <ele>1637.74</ele>
        <time>2011-02-19T09:49:54Z</time>
      </trkpt>
      <trkpt lat="42.66492" lon="0.91947">
        <ele>1638.7</ele>
        <time>2011-02-19T09:50:05Z</time>
      </trkpt>
      <trkpt lat="42.6649" lon="0.9195">
        <ele>1638.7</ele>
        <time>2011-02-19T09:50:08Z</time>
      </trkpt>
      <trkpt lat="42.66486" lon="0.91954">
        <ele>1639.67</ele>
        <time>2011-02-19T09:50:14Z</time>
      </trkpt>
      <trkpt lat="42.66476" lon="0.91961">
        <ele>1640.15</ele>
        <time>2011-02-19T09:50:25Z</time>
      </trkpt>
      <trkpt lat="42.6647" lon="0.91964">
        <ele>1641.59</ele>
        <time>2011-02-19T09:50:31Z</time>
      </trkpt>
      <trkpt lat="42.66463" lon="0.91966">
        <ele>1642.07</ele>
        <time>2011-02-19T09:50:39Z</time>
      </trkpt>
      <trkpt lat="42.66453" lon="0.91969">
        <ele>1643.51</ele>
        <time>2011-02-19T09:50:52Z</time>
      </trkpt>
      <trkpt lat="42.66445" lon="0.91979">
        <ele>1644.47</ele>
        <time>2011-02-19T09:51:07Z</time>
      </trkpt>
      <trkpt lat="42.66444" lon="0.91982">
        <ele>1644.95</ele>
        <time>2011-02-19T09:51:13Z</time>
      </trkpt>
      <trkpt lat="42.66438" lon="0.9199">
        <ele>1645.91</ele>
        <time>2011-02-19T09:51:26Z</time>
      </trkpt>
      <trkpt lat="42.66434" lon="0.92001">
        <ele>1647.84</ele>
        <time>2011-02-19T09:51:38Z</time>
      </trkpt>
      <trkpt lat="42.66432" lon="0.92006">
        <ele>1648.32</ele>
        <time>2011-02-19T09:51:50Z</time>
      </trkpt>
      <trkpt lat="42.66429" lon="0.92016">
        <ele>1649.28</ele>
        <time>2011-02-19T09:52:00Z</time>
      </trkpt>
      <trkpt lat="42.66428" lon="0.92028">
        <ele>1649.76</ele>
        <time>2011-02-19T09:52:12Z</time>
      </trkpt>
      <trkpt lat="42.66422" lon="0.9204">
        <ele>1650.72</ele>
        <time>2011-02-19T09:52:26Z</time>
      </trkpt>
      <trkpt lat="42.66418" lon="0.9205">
        <ele>1650.72</ele>
        <time>2011-02-19T09:52:35Z</time>
      </trkpt>
      <trkpt lat="42.66416" lon="0.92053">
        <ele>1651.68</ele>
        <time>2011-02-19T09:52:38Z</time>
      </trkpt>
      <trkpt lat="42.66411" lon="0.92066">
        <ele>1652.16</ele>
        <time>2011-02-19T09:52:51Z</time>
      </trkpt>
      <trkpt lat="42.66409" lon="0.92081">
        <ele>1653.6</ele>
        <time>2011-02-19T09:53:04Z</time>
      </trkpt>
      <trkpt lat="42.66407" lon="0.92089">
        <ele>1653.6</ele>
        <time>2011-02-19T09:53:10Z</time>
      </trkpt>
      <trkpt lat="42.66404" lon="0.92101">
        <ele>1654.09</ele>
        <time>2011-02-19T09:53:21Z</time>
      </trkpt>
      <trkpt lat="42.66403" lon="0.92102">
        <ele>1654.09</ele>
        <time>2011-02-19T09:53:22Z</time>
      </trkpt>
      <trkpt lat="42.664" lon="0.92112">
        <ele>1654.57</ele>
        <time>2011-02-19T09:53:32Z</time>
      </trkpt>
      <trkpt lat="42.66398" lon="0.92127">
        <ele>1655.53</ele>
        <time>2011-02-19T09:53:46Z</time>
      </trkpt>
      <trkpt lat="42.66397" lon="0.92135">
        <ele>1656.49</ele>
        <time>2011-02-19T09:53:56Z</time>
      </trkpt>
      <trkpt lat="42.66395" lon="0.92144">
        <ele>1657.45</ele>
        <time>2011-02-19T09:54:05Z</time>
      </trkpt>
      <trkpt lat="42.66386" lon="0.92161">
        <ele>1658.41</ele>
        <time>2011-02-19T09:54:19Z</time>
      </trkpt>
      <trkpt lat="42.66383" lon="0.92168">
        <ele>1658.41</ele>
        <time>2011-02-19T09:54:27Z</time>
      </trkpt>
      <trkpt lat="42.66377" lon="0.92175">
        <ele>1659.85</ele>
        <time>2011-02-19T09:54:39Z</time>
      </trkpt>
      <trkpt lat="42.66363" lon="0.92179">
        <ele>1661.3</ele>
        <time>2011-02-19T09:54:52Z</time>
      </trkpt>
      <trkpt lat="42.66358" lon="0.92173">
        <ele>1662.74</ele>
        <time>2011-02-19T09:55:04Z</time>
      </trkpt>
      <trkpt lat="42.66362" lon="0.92162">
        <ele>1664.66</ele>
        <time>2011-02-19T09:55:18Z</time>
      </trkpt>
      <trkpt lat="42.66367" lon="0.92157">
        <ele>1664.18</ele>
        <time>2011-02-19T09:55:29Z</time>
      </trkpt>
      <trkpt lat="42.66372" lon="0.92143">
        <ele>1665.14</ele>
        <time>2011-02-19T09:55:41Z</time>
      </trkpt>
      <trkpt lat="42.66375" lon="0.9213">
        <ele>1666.1</ele>
        <time>2011-02-19T09:55:55Z</time>
      </trkpt>
      <trkpt lat="42.66375" lon="0.92114">
        <ele>1667.06</ele>
        <time>2011-02-19T09:56:09Z</time>
      </trkpt>
      <trkpt lat="42.66375" lon="0.92112">
        <ele>1667.06</ele>
        <time>2011-02-19T09:56:11Z</time>
      </trkpt>
      <trkpt lat="42.66375" lon="0.92096">
        <ele>1667.54</ele>
        <time>2011-02-19T09:56:24Z</time>
      </trkpt>
      <trkpt lat="42.66375" lon="0.92089">
        <ele>1668.02</ele>
        <time>2011-02-19T09:56:30Z</time>
      </trkpt>
      <trkpt lat="42.66371" lon="0.92079">
        <ele>1668.99</ele>
        <time>2011-02-19T09:56:41Z</time>
      </trkpt>
      <trkpt lat="42.66368" lon="0.92077">
        <ele>1669.95</ele>
        <time>2011-02-19T09:56:47Z</time>
      </trkpt>
      <trkpt lat="42.66363" lon="0.92084">
        <ele>1670.91</ele>
        <time>2011-02-19T09:56:58Z</time>
      </trkpt>
      <trkpt lat="42.66361" lon="0.92088">
        <ele>1671.39</ele>
        <time>2011-02-19T09:57:02Z</time>
      </trkpt>
      <trkpt lat="42.66361" lon="0.921">
        <ele>1672.35</ele>
        <time>2011-02-19T09:57:14Z</time>
      </trkpt>
      <trkpt lat="42.66361" lon="0.92106">
        <ele>1672.83</ele>
        <time>2011-02-19T09:57:23Z</time>
      </trkpt>
      <trkpt lat="42.66359" lon="0.9211">
        <ele>1673.31</ele>
        <time>2011-02-19T09:57:27Z</time>
      </trkpt>
      <trkpt lat="42.66354" lon="0.92119">
        <ele>1674.27</ele>
        <time>2011-02-19T09:57:39Z</time>
      </trkpt>
      <trkpt lat="42.66347" lon="0.92129">
        <ele>1674.75</ele>
        <time>2011-02-19T09:57:50Z</time>
      </trkpt>
      <trkpt lat="42.66345" lon="0.92129">
        <ele>1675.23</ele>
        <time>2011-02-19T09:57:52Z</time>
      </trkpt>
      <trkpt lat="42.66333" lon="0.92135">
        <ele>1675.72</ele>
        <time>2011-02-19T09:58:04Z</time>
      </trkpt>
      <trkpt lat="42.66323" lon="0.92138">
        <ele>1676.68</ele>
        <time>2011-02-19T09:58:16Z</time>
      </trkpt>
      <trkpt lat="42.66311" lon="0.92144">
        <ele>1678.12</ele>
        <time>2011-02-19T09:58:31Z</time>
      </trkpt>
      <trkpt lat="42.66305" lon="0.92143">
        <ele>1679.08</ele>
        <time>2011-02-19T09:58:42Z</time>
      </trkpt>
      <trkpt lat="42.66291" lon="0.92143">
        <ele>1680.04</ele>
        <time>2011-02-19T09:58:55Z</time>
      </trkpt>
      <trkpt lat="42.66286" lon="0.92144">
        <ele>1680.52</ele>
        <time>2011-02-19T09:58:59Z</time>
      </trkpt>
      <trkpt lat="42.66275" lon="0.9215">
        <ele>1681.96</ele>
        <time>2011-02-19T09:59:14Z</time>
      </trkpt>
      <trkpt lat="42.66268" lon="0.92152">
        <ele>1683.41</ele>
        <time>2011-02-19T09:59:24Z</time>
      </trkpt>
      <trkpt lat="42.6626" lon="0.92156">
        <ele>1683.89</ele>
        <time>2011-02-19T09:59:33Z</time>
      </trkpt>
      <trkpt lat="42.6625" lon="0.92161">
        <ele>1685.33</ele>
        <time>2011-02-19T09:59:46Z</time>
      </trkpt>
      <trkpt lat="42.66245" lon="0.92164">
        <ele>1686.29</ele>
        <time>2011-02-19T09:59:57Z</time>
      </trkpt>
      <trkpt lat="42.66241" lon="0.92168">
        <ele>1687.25</ele>
        <time>2011-02-19T10:00:09Z</time>
      </trkpt>
      <trkpt lat="42.66235" lon="0.92177">
        <ele>1688.21</ele>
        <time>2011-02-19T10:00:21Z</time>
      </trkpt>
      <trkpt lat="42.66224" lon="0.92181">
        <ele>1688.69</ele>
        <time>2011-02-19T10:00:30Z</time>
      </trkpt>
      <trkpt lat="42.66212" lon="0.92187">
        <ele>1689.17</ele>
        <time>2011-02-19T10:00:42Z</time>
      </trkpt>
      <trkpt lat="42.66204" lon="0.92191">
        <ele>1689.65</ele>
        <time>2011-02-19T10:00:53Z</time>
      </trkpt>
      <trkpt lat="42.66201" lon="0.92185">
        <ele>1692.06</ele>
        <time>2011-02-19T10:01:04Z</time>
      </trkpt>
      <trkpt lat="42.66205" lon="0.92174">
        <ele>1693.5</ele>
        <time>2011-02-19T10:01:18Z</time>
      </trkpt>
      <trkpt lat="42.66208" lon="0.92171">
        <ele>1693.5</ele>
        <time>2011-02-19T10:01:24Z</time>
      </trkpt>
      <trkpt lat="42.66215" lon="0.92157">
        <ele>1694.94</ele>
        <time>2011-02-19T10:01:38Z</time>
      </trkpt>
      <trkpt lat="42.66223" lon="0.9215">
        <ele>1695.42</ele>
        <time>2011-02-19T10:01:49Z</time>
      </trkpt>
      <trkpt lat="42.66231" lon="0.92138">
        <ele>1696.86</ele>
        <time>2011-02-19T10:02:03Z</time>
      </trkpt>
      <trkpt lat="42.66231" lon="0.92128">
        <ele>1698.31</ele>
        <time>2011-02-19T10:02:14Z</time>
      </trkpt>
      <trkpt lat="42.66226" lon="0.92121">
        <ele>1699.75</ele>
        <time>2011-02-19T10:02:27Z</time>
      </trkpt>
      <trkpt lat="42.66224" lon="0.9212">
        <ele>1700.23</ele>
        <time>2011-02-19T10:02:29Z</time>
      </trkpt>
      <trkpt lat="42.66219" lon="0.92125">
        <ele>1701.19</ele>
        <time>2011-02-19T10:02:39Z</time>
      </trkpt>
      <trkpt lat="42.66214" lon="0.92134">
        <ele>1702.63</ele>
        <time>2011-02-19T10:02:49Z</time>
      </trkpt>
      <trkpt lat="42.66211" lon="0.92139">
        <ele>1702.63</ele>
        <time>2011-02-19T10:02:56Z</time>
      </trkpt>
      <trkpt lat="42.66207" lon="0.92142">
        <ele>1703.11</ele>
        <time>2011-02-19T10:03:03Z</time>
      </trkpt>
      <trkpt lat="42.66195" lon="0.92148">
        <ele>1705.52</ele>
        <time>2011-02-19T10:03:18Z</time>
      </trkpt>
      <trkpt lat="42.66192" lon="0.92149">
        <ele>1705.52</ele>
        <time>2011-02-19T10:03:21Z</time>
      </trkpt>
      <trkpt lat="42.66188" lon="0.92148">
        <ele>1706.48</ele>
        <time>2011-02-19T10:03:26Z</time>
      </trkpt>
      <trkpt lat="42.66179" lon="0.92139">
        <ele>1706.96</ele>
        <time>2011-02-19T10:03:40Z</time>
      </trkpt>
      <trkpt lat="42.66166" lon="0.92133">
        <ele>1708.88</ele>
        <time>2011-02-19T10:03:54Z</time>
      </trkpt>
      <trkpt lat="42.66154" lon="0.92132">
        <ele>1708.88</ele>
        <time>2011-02-19T10:04:06Z</time>
      </trkpt>
      <trkpt lat="42.66153" lon="0.92132">
        <ele>1709.36</ele>
        <time>2011-02-19T10:04:07Z</time>
      </trkpt>
      <trkpt lat="42.6615" lon="0.92131">
        <ele>1709.36</ele>
        <time>2011-02-19T10:04:11Z</time>
      </trkpt>
      <trkpt lat="42.66139" lon="0.92136">
        <ele>1710.32</ele>
        <time>2011-02-19T10:04:24Z</time>
      </trkpt>
      <trkpt lat="42.66131" lon="0.92143">
        <ele>1711.28</ele>
        <time>2011-02-19T10:04:37Z</time>
      </trkpt>
      <trkpt lat="42.66124" lon="0.92153">
        <ele>1713.21</ele>
        <time>2011-02-19T10:04:49Z</time>
      </trkpt>
      <trkpt lat="42.66117" lon="0.92158">
        <ele>1713.69</ele>
        <time>2011-02-19T10:05:00Z</time>
      </trkpt>
      <trkpt lat="42.66107" lon="0.92166">
        <ele>1715.13</ele>
        <time>2011-02-19T10:05:13Z</time>
      </trkpt>
      <trkpt lat="42.66102" lon="0.92167">
        <ele>1716.09</ele>
        <time>2011-02-19T10:05:19Z</time>
      </trkpt>
      <trkpt lat="42.66096" lon="0.92167">
        <ele>1716.57</ele>
        <time>2011-02-19T10:05:26Z</time>
      </trkpt>
      <trkpt lat="42.6609" lon="0.92165">
        <ele>1717.05</ele>
        <time>2011-02-19T10:05:32Z</time>
      </trkpt>
      <trkpt lat="42.66077" lon="0.92158">
        <ele>1718.01</ele>
        <time>2011-02-19T10:05:47Z</time>
      </trkpt>
      <trkpt lat="42.66072" lon="0.92156">
        <ele>1718.49</ele>
        <time>2011-02-19T10:05:53Z</time>
      </trkpt>
      <trkpt lat="42.66061" lon="0.9215">
        <ele>1718.97</ele>
        <time>2011-02-19T10:06:06Z</time>
      </trkpt>
      <trkpt lat="42.66057" lon="0.92149">
        <ele>1719.46</ele>
        <time>2011-02-19T10:06:12Z</time>
      </trkpt>
      <trkpt lat="42.66051" lon="0.92148">
        <ele>1719.94</ele>
        <time>2011-02-19T10:06:18Z</time>
      </trkpt>
      <trkpt lat="42.66037" lon="0.9215">
        <ele>1720.9</ele>
        <time>2011-02-19T10:06:32Z</time>
      </trkpt>
      <trkpt lat="42.66024" lon="0.92153">
        <ele>1721.38</ele>
        <time>2011-02-19T10:06:44Z</time>
      </trkpt>
      <trkpt lat="42.66023" lon="0.92153">
        <ele>1721.86</ele>
        <time>2011-02-19T10:06:45Z</time>
      </trkpt>
      <trkpt lat="42.66011" lon="0.92158">
        <ele>1722.34</ele>
        <time>2011-02-19T10:06:58Z</time>
      </trkpt>
      <trkpt lat="42.65999" lon="0.92162">
        <ele>1723.78</ele>
        <time>2011-02-19T10:07:12Z</time>
      </trkpt>
      <trkpt lat="42.65997" lon="0.92162">
        <ele>1723.78</ele>
        <time>2011-02-19T10:07:14Z</time>
      </trkpt>
      <trkpt lat="42.65989" lon="0.92165">
        <ele>1724.26</ele>
        <time>2011-02-19T10:07:23Z</time>
      </trkpt>
      <trkpt lat="42.65978" lon="0.92171">
        <ele>1725.22</ele>
        <time>2011-02-19T10:07:36Z</time>
      </trkpt>
      <trkpt lat="42.65973" lon="0.92175">
        <ele>1725.7</ele>
        <time>2011-02-19T10:07:42Z</time>
      </trkpt>
      <trkpt lat="42.65968" lon="0.92179">
        <ele>1726.18</ele>
        <time>2011-02-19T10:07:48Z</time>
      </trkpt>
      <trkpt lat="42.65961" lon="0.9218">
        <ele>1726.67</ele>
        <time>2011-02-19T10:07:54Z</time>
      </trkpt>
      <trkpt lat="42.65954" lon="0.92187">
        <ele>1727.15</ele>
        <time>2011-02-19T10:08:03Z</time>
      </trkpt>
      <trkpt lat="42.65952" lon="0.92193">
        <ele>1727.63</ele>
        <time>2011-02-19T10:08:08Z</time>
      </trkpt>
      <trkpt lat="42.65944" lon="0.92194">
        <ele>1728.59</ele>
        <time>2011-02-19T10:08:17Z</time>
      </trkpt>
      <trkpt lat="42.65934" lon="0.922">
        <ele>1728.59</ele>
        <time>2011-02-19T10:08:30Z</time>
      </trkpt>
      <trkpt lat="42.65927" lon="0.92204">
        <ele>1729.55</ele>
        <time>2011-02-19T10:08:38Z</time>
      </trkpt>
      <trkpt lat="42.65921" lon="0.92207">
        <ele>1729.55</ele>
        <time>2011-02-19T10:08:44Z</time>
      </trkpt>
      <trkpt lat="42.65919" lon="0.92209">
        <ele>1730.51</ele>
        <time>2011-02-19T10:08:47Z</time>
      </trkpt>
      <trkpt lat="42.65904" lon="0.92217">
        <ele>1730.99</ele>
        <time>2011-02-19T10:09:02Z</time>
      </trkpt>
      <trkpt lat="42.65904" lon="0.92218">
        <ele>1731.47</ele>
        <time>2011-02-19T10:09:03Z</time>
      </trkpt>
      <trkpt lat="42.65897" lon="0.92225">
        <ele>1731.47</ele>
        <time>2011-02-19T10:09:15Z</time>
      </trkpt>
      <trkpt lat="42.65892" lon="0.9223">
        <ele>1731.95</ele>
        <time>2011-02-19T10:09:22Z</time>
      </trkpt>
      <trkpt lat="42.65889" lon="0.92236">
        <ele>1732.43</ele>
        <time>2011-02-19T10:09:27Z</time>
      </trkpt>
      <trkpt lat="42.65886" lon="0.92247">
        <ele>1732.91</ele>
        <time>2011-02-19T10:09:36Z</time>
      </trkpt>
      <trkpt lat="42.65878" lon="0.92247">
        <ele>1733.88</ele>
        <time>2011-02-19T10:09:43Z</time>
      </trkpt>
      <trkpt lat="42.65873" lon="0.92251">
        <ele>1734.36</ele>
        <time>2011-02-19T10:09:50Z</time>
      </trkpt>
      <trkpt lat="42.65868" lon="0.92254">
        <ele>1734.36</ele>
        <time>2011-02-19T10:09:55Z</time>
      </trkpt>
      <trkpt lat="42.65865" lon="0.92256">
        <ele>1734.36</ele>
        <time>2011-02-19T10:09:58Z</time>
      </trkpt>
      <trkpt lat="42.65854" lon="0.92252">
        <ele>1735.32</ele>
        <time>2011-02-19T10:10:06Z</time>
      </trkpt>
      <trkpt lat="42.65849" lon="0.92252">
        <ele>1734.84</ele>
        <time>2011-02-19T10:10:10Z</time>
      </trkpt>
      <trkpt lat="42.65843" lon="0.92254">
        <ele>1734.84</ele>
        <time>2011-02-19T10:10:16Z</time>
      </trkpt>
      <trkpt lat="42.6584" lon="0.92254">
        <ele>1734.84</ele>
        <time>2011-02-19T10:10:19Z</time>
      </trkpt>
      <trkpt lat="42.65835" lon="0.92254">
        <ele>1735.32</ele>
        <time>2011-02-19T10:10:24Z</time>
      </trkpt>
      <trkpt lat="42.65818" lon="0.92251">
        <ele>1735.32</ele>
        <time>2011-02-19T10:10:38Z</time>
      </trkpt>
      <trkpt lat="42.65811" lon="0.92251">
        <ele>1735.8</ele>
        <time>2011-02-19T10:10:44Z</time>
      </trkpt>
      <trkpt lat="42.65796" lon="0.92252">
        <ele>1736.28</ele>
        <time>2011-02-19T10:10:58Z</time>
      </trkpt>
      <trkpt lat="42.65783" lon="0.9226">
        <ele>1736.28</ele>
        <time>2011-02-19T10:11:12Z</time>
      </trkpt>
      <trkpt lat="42.65782" lon="0.92262">
        <ele>1736.76</ele>
        <time>2011-02-19T10:11:14Z</time>
      </trkpt>
      <trkpt lat="42.65775" lon="0.92272">
        <ele>1735.8</ele>
        <time>2011-02-19T10:11:28Z</time>
      </trkpt>
      <trkpt lat="42.65776" lon="0.92272">
        <ele>1736.28</ele>
        <time>2011-02-19T10:12:17Z</time>
      </trkpt>
      <trkpt lat="42.65776" lon="0.92272">
        <ele>1735.8</ele>
        <time>2011-02-19T10:12:42Z</time>
      </trkpt>
      <trkpt lat="42.65771" lon="0.92288">
        <ele>1735.8</ele>
        <time>2011-02-19T10:12:56Z</time>
      </trkpt>
      <trkpt lat="42.65768" lon="0.92293">
        <ele>1735.32</ele>
        <time>2011-02-19T10:13:00Z</time>
      </trkpt>
      <trkpt lat="42.65764" lon="0.92306">
        <ele>1735.32</ele>
        <time>2011-02-19T10:13:10Z</time>
      </trkpt>
      <trkpt lat="42.65761" lon="0.92323">
        <ele>1735.8</ele>
        <time>2011-02-19T10:13:23Z</time>
      </trkpt>
      <trkpt lat="42.65758" lon="0.92339">
        <ele>1736.28</ele>
        <time>2011-02-19T10:13:35Z</time>
      </trkpt>
      <trkpt lat="42.65756" lon="0.92342">
        <ele>1736.28</ele>
        <time>2011-02-19T10:13:39Z</time>
      </trkpt>
      <trkpt lat="42.65755" lon="0.92349">
        <ele>1736.28</ele>
        <time>2011-02-19T10:13:45Z</time>
      </trkpt>
      <trkpt lat="42.65749" lon="0.92364">
        <ele>1736.76</ele>
        <time>2011-02-19T10:13:59Z</time>
      </trkpt>
      <trkpt lat="42.65749" lon="0.92365">
        <ele>1737.24</ele>
        <time>2011-02-19T10:14:00Z</time>
      </trkpt>
      <trkpt lat="42.65747" lon="0.92374">
        <ele>1736.76</ele>
        <time>2011-02-19T10:14:07Z</time>
      </trkpt>
      <trkpt lat="42.65743" lon="0.92395">
        <ele>1736.76</ele>
        <time>2011-02-19T10:14:21Z</time>
      </trkpt>
      <trkpt lat="42.65742" lon="0.92399">
        <ele>1736.76</ele>
        <time>2011-02-19T10:14:25Z</time>
      </trkpt>
      <trkpt lat="42.65741" lon="0.92407">
        <ele>1737.24</ele>
        <time>2011-02-19T10:14:30Z</time>
      </trkpt>
      <trkpt lat="42.65737" lon="0.9242">
        <ele>1737.72</ele>
        <time>2011-02-19T10:14:40Z</time>
      </trkpt>
      <trkpt lat="42.65736" lon="0.92424">
        <ele>1737.24</ele>
        <time>2011-02-19T10:14:44Z</time>
      </trkpt>
      <trkpt lat="42.65732" lon="0.92436">
        <ele>1737.24</ele>
        <time>2011-02-19T10:14:57Z</time>
      </trkpt>
      <trkpt lat="42.65731" lon="0.92441">
        <ele>1737.72</ele>
        <time>2011-02-19T10:15:14Z</time>
      </trkpt>
      <trkpt lat="42.65731" lon="0.92442">
        <ele>1737.72</ele>
        <time>2011-02-19T10:15:19Z</time>
      </trkpt>
      <trkpt lat="42.65727" lon="0.92459">
        <ele>1738.68</ele>
        <time>2011-02-19T10:15:33Z</time>
      </trkpt>
      <trkpt lat="42.65727" lon="0.92461">
        <ele>1738.2</ele>
        <time>2011-02-19T10:15:35Z</time>
      </trkpt>
      <trkpt lat="42.65726" lon="0.92467">
        <ele>1738.2</ele>
        <time>2011-02-19T10:15:40Z</time>
      </trkpt>
      <trkpt lat="42.65721" lon="0.92483">
        <ele>1739.16</ele>
        <time>2011-02-19T10:15:53Z</time>
      </trkpt>
      <trkpt lat="42.65719" lon="0.92493">
        <ele>1739.64</ele>
        <time>2011-02-19T10:16:02Z</time>
      </trkpt>
      <trkpt lat="42.65717" lon="0.925">
        <ele>1740.12</ele>
        <time>2011-02-19T10:16:07Z</time>
      </trkpt>
      <trkpt lat="42.65715" lon="0.92511">
        <ele>1740.12</ele>
        <time>2011-02-19T10:16:16Z</time>
      </trkpt>
      <trkpt lat="42.65713" lon="0.92517">
        <ele>1740.6</ele>
        <time>2011-02-19T10:16:22Z</time>
      </trkpt>
      <trkpt lat="42.65712" lon="0.92522">
        <ele>1740.6</ele>
        <time>2011-02-19T10:16:26Z</time>
      </trkpt>
      <trkpt lat="42.65707" lon="0.92539">
        <ele>1741.08</ele>
        <time>2011-02-19T10:16:40Z</time>
      </trkpt>
      <trkpt lat="42.65706" lon="0.92544">
        <ele>1741.57</ele>
        <time>2011-02-19T10:16:44Z</time>
      </trkpt>
      <trkpt lat="42.65704" lon="0.92551">
        <ele>1740.6</ele>
        <time>2011-02-19T10:16:49Z</time>
      </trkpt>
      <trkpt lat="42.65698" lon="0.92573">
        <ele>1742.05</ele>
        <time>2011-02-19T10:17:06Z</time>
      </trkpt>
      <trkpt lat="42.65695" lon="0.9259">
        <ele>1742.53</ele>
        <time>2011-02-19T10:17:19Z</time>
      </trkpt>
      <trkpt lat="42.65694" lon="0.92595">
        <ele>1743.01</ele>
        <time>2011-02-19T10:17:22Z</time>
      </trkpt>
      <trkpt lat="42.65694" lon="0.92606">
        <ele>1743.01</ele>
        <time>2011-02-19T10:17:30Z</time>
      </trkpt>
      <trkpt lat="42.65696" lon="0.92619">
        <ele>1743.49</ele>
        <time>2011-02-19T10:17:39Z</time>
      </trkpt>
      <trkpt lat="42.65697" lon="0.92631">
        <ele>1743.97</ele>
        <time>2011-02-19T10:17:48Z</time>
      </trkpt>
      <trkpt lat="42.65699" lon="0.92637">
        <ele>1744.45</ele>
        <time>2011-02-19T10:17:54Z</time>
      </trkpt>
      <trkpt lat="42.65699" lon="0.92652">
        <ele>1744.93</ele>
        <time>2011-02-19T10:18:08Z</time>
      </trkpt>
      <trkpt lat="42.657" lon="0.92666">
        <ele>1745.89</ele>
        <time>2011-02-19T10:18:20Z</time>
      </trkpt>
      <trkpt lat="42.65701" lon="0.92671">
        <ele>1746.37</ele>
        <time>2011-02-19T10:18:24Z</time>
      </trkpt>
      <trkpt lat="42.65703" lon="0.92679">
        <ele>1746.37</ele>
        <time>2011-02-19T10:18:30Z</time>
      </trkpt>
      <trkpt lat="42.65708" lon="0.92699">
        <ele>1746.37</ele>
        <time>2011-02-19T10:18:45Z</time>
      </trkpt>
      <trkpt lat="42.6571" lon="0.92708">
        <ele>1746.85</ele>
        <time>2011-02-19T10:18:52Z</time>
      </trkpt>
      <trkpt lat="42.6571" lon="0.92712">
        <ele>1746.85</ele>
        <time>2011-02-19T10:18:56Z</time>
      </trkpt>
      <trkpt lat="42.65713" lon="0.92721">
        <ele>1747.33</ele>
        <time>2011-02-19T10:19:05Z</time>
      </trkpt>
      <trkpt lat="42.65716" lon="0.92739">
        <ele>1748.29</ele>
        <time>2011-02-19T10:19:20Z</time>
      </trkpt>
      <trkpt lat="42.65717" lon="0.92742">
        <ele>1749.26</ele>
        <time>2011-02-19T10:19:23Z</time>
      </trkpt>
      <trkpt lat="42.65721" lon="0.92755">
        <ele>1749.74</ele>
        <time>2011-02-19T10:19:37Z</time>
      </trkpt>
      <trkpt lat="42.65721" lon="0.92756">
        <ele>1750.22</ele>
        <time>2011-02-19T10:19:39Z</time>
      </trkpt>
      <trkpt lat="42.65722" lon="0.92761">
        <ele>1750.7</ele>
        <time>2011-02-19T10:19:43Z</time>
      </trkpt>
      <trkpt lat="42.65723" lon="0.92772">
        <ele>1751.66</ele>
        <time>2011-02-19T10:19:54Z</time>
      </trkpt>
      <trkpt lat="42.65718" lon="0.92786">
        <ele>1752.62</ele>
        <time>2011-02-19T10:20:08Z</time>
      </trkpt>
      <trkpt lat="42.65717" lon="0.92786">
        <ele>1753.1</ele>
        <time>2011-02-19T10:20:29Z</time>
      </trkpt>
      <trkpt lat="42.65716" lon="0.92786">
        <ele>1752.14</ele>
        <time>2011-02-19T10:20:41Z</time>
      </trkpt>
      <trkpt lat="42.65716" lon="0.92786">
        <ele>1749.74</ele>
        <time>2011-02-19T10:21:18Z</time>
      </trkpt>
      <trkpt lat="42.65716" lon="0.92786">
        <ele>1752.62</ele>
        <time>2011-02-19T10:21:21Z</time>
      </trkpt>
      <trkpt lat="42.65716" lon="0.92787">
        <ele>1743.97</ele>
        <time>2011-02-19T10:21:35Z</time>
      </trkpt>
      <trkpt lat="42.65716" lon="0.92787">
        <ele>1758.39</ele>
        <time>2011-02-19T10:21:36Z</time>
      </trkpt>
      <trkpt lat="42.65716" lon="0.92787">
        <ele>1754.06</ele>
        <time>2011-02-19T10:21:37Z</time>
      </trkpt>
      <trkpt lat="42.65716" lon="0.92787">
        <ele>1752.62</ele>
        <time>2011-02-19T10:21:40Z</time>
      </trkpt>
      <trkpt lat="42.65716" lon="0.92787">
        <ele>1749.26</ele>
        <time>2011-02-19T10:21:41Z</time>
      </trkpt>
      <trkpt lat="42.65716" lon="0.92787">
        <ele>1756.47</ele>
        <time>2011-02-19T10:21:42Z</time>
      </trkpt>
      <trkpt lat="42.65716" lon="0.92787">
        <ele>1752.14</ele>
        <time>2011-02-19T10:21:44Z</time>
      </trkpt>
      <trkpt lat="42.65716" lon="0.92787">
        <ele>1754.06</ele>
        <time>2011-02-19T10:21:47Z</time>
      </trkpt>
      <trkpt lat="42.65716" lon="0.92787">
        <ele>1752.14</ele>
        <time>2011-02-19T10:21:49Z</time>
      </trkpt>
      <trkpt lat="42.65716" lon="0.92787">
        <ele>1754.54</ele>
        <time>2011-02-19T10:21:51Z</time>
      </trkpt>
      <trkpt lat="42.65716" lon="0.92787">
        <ele>1752.14</ele>
        <time>2011-02-19T10:21:53Z</time>
      </trkpt>
      <trkpt lat="42.65716" lon="0.92787">
        <ele>1747.81</ele>
        <time>2011-02-19T10:21:54Z</time>
      </trkpt>
      <trkpt lat="42.65716" lon="0.92787">
        <ele>1753.1</ele>
        <time>2011-02-19T10:21:55Z</time>
      </trkpt>
      <trkpt lat="42.65717" lon="0.92788">
        <ele>1756.47</ele>
        <time>2011-02-19T10:23:33Z</time>
      </trkpt>
      <trkpt lat="42.65718" lon="0.92789">
        <ele>1753.1</ele>
        <time>2011-02-19T10:23:38Z</time>
      </trkpt>
      <trkpt lat="42.65718" lon="0.92789">
        <ele>1751.18</ele>
        <time>2011-02-19T10:23:52Z</time>
      </trkpt>
      <trkpt lat="42.65718" lon="0.92789">
        <ele>1754.54</ele>
        <time>2011-02-19T10:23:54Z</time>
      </trkpt>
      <trkpt lat="42.65718" lon="0.92789">
        <ele>1754.06</ele>
        <time>2011-02-19T10:23:55Z</time>
      </trkpt>
      <trkpt lat="42.65717" lon="0.9279">
        <ele>1750.22</ele>
        <time>2011-02-19T10:24:37Z</time>
      </trkpt>
      <trkpt lat="42.65717" lon="0.9279">
        <ele>1753.58</ele>
        <time>2011-02-19T10:24:41Z</time>
      </trkpt>
      <trkpt lat="42.65717" lon="0.9279">
        <ele>1753.58</ele>
        <time>2011-02-19T10:24:47Z</time>
      </trkpt>
      <trkpt lat="42.65718" lon="0.92789">
        <ele>1754.54</ele>
        <time>2011-02-19T10:24:57Z</time>
      </trkpt>
      <trkpt lat="42.65717" lon="0.92788">
        <ele>1754.54</ele>
        <time>2011-02-19T10:26:24Z</time>
      </trkpt>
      <trkpt lat="42.65717" lon="0.92788">
        <ele>1754.06</ele>
        <time>2011-02-19T10:27:17Z</time>
      </trkpt>
      <trkpt lat="42.65718" lon="0.92788">
        <ele>1754.06</ele>
        <time>2011-02-19T10:28:05Z</time>
      </trkpt>
      <trkpt lat="42.6571" lon="0.92795">
        <ele>1754.54</ele>
        <time>2011-02-19T10:28:21Z</time>
      </trkpt>
      <trkpt lat="42.65701" lon="0.92803">
        <ele>1755.5</ele>
        <time>2011-02-19T10:28:34Z</time>
      </trkpt>
      <trkpt lat="42.65693" lon="0.92809">
        <ele>1756.95</ele>
        <time>2011-02-19T10:28:46Z</time>
      </trkpt>
      <trkpt lat="42.65682" lon="0.92816">
        <ele>1757.91</ele>
        <time>2011-02-19T10:29:00Z</time>
      </trkpt>
      <trkpt lat="42.65677" lon="0.92821">
        <ele>1757.91</ele>
        <time>2011-02-19T10:29:07Z</time>
      </trkpt>
      <trkpt lat="42.65666" lon="0.92827">
        <ele>1759.35</ele>
        <time>2011-02-19T10:29:20Z</time>
      </trkpt>
      <trkpt lat="42.65657" lon="0.92835">
        <ele>1760.31</ele>
        <time>2011-02-19T10:29:33Z</time>
      </trkpt>
      <trkpt lat="42.65647" lon="0.92843">
        <ele>1761.27</ele>
        <time>2011-02-19T10:29:47Z</time>
      </trkpt>
      <trkpt lat="42.65638" lon="0.9285">
        <ele>1761.75</ele>
        <time>2011-02-19T10:29:59Z</time>
      </trkpt>
      <trkpt lat="42.65631" lon="0.92858">
        <ele>1763.2</ele>
        <time>2011-02-19T10:30:11Z</time>
      </trkpt>
      <trkpt lat="42.65623" lon="0.92863">
        <ele>1764.16</ele>
        <time>2011-02-19T10:30:23Z</time>
      </trkpt>
      <trkpt lat="42.65615" lon="0.92871">
        <ele>1765.12</ele>
        <time>2011-02-19T10:30:35Z</time>
      </trkpt>
      <trkpt lat="42.65606" lon="0.92879">
        <ele>1766.08</ele>
        <time>2011-02-19T10:30:48Z</time>
      </trkpt>
      <trkpt lat="42.65602" lon="0.92882">
        <ele>1766.56</ele>
        <time>2011-02-19T10:30:53Z</time>
      </trkpt>
      <trkpt lat="42.65595" lon="0.92887">
        <ele>1767.04</ele>
        <time>2011-02-19T10:31:05Z</time>
      </trkpt>
      <trkpt lat="42.65594" lon="0.92889">
        <ele>1768</ele>
        <time>2011-02-19T10:31:08Z</time>
      </trkpt>
      <trkpt lat="42.65588" lon="0.92893">
        <ele>1768.48</ele>
        <time>2011-02-19T10:31:15Z</time>
      </trkpt>
      <trkpt lat="42.65581" lon="0.92902">
        <ele>1769.44</ele>
        <time>2011-02-19T10:31:27Z</time>
      </trkpt>
      <trkpt lat="42.65572" lon="0.9291">
        <ele>1770.41</ele>
        <time>2011-02-19T10:31:40Z</time>
      </trkpt>
      <trkpt lat="42.65563" lon="0.92917">
        <ele>1771.37</ele>
        <time>2011-02-19T10:31:52Z</time>
      </trkpt>
      <trkpt lat="42.65561" lon="0.92918">
        <ele>1771.85</ele>
        <time>2011-02-19T10:31:56Z</time>
      </trkpt>
      <trkpt lat="42.65554" lon="0.92926">
        <ele>1772.33</ele>
        <time>2011-02-19T10:32:07Z</time>
      </trkpt>
      <trkpt lat="42.65544" lon="0.92932">
        <ele>1773.77</ele>
        <time>2011-02-19T10:32:20Z</time>
      </trkpt>
      <trkpt lat="42.65536" lon="0.92938">
        <ele>1775.21</ele>
        <time>2011-02-19T10:32:31Z</time>
      </trkpt>
      <trkpt lat="42.65529" lon="0.92945">
        <ele>1776.65</ele>
        <time>2011-02-19T10:32:44Z</time>
      </trkpt>
      <trkpt lat="42.65526" lon="0.92947">
        <ele>1776.65</ele>
        <time>2011-02-19T10:32:48Z</time>
      </trkpt>
      <trkpt lat="42.65515" lon="0.92955">
        <ele>1777.61</ele>
        <time>2011-02-19T10:33:02Z</time>
      </trkpt>
      <trkpt lat="42.65507" lon="0.92962">
        <ele>1779.06</ele>
        <time>2011-02-19T10:33:14Z</time>
      </trkpt>
      <trkpt lat="42.655" lon="0.9297">
        <ele>1780.5</ele>
        <time>2011-02-19T10:33:26Z</time>
      </trkpt>
      <trkpt lat="42.65494" lon="0.92974">
        <ele>1781.46</ele>
        <time>2011-02-19T10:33:36Z</time>
      </trkpt>
      <trkpt lat="42.65487" lon="0.9298">
        <ele>1781.94</ele>
        <time>2011-02-19T10:33:47Z</time>
      </trkpt>
      <trkpt lat="42.65479" lon="0.9299">
        <ele>1783.86</ele>
        <time>2011-02-19T10:34:02Z</time>
      </trkpt>
      <trkpt lat="42.65472" lon="0.92995">
        <ele>1784.82</ele>
        <time>2011-02-19T10:34:13Z</time>
      </trkpt>
      <trkpt lat="42.65462" lon="0.93005">
        <ele>1786.27</ele>
        <time>2011-02-19T10:34:27Z</time>
      </trkpt>
      <trkpt lat="42.6546" lon="0.93008">
        <ele>1786.75</ele>
        <time>2011-02-19T10:34:31Z</time>
      </trkpt>
      <trkpt lat="42.65452" lon="0.93015">
        <ele>1787.23</ele>
        <time>2011-02-19T10:34:43Z</time>
      </trkpt>
      <trkpt lat="42.65442" lon="0.9302">
        <ele>1788.67</ele>
        <time>2011-02-19T10:34:54Z</time>
      </trkpt>
      <trkpt lat="42.65441" lon="0.93021">
        <ele>1789.15</ele>
        <time>2011-02-19T10:34:56Z</time>
      </trkpt>
      <trkpt lat="42.65433" lon="0.93028">
        <ele>1790.11</ele>
        <time>2011-02-19T10:35:09Z</time>
      </trkpt>
      <trkpt lat="42.65425" lon="0.93036">
        <ele>1791.07</ele>
        <time>2011-02-19T10:35:22Z</time>
      </trkpt>
      <trkpt lat="42.65415" lon="0.93042">
        <ele>1793</ele>
        <time>2011-02-19T10:35:36Z</time>
      </trkpt>
      <trkpt lat="42.65404" lon="0.93049">
        <ele>1793.48</ele>
        <time>2011-02-19T10:35:48Z</time>
      </trkpt>
      <trkpt lat="42.654" lon="0.93051">
        <ele>1793.48</ele>
        <time>2011-02-19T10:35:53Z</time>
      </trkpt>
      <trkpt lat="42.65392" lon="0.93057">
        <ele>1793.96</ele>
        <time>2011-02-19T10:36:03Z</time>
      </trkpt>
      <trkpt lat="42.6538" lon="0.93065">
        <ele>1794.44</ele>
        <time>2011-02-19T10:36:16Z</time>
      </trkpt>
      <trkpt lat="42.65375" lon="0.93068">
        <ele>1794.92</ele>
        <time>2011-02-19T10:36:21Z</time>
      </trkpt>
      <trkpt lat="42.65371" lon="0.9307">
        <ele>1795.4</ele>
        <time>2011-02-19T10:36:26Z</time>
      </trkpt>
      <trkpt lat="42.65357" lon="0.93076">
        <ele>1795.88</ele>
        <time>2011-02-19T10:36:40Z</time>
      </trkpt>
      <trkpt lat="42.65355" lon="0.93077">
        <ele>1796.36</ele>
        <time>2011-02-19T10:36:43Z</time>
      </trkpt>
      <trkpt lat="42.65344" lon="0.9308">
        <ele>1795.88</ele>
        <time>2011-02-19T10:36:55Z</time>
      </trkpt>
      <trkpt lat="42.65342" lon="0.9308">
        <ele>1796.36</ele>
        <time>2011-02-19T10:36:58Z</time>
      </trkpt>
      <trkpt lat="42.65333" lon="0.93083">
        <ele>1796.84</ele>
        <time>2011-02-19T10:37:10Z</time>
      </trkpt>
      <trkpt lat="42.65329" lon="0.93085">
        <ele>1797.32</ele>
        <time>2011-02-19T10:37:15Z</time>
      </trkpt>
      <trkpt lat="42.65316" lon="0.93095">
        <ele>1797.8</ele>
        <time>2011-02-19T10:37:30Z</time>
      </trkpt>
      <trkpt lat="42.65304" lon="0.93102">
        <ele>1797.8</ele>
        <time>2011-02-19T10:37:43Z</time>
      </trkpt>
      <trkpt lat="42.65302" lon="0.93103">
        <ele>1797.8</ele>
        <time>2011-02-19T10:37:45Z</time>
      </trkpt>
      <trkpt lat="42.65294" lon="0.93109">
        <ele>1798.28</ele>
        <time>2011-02-19T10:37:53Z</time>
      </trkpt>
      <trkpt lat="42.65287" lon="0.93115">
        <ele>1797.8</ele>
        <time>2011-02-19T10:38:00Z</time>
      </trkpt>
      <trkpt lat="42.65285" lon="0.93116">
        <ele>1798.76</ele>
        <time>2011-02-19T10:38:02Z</time>
      </trkpt>
      <trkpt lat="42.65269" lon="0.93123">
        <ele>1798.28</ele>
        <time>2011-02-19T10:38:17Z</time>
      </trkpt>
      <trkpt lat="42.65261" lon="0.9313">
        <ele>1798.28</ele>
        <time>2011-02-19T10:38:26Z</time>
      </trkpt>
      <trkpt lat="42.65248" lon="0.93138">
        <ele>1798.76</ele>
        <time>2011-02-19T10:38:41Z</time>
      </trkpt>
      <trkpt lat="42.65244" lon="0.93142">
        <ele>1798.76</ele>
        <time>2011-02-19T10:38:46Z</time>
      </trkpt>
      <trkpt lat="42.65239" lon="0.93148">
        <ele>1799.24</ele>
        <time>2011-02-19T10:38:52Z</time>
      </trkpt>
      <trkpt lat="42.65228" lon="0.93161">
        <ele>1799.24</ele>
        <time>2011-02-19T10:39:07Z</time>
      </trkpt>
      <trkpt lat="42.65225" lon="0.93165">
        <ele>1799.73</ele>
        <time>2011-02-19T10:39:11Z</time>
      </trkpt>
      <trkpt lat="42.65215" lon="0.93176">
        <ele>1800.21</ele>
        <time>2011-02-19T10:39:24Z</time>
      </trkpt>
      <trkpt lat="42.65212" lon="0.9318">
        <ele>1800.69</ele>
        <time>2011-02-19T10:39:28Z</time>
      </trkpt>
      <trkpt lat="42.65206" lon="0.93189">
        <ele>1800.69</ele>
        <time>2011-02-19T10:39:36Z</time>
      </trkpt>
      <trkpt lat="42.65197" lon="0.93203">
        <ele>1801.65</ele>
        <time>2011-02-19T10:39:51Z</time>
      </trkpt>
      <trkpt lat="42.65187" lon="0.93214">
        <ele>1802.13</ele>
        <time>2011-02-19T10:40:04Z</time>
      </trkpt>
      <trkpt lat="42.65183" lon="0.93218">
        <ele>1802.13</ele>
        <time>2011-02-19T10:40:09Z</time>
      </trkpt>
      <trkpt lat="42.6518" lon="0.93224">
        <ele>1802.13</ele>
        <time>2011-02-19T10:40:14Z</time>
      </trkpt>
      <trkpt lat="42.65175" lon="0.93229">
        <ele>1802.61</ele>
        <time>2011-02-19T10:40:20Z</time>
      </trkpt>
      <trkpt lat="42.65166" lon="0.93244">
        <ele>1803.09</ele>
        <time>2011-02-19T10:40:34Z</time>
      </trkpt>
      <trkpt lat="42.65158" lon="0.93258">
        <ele>1803.57</ele>
        <time>2011-02-19T10:40:47Z</time>
      </trkpt>
      <trkpt lat="42.6515" lon="0.93268">
        <ele>1804.05</ele>
        <time>2011-02-19T10:40:58Z</time>
      </trkpt>
      <trkpt lat="42.65144" lon="0.93283">
        <ele>1804.53</ele>
        <time>2011-02-19T10:41:13Z</time>
      </trkpt>
      <trkpt lat="42.65143" lon="0.93284">
        <ele>1805.01</ele>
        <time>2011-02-19T10:41:14Z</time>
      </trkpt>
      <trkpt lat="42.65137" lon="0.93289">
        <ele>1805.01</ele>
        <time>2011-02-19T10:41:21Z</time>
      </trkpt>
      <trkpt lat="42.6513" lon="0.93296">
        <ele>1805.49</ele>
        <time>2011-02-19T10:41:33Z</time>
      </trkpt>
      <trkpt lat="42.65128" lon="0.93304">
        <ele>1805.97</ele>
        <time>2011-02-19T10:41:39Z</time>
      </trkpt>
      <trkpt lat="42.65126" lon="0.93308">
        <ele>1805.49</ele>
        <time>2011-02-19T10:41:42Z</time>
      </trkpt>
      <trkpt lat="42.65117" lon="0.93321">
        <ele>1805.97</ele>
        <time>2011-02-19T10:41:55Z</time>
      </trkpt>
      <trkpt lat="42.65116" lon="0.93323">
        <ele>1805.97</ele>
        <time>2011-02-19T10:41:57Z</time>
      </trkpt>
      <trkpt lat="42.6511" lon="0.93337">
        <ele>1806.94</ele>
        <time>2011-02-19T10:42:10Z</time>
      </trkpt>
      <trkpt lat="42.65109" lon="0.93339">
        <ele>1806.45</ele>
        <time>2011-02-19T10:42:12Z</time>
      </trkpt>
      <trkpt lat="42.65103" lon="0.93356">
        <ele>1807.9</ele>
        <time>2011-02-19T10:42:26Z</time>
      </trkpt>
      <trkpt lat="42.65098" lon="0.93366">
        <ele>1807.9</ele>
        <time>2011-02-19T10:42:34Z</time>
      </trkpt>
      <trkpt lat="42.65094" lon="0.93369">
        <ele>1807.9</ele>
        <time>2011-02-19T10:42:38Z</time>
      </trkpt>
      <trkpt lat="42.65082" lon="0.93372">
        <ele>1808.38</ele>
        <time>2011-02-19T10:42:48Z</time>
      </trkpt>
      <trkpt lat="42.65075" lon="0.93375">
        <ele>1807.9</ele>
        <time>2011-02-19T10:42:55Z</time>
      </trkpt>
      <trkpt lat="42.65071" lon="0.93376">
        <ele>1808.38</ele>
        <time>2011-02-19T10:42:59Z</time>
      </trkpt>
      <trkpt lat="42.65059" lon="0.93377">
        <ele>1808.86</ele>
        <time>2011-02-19T10:43:12Z</time>
      </trkpt>
      <trkpt lat="42.65047" lon="0.93372">
        <ele>1810.3</ele>
        <time>2011-02-19T10:43:27Z</time>
      </trkpt>
      <trkpt lat="42.65046" lon="0.93372">
        <ele>1810.3</ele>
        <time>2011-02-19T10:43:28Z</time>
      </trkpt>
      <trkpt lat="42.65035" lon="0.93366">
        <ele>1811.26</ele>
        <time>2011-02-19T10:43:42Z</time>
      </trkpt>
      <trkpt lat="42.65029" lon="0.93362">
        <ele>1811.74</ele>
        <time>2011-02-19T10:43:49Z</time>
      </trkpt>
      <trkpt lat="42.65023" lon="0.93358">
        <ele>1812.22</ele>
        <time>2011-02-19T10:43:59Z</time>
      </trkpt>
      <trkpt lat="42.6502" lon="0.93357">
        <ele>1812.7</ele>
        <time>2011-02-19T10:44:03Z</time>
      </trkpt>
      <trkpt lat="42.65011" lon="0.93356">
        <ele>1813.66</ele>
        <time>2011-02-19T10:44:16Z</time>
      </trkpt>
      <trkpt lat="42.65008" lon="0.93357">
        <ele>1814.63</ele>
        <time>2011-02-19T10:44:26Z</time>
      </trkpt>
      <trkpt lat="42.64999" lon="0.93357">
        <ele>1815.59</ele>
        <time>2011-02-19T10:44:38Z</time>
      </trkpt>
      <trkpt lat="42.64988" lon="0.93358">
        <ele>1817.03</ele>
        <time>2011-02-19T10:44:50Z</time>
      </trkpt>
      <trkpt lat="42.64987" lon="0.93358">
        <ele>1816.55</ele>
        <time>2011-02-19T10:44:52Z</time>
      </trkpt>
      <trkpt lat="42.64977" lon="0.9336">
        <ele>1817.99</ele>
        <time>2011-02-19T10:45:04Z</time>
      </trkpt>
      <trkpt lat="42.64966" lon="0.9336">
        <ele>1819.43</ele>
        <time>2011-02-19T10:45:18Z</time>
      </trkpt>
      <trkpt lat="42.6496" lon="0.93359">
        <ele>1819.91</ele>
        <time>2011-02-19T10:45:25Z</time>
      </trkpt>
      <trkpt lat="42.64948" lon="0.93362">
        <ele>1820.87</ele>
        <time>2011-02-19T10:45:40Z</time>
      </trkpt>
      <trkpt lat="42.64946" lon="0.93362">
        <ele>1821.35</ele>
        <time>2011-02-19T10:45:43Z</time>
      </trkpt>
      <trkpt lat="42.64935" lon="0.93366">
        <ele>1822.8</ele>
        <time>2011-02-19T10:45:56Z</time>
      </trkpt>
      <trkpt lat="42.64926" lon="0.93372">
        <ele>1824.24</ele>
        <time>2011-02-19T10:46:09Z</time>
      </trkpt>
      <trkpt lat="42.64914" lon="0.93377">
        <ele>1825.2</ele>
        <time>2011-02-19T10:46:22Z</time>
      </trkpt>
      <trkpt lat="42.64907" lon="0.93379">
        <ele>1825.2</ele>
        <time>2011-02-19T10:46:30Z</time>
      </trkpt>
      <trkpt lat="42.64897" lon="0.93388">
        <ele>1826.64</ele>
        <time>2011-02-19T10:46:44Z</time>
      </trkpt>
      <trkpt lat="42.64885" lon="0.93394">
        <ele>1828.56</ele>
        <time>2011-02-19T10:46:58Z</time>
      </trkpt>
      <trkpt lat="42.64879" lon="0.93397">
        <ele>1829.05</ele>
        <time>2011-02-19T10:47:06Z</time>
      </trkpt>
      <trkpt lat="42.64869" lon="0.93404">
        <ele>1830.49</ele>
        <time>2011-02-19T10:47:20Z</time>
      </trkpt>
      <trkpt lat="42.6486" lon="0.93411">
        <ele>1831.45</ele>
        <time>2011-02-19T10:47:33Z</time>
      </trkpt>
      <trkpt lat="42.64857" lon="0.93416">
        <ele>1831.45</ele>
        <time>2011-02-19T10:47:39Z</time>
      </trkpt>
      <trkpt lat="42.6485" lon="0.93428">
        <ele>1833.37</ele>
        <time>2011-02-19T10:47:53Z</time>
      </trkpt>
      <trkpt lat="42.64845" lon="0.93435">
        <ele>1834.33</ele>
        <time>2011-02-19T10:48:02Z</time>
      </trkpt>
      <trkpt lat="42.6484" lon="0.93446">
        <ele>1835.77</ele>
        <time>2011-02-19T10:48:15Z</time>
      </trkpt>
      <trkpt lat="42.64832" lon="0.93455">
        <ele>1836.26</ele>
        <time>2011-02-19T10:48:26Z</time>
      </trkpt>
      <trkpt lat="42.64821" lon="0.9346">
        <ele>1837.22</ele>
        <time>2011-02-19T10:48:39Z</time>
      </trkpt>
      <trkpt lat="42.6482" lon="0.9346">
        <ele>1837.7</ele>
        <time>2011-02-19T10:48:40Z</time>
      </trkpt>
      <trkpt lat="42.64805" lon="0.93456">
        <ele>1838.18</ele>
        <time>2011-02-19T10:48:54Z</time>
      </trkpt>
      <trkpt lat="42.64794" lon="0.9345">
        <ele>1839.14</ele>
        <time>2011-02-19T10:49:07Z</time>
      </trkpt>
      <trkpt lat="42.64786" lon="0.93442">
        <ele>1840.1</ele>
        <time>2011-02-19T10:49:19Z</time>
      </trkpt>
      <trkpt lat="42.64777" lon="0.93433">
        <ele>1841.06</ele>
        <time>2011-02-19T10:49:33Z</time>
      </trkpt>
      <trkpt lat="42.64769" lon="0.93418">
        <ele>1842.02</ele>
        <time>2011-02-19T10:49:45Z</time>
      </trkpt>
      <trkpt lat="42.64762" lon="0.93411">
        <ele>1841.54</ele>
        <time>2011-02-19T10:49:52Z</time>
      </trkpt>
      <trkpt lat="42.64759" lon="0.93409">
        <ele>1841.54</ele>
        <time>2011-02-19T10:49:54Z</time>
      </trkpt>
      <trkpt lat="42.64746" lon="0.93393">
        <ele>1842.5</ele>
        <time>2011-02-19T10:50:08Z</time>
      </trkpt>
      <trkpt lat="42.64743" lon="0.9339">
        <ele>1842.5</ele>
        <time>2011-02-19T10:50:11Z</time>
      </trkpt>
      <trkpt lat="42.64738" lon="0.93386">
        <ele>1842.02</ele>
        <time>2011-02-19T10:50:16Z</time>
      </trkpt>
      <trkpt lat="42.64734" lon="0.93384">
        <ele>1842.5</ele>
        <time>2011-02-19T10:50:20Z</time>
      </trkpt>
      <trkpt lat="42.64722" lon="0.93376">
        <ele>1843.47</ele>
        <time>2011-02-19T10:50:34Z</time>
      </trkpt>
      <trkpt lat="42.64709" lon="0.93372">
        <ele>1844.43</ele>
        <time>2011-02-19T10:50:47Z</time>
      </trkpt>
      <trkpt lat="42.64697" lon="0.93364">
        <ele>1844.91</ele>
        <time>2011-02-19T10:51:01Z</time>
      </trkpt>
      <trkpt lat="42.64688" lon="0.9336">
        <ele>1844.91</ele>
        <time>2011-02-19T10:51:11Z</time>
      </trkpt>
      <trkpt lat="42.64678" lon="0.93355">
        <ele>1845.87</ele>
        <time>2011-02-19T10:51:24Z</time>
      </trkpt>
      <trkpt lat="42.64668" lon="0.93351">
        <ele>1845.87</ele>
        <time>2011-02-19T10:51:36Z</time>
      </trkpt>
      <trkpt lat="42.64662" lon="0.93348">
        <ele>1845.87</ele>
        <time>2011-02-19T10:51:43Z</time>
      </trkpt>
      <trkpt lat="42.64648" lon="0.93342">
        <ele>1846.35</ele>
        <time>2011-02-19T10:51:57Z</time>
      </trkpt>
      <trkpt lat="42.64644" lon="0.93341">
        <ele>1846.35</ele>
        <time>2011-02-19T10:52:01Z</time>
      </trkpt>
      <trkpt lat="42.64635" lon="0.93338">
        <ele>1845.87</ele>
        <time>2011-02-19T10:52:09Z</time>
      </trkpt>
      <trkpt lat="42.64621" lon="0.93333">
        <ele>1845.39</ele>
        <time>2011-02-19T10:52:22Z</time>
      </trkpt>
      <trkpt lat="42.64608" lon="0.93331">
        <ele>1845.87</ele>
        <time>2011-02-19T10:52:34Z</time>
      </trkpt>
      <trkpt lat="42.64603" lon="0.93332">
        <ele>1846.35</ele>
        <time>2011-02-19T10:52:40Z</time>
      </trkpt>
      <trkpt lat="42.64594" lon="0.93331">
        <ele>1846.35</ele>
        <time>2011-02-19T10:52:52Z</time>
      </trkpt>
      <trkpt lat="42.64581" lon="0.93329">
        <ele>1846.83</ele>
        <time>2011-02-19T10:53:07Z</time>
      </trkpt>
      <trkpt lat="42.64573" lon="0.9333">
        <ele>1847.79</ele>
        <time>2011-02-19T10:53:16Z</time>
      </trkpt>
      <trkpt lat="42.64565" lon="0.9333">
        <ele>1847.79</ele>
        <time>2011-02-19T10:53:24Z</time>
      </trkpt>
      <trkpt lat="42.64557" lon="0.93328">
        <ele>1847.79</ele>
        <time>2011-02-19T10:53:32Z</time>
      </trkpt>
      <trkpt lat="42.64555" lon="0.93328">
        <ele>1848.75</ele>
        <time>2011-02-19T10:53:34Z</time>
      </trkpt>
      <trkpt lat="42.64543" lon="0.93327">
        <ele>1849.23</ele>
        <time>2011-02-19T10:53:46Z</time>
      </trkpt>
      <trkpt lat="42.64532" lon="0.93325">
        <ele>1849.23</ele>
        <time>2011-02-19T10:54:01Z</time>
      </trkpt>
      <trkpt lat="42.64517" lon="0.93325">
        <ele>1849.71</ele>
        <time>2011-02-19T10:54:16Z</time>
      </trkpt>
      <trkpt lat="42.64515" lon="0.93325">
        <ele>1850.19</ele>
        <time>2011-02-19T10:54:17Z</time>
      </trkpt>
      <trkpt lat="42.645" lon="0.93324">
        <ele>1850.19</ele>
        <time>2011-02-19T10:54:33Z</time>
      </trkpt>
      <trkpt lat="42.64486" lon="0.93322">
        <ele>1850.68</ele>
        <time>2011-02-19T10:54:48Z</time>
      </trkpt>
      <trkpt lat="42.64475" lon="0.93321">
        <ele>1852.12</ele>
        <time>2011-02-19T10:55:01Z</time>
      </trkpt>
      <trkpt lat="42.64463" lon="0.93319">
        <ele>1852.12</ele>
        <time>2011-02-19T10:55:13Z</time>
      </trkpt>
      <trkpt lat="42.64456" lon="0.9332">
        <ele>1852.12</ele>
        <time>2011-02-19T10:55:20Z</time>
      </trkpt>
      <trkpt lat="42.6444" lon="0.93319">
        <ele>1852.12</ele>
        <time>2011-02-19T10:55:34Z</time>
      </trkpt>
      <trkpt lat="42.64433" lon="0.93319">
        <ele>1852.6</ele>
        <time>2011-02-19T10:55:40Z</time>
      </trkpt>
      <trkpt lat="42.64432" lon="0.93319">
        <ele>1853.08</ele>
        <time>2011-02-19T10:55:42Z</time>
      </trkpt>
      <trkpt lat="42.64417" lon="0.9332">
        <ele>1852.6</ele>
        <time>2011-02-19T10:55:56Z</time>
      </trkpt>
      <trkpt lat="42.64411" lon="0.93323">
        <ele>1853.08</ele>
        <time>2011-02-19T10:56:02Z</time>
      </trkpt>
      <trkpt lat="42.64406" lon="0.93324">
        <ele>1852.6</ele>
        <time>2011-02-19T10:56:08Z</time>
      </trkpt>
      <trkpt lat="42.64402" lon="0.93325">
        <ele>1852.6</ele>
        <time>2011-02-19T10:56:13Z</time>
      </trkpt>
      <trkpt lat="42.64395" lon="0.93326">
        <ele>1853.08</ele>
        <time>2011-02-19T10:56:21Z</time>
      </trkpt>
      <trkpt lat="42.64392" lon="0.93327">
        <ele>1853.08</ele>
        <time>2011-02-19T10:56:26Z</time>
      </trkpt>
      <trkpt lat="42.64386" lon="0.93328">
        <ele>1854.04</ele>
        <time>2011-02-19T10:56:31Z</time>
      </trkpt>
      <trkpt lat="42.64375" lon="0.93331">
        <ele>1853.08</ele>
        <time>2011-02-19T10:56:43Z</time>
      </trkpt>
      <trkpt lat="42.64363" lon="0.93332">
        <ele>1853.08</ele>
        <time>2011-02-19T10:56:58Z</time>
      </trkpt>
      <trkpt lat="42.64358" lon="0.93332">
        <ele>1853.56</ele>
        <time>2011-02-19T10:57:03Z</time>
      </trkpt>
      <trkpt lat="42.64345" lon="0.93332">
        <ele>1853.56</ele>
        <time>2011-02-19T10:57:17Z</time>
      </trkpt>
      <trkpt lat="42.64334" lon="0.93331">
        <ele>1853.56</ele>
        <time>2011-02-19T10:57:29Z</time>
      </trkpt>
      <trkpt lat="42.64321" lon="0.93328">
        <ele>1853.56</ele>
        <time>2011-02-19T10:57:42Z</time>
      </trkpt>
      <trkpt lat="42.64307" lon="0.9333">
        <ele>1853.08</ele>
        <time>2011-02-19T10:57:56Z</time>
      </trkpt>
      <trkpt lat="42.64305" lon="0.9333">
        <ele>1852.6</ele>
        <time>2011-02-19T10:57:58Z</time>
      </trkpt>
      <trkpt lat="42.64301" lon="0.93329">
        <ele>1852.6</ele>
        <time>2011-02-19T10:58:01Z</time>
      </trkpt>
      <trkpt lat="42.64292" lon="0.9333">
        <ele>1853.08</ele>
        <time>2011-02-19T10:58:10Z</time>
      </trkpt>
      <trkpt lat="42.64287" lon="0.93328">
        <ele>1853.56</ele>
        <time>2011-02-19T10:58:15Z</time>
      </trkpt>
      <trkpt lat="42.64276" lon="0.93323">
        <ele>1854.04</ele>
        <time>2011-02-19T10:58:26Z</time>
      </trkpt>
      <trkpt lat="42.64265" lon="0.93319">
        <ele>1854.04</ele>
        <time>2011-02-19T10:58:40Z</time>
      </trkpt>
      <trkpt lat="42.64264" lon="0.93318">
        <ele>1854.04</ele>
        <time>2011-02-19T10:58:41Z</time>
      </trkpt>
      <trkpt lat="42.64251" lon="0.93311">
        <ele>1854.04</ele>
        <time>2011-02-19T10:58:56Z</time>
      </trkpt>
      <trkpt lat="42.6424" lon="0.93299">
        <ele>1854.52</ele>
        <time>2011-02-19T10:59:10Z</time>
      </trkpt>
      <trkpt lat="42.64231" lon="0.93287">
        <ele>1855.48</ele>
        <time>2011-02-19T10:59:23Z</time>
      </trkpt>
      <trkpt lat="42.64226" lon="0.9328">
        <ele>1855.96</ele>
        <time>2011-02-19T10:59:31Z</time>
      </trkpt>
      <trkpt lat="42.64218" lon="0.93268">
        <ele>1856.44</ele>
        <time>2011-02-19T10:59:44Z</time>
      </trkpt>
      <trkpt lat="42.64209" lon="0.93257">
        <ele>1857.89</ele>
        <time>2011-02-19T10:59:58Z</time>
      </trkpt>
      <trkpt lat="42.64208" lon="0.93252">
        <ele>1857.89</ele>
        <time>2011-02-19T11:00:02Z</time>
      </trkpt>
      <trkpt lat="42.64204" lon="0.93242">
        <ele>1858.85</ele>
        <time>2011-02-19T11:00:11Z</time>
      </trkpt>
      <trkpt lat="42.64202" lon="0.93237">
        <ele>1858.85</ele>
        <time>2011-02-19T11:00:15Z</time>
      </trkpt>
      <trkpt lat="42.64201" lon="0.9323">
        <ele>1859.81</ele>
        <time>2011-02-19T11:00:20Z</time>
      </trkpt>
      <trkpt lat="42.642" lon="0.93219">
        <ele>1860.29</ele>
        <time>2011-02-19T11:00:29Z</time>
      </trkpt>
      <trkpt lat="42.64198" lon="0.93211">
        <ele>1860.29</ele>
        <time>2011-02-19T11:00:35Z</time>
      </trkpt>
      <trkpt lat="42.64194" lon="0.93192">
        <ele>1860.77</ele>
        <time>2011-02-19T11:00:50Z</time>
      </trkpt>
      <trkpt lat="42.64193" lon="0.93187">
        <ele>1861.25</ele>
        <time>2011-02-19T11:00:53Z</time>
      </trkpt>
      <trkpt lat="42.64189" lon="0.93176">
        <ele>1860.77</ele>
        <time>2011-02-19T11:01:01Z</time>
      </trkpt>
      <trkpt lat="42.64179" lon="0.93162">
        <ele>1860.29</ele>
        <time>2011-02-19T11:01:13Z</time>
      </trkpt>
      <trkpt lat="42.64166" lon="0.9315">
        <ele>1860.29</ele>
        <time>2011-02-19T11:01:27Z</time>
      </trkpt>
      <trkpt lat="42.64154" lon="0.93141">
        <ele>1861.25</ele>
        <time>2011-02-19T11:01:40Z</time>
      </trkpt>
      <trkpt lat="42.64153" lon="0.93141">
        <ele>1861.25</ele>
        <time>2011-02-19T11:01:41Z</time>
      </trkpt>
      <trkpt lat="42.64148" lon="0.93137">
        <ele>1861.25</ele>
        <time>2011-02-19T11:01:46Z</time>
      </trkpt>
      <trkpt lat="42.64136" lon="0.9313">
        <ele>1861.73</ele>
        <time>2011-02-19T11:01:59Z</time>
      </trkpt>
      <trkpt lat="42.64126" lon="0.93119">
        <ele>1862.69</ele>
        <time>2011-02-19T11:02:13Z</time>
      </trkpt>
      <trkpt lat="42.6412" lon="0.9311">
        <ele>1863.17</ele>
        <time>2011-02-19T11:02:25Z</time>
      </trkpt>
      <trkpt lat="42.64116" lon="0.93108">
        <ele>1863.65</ele>
        <time>2011-02-19T11:02:29Z</time>
      </trkpt>
      <trkpt lat="42.64105" lon="0.93093">
        <ele>1864.61</ele>
        <time>2011-02-19T11:02:43Z</time>
      </trkpt>
      <trkpt lat="42.64103" lon="0.93091">
        <ele>1864.13</ele>
        <time>2011-02-19T11:02:45Z</time>
      </trkpt>
      <trkpt lat="42.64098" lon="0.93085">
        <ele>1865.09</ele>
        <time>2011-02-19T11:02:53Z</time>
      </trkpt>
      <trkpt lat="42.64088" lon="0.93078">
        <ele>1864.61</ele>
        <time>2011-02-19T11:03:02Z</time>
      </trkpt>
      <trkpt lat="42.64078" lon="0.93072">
        <ele>1864.61</ele>
        <time>2011-02-19T11:03:13Z</time>
      </trkpt>
      <trkpt lat="42.64063" lon="0.93055">
        <ele>1863.65</ele>
        <time>2011-02-19T11:03:28Z</time>
      </trkpt>
      <trkpt lat="42.6405" lon="0.93042">
        <ele>1862.69</ele>
        <time>2011-02-19T11:03:40Z</time>
      </trkpt>
      <trkpt lat="42.64033" lon="0.93025">
        <ele>1861.25</ele>
        <time>2011-02-19T11:03:55Z</time>
      </trkpt>
      <trkpt lat="42.64018" lon="0.9301">
        <ele>1860.77</ele>
        <time>2011-02-19T11:04:08Z</time>
      </trkpt>
      <trkpt lat="42.64003" lon="0.92999">
        <ele>1860.29</ele>
        <time>2011-02-19T11:04:22Z</time>
      </trkpt>
      <trkpt lat="42.63988" lon="0.92988">
        <ele>1860.77</ele>
        <time>2011-02-19T11:04:36Z</time>
      </trkpt>
      <trkpt lat="42.63979" lon="0.92984">
        <ele>1861.25</ele>
        <time>2011-02-19T11:04:44Z</time>
      </trkpt>
      <trkpt lat="42.6397" lon="0.92982">
        <ele>1860.77</ele>
        <time>2011-02-19T11:04:52Z</time>
      </trkpt>
      <trkpt lat="42.63954" lon="0.92983">
        <ele>1860.29</ele>
        <time>2011-02-19T11:05:06Z</time>
      </trkpt>
      <trkpt lat="42.63951" lon="0.92982">
        <ele>1860.77</ele>
        <time>2011-02-19T11:05:09Z</time>
      </trkpt>
      <trkpt lat="42.63942" lon="0.92982">
        <ele>1860.77</ele>
        <time>2011-02-19T11:05:17Z</time>
      </trkpt>
      <trkpt lat="42.63936" lon="0.92983">
        <ele>1860.77</ele>
        <time>2011-02-19T11:05:23Z</time>
      </trkpt>
      <trkpt lat="42.63926" lon="0.92986">
        <ele>1861.25</ele>
        <time>2011-02-19T11:05:32Z</time>
      </trkpt>
      <trkpt lat="42.63917" lon="0.92989">
        <ele>1861.25</ele>
        <time>2011-02-19T11:05:40Z</time>
      </trkpt>
      <trkpt lat="42.63903" lon="0.92997">
        <ele>1861.25</ele>
        <time>2011-02-19T11:05:53Z</time>
      </trkpt>
      <trkpt lat="42.6389" lon="0.93005">
        <ele>1861.73</ele>
        <time>2011-02-19T11:06:06Z</time>
      </trkpt>
      <trkpt lat="42.63878" lon="0.93014">
        <ele>1862.21</ele>
        <time>2011-02-19T11:06:19Z</time>
      </trkpt>
      <trkpt lat="42.6387" lon="0.93018">
        <ele>1862.21</ele>
        <time>2011-02-19T11:06:28Z</time>
      </trkpt>
      <trkpt lat="42.63868" lon="0.9302">
        <ele>1862.21</ele>
        <time>2011-02-19T11:06:31Z</time>
      </trkpt>
      <trkpt lat="42.63861" lon="0.93025">
        <ele>1862.21</ele>
        <time>2011-02-19T11:06:39Z</time>
      </trkpt>
      <trkpt lat="42.63847" lon="0.93025">
        <ele>1862.69</ele>
        <time>2011-02-19T11:06:54Z</time>
      </trkpt>
      <trkpt lat="42.63832" lon="0.93024">
        <ele>1862.69</ele>
        <time>2011-02-19T11:07:09Z</time>
      </trkpt>
      <trkpt lat="42.63826" lon="0.93021">
        <ele>1862.69</ele>
        <time>2011-02-19T11:07:16Z</time>
      </trkpt>
      <trkpt lat="42.63814" lon="0.9301">
        <ele>1863.17</ele>
        <time>2011-02-19T11:07:31Z</time>
      </trkpt>
      <trkpt lat="42.63805" lon="0.92993">
        <ele>1863.17</ele>
        <time>2011-02-19T11:07:46Z</time>
      </trkpt>
      <trkpt lat="42.638" lon="0.9298">
        <ele>1863.65</ele>
        <time>2011-02-19T11:07:58Z</time>
      </trkpt>
      <trkpt lat="42.63792" lon="0.92963">
        <ele>1864.61</ele>
        <time>2011-02-19T11:08:13Z</time>
      </trkpt>
      <trkpt lat="42.63789" lon="0.92956">
        <ele>1864.61</ele>
        <time>2011-02-19T11:08:20Z</time>
      </trkpt>
      <trkpt lat="42.63787" lon="0.92939">
        <ele>1864.61</ele>
        <time>2011-02-19T11:08:32Z</time>
      </trkpt>
      <trkpt lat="42.6379" lon="0.92923">
        <ele>1865.09</ele>
        <time>2011-02-19T11:08:45Z</time>
      </trkpt>
      <trkpt lat="42.63791" lon="0.92908">
        <ele>1865.58</ele>
        <time>2011-02-19T11:09:00Z</time>
      </trkpt>
      <trkpt lat="42.63788" lon="0.92897">
        <ele>1866.54</ele>
        <time>2011-02-19T11:09:11Z</time>
      </trkpt>
      <trkpt lat="42.63784" lon="0.92881">
        <ele>1867.5</ele>
        <time>2011-02-19T11:09:25Z</time>
      </trkpt>
      <trkpt lat="42.63779" lon="0.92872">
        <ele>1868.46</ele>
        <time>2011-02-19T11:09:38Z</time>
      </trkpt>
      <trkpt lat="42.63774" lon="0.92869">
        <ele>1868.94</ele>
        <time>2011-02-19T11:09:43Z</time>
      </trkpt>
      <trkpt lat="42.63762" lon="0.92863">
        <ele>1869.42</ele>
        <time>2011-02-19T11:09:55Z</time>
      </trkpt>
      <trkpt lat="42.63755" lon="0.92859">
        <ele>1870.38</ele>
        <time>2011-02-19T11:10:06Z</time>
      </trkpt>
      <trkpt lat="42.63746" lon="0.92851">
        <ele>1871.34</ele>
        <time>2011-02-19T11:10:16Z</time>
      </trkpt>
      <trkpt lat="42.63741" lon="0.92843">
        <ele>1871.82</ele>
        <time>2011-02-19T11:10:26Z</time>
      </trkpt>
      <trkpt lat="42.63737" lon="0.92831">
        <ele>1872.79</ele>
        <time>2011-02-19T11:10:37Z</time>
      </trkpt>
      <trkpt lat="42.63735" lon="0.9281">
        <ele>1872.79</ele>
        <time>2011-02-19T11:10:52Z</time>
      </trkpt>
      <trkpt lat="42.63734" lon="0.928">
        <ele>1873.75</ele>
        <time>2011-02-19T11:10:59Z</time>
      </trkpt>
      <trkpt lat="42.63733" lon="0.92795">
        <ele>1874.23</ele>
        <time>2011-02-19T11:11:03Z</time>
      </trkpt>
      <trkpt lat="42.63731" lon="0.92779">
        <ele>1874.71</ele>
        <time>2011-02-19T11:11:17Z</time>
      </trkpt>
      <trkpt lat="42.63722" lon="0.92776">
        <ele>1875.67</ele>
        <time>2011-02-19T11:11:29Z</time>
      </trkpt>
      <trkpt lat="42.63712" lon="0.92774">
        <ele>1876.15</ele>
        <time>2011-02-19T11:11:41Z</time>
      </trkpt>
      <trkpt lat="42.63709" lon="0.92772">
        <ele>1876.15</ele>
        <time>2011-02-19T11:11:44Z</time>
      </trkpt>
      <trkpt lat="42.63705" lon="0.92772">
        <ele>1875.19</ele>
        <time>2011-02-19T11:11:51Z</time>
      </trkpt>
      <trkpt lat="42.63705" lon="0.92771">
        <ele>1875.67</ele>
        <time>2011-02-19T11:11:57Z</time>
      </trkpt>
      <trkpt lat="42.63704" lon="0.92767">
        <ele>1876.15</ele>
        <time>2011-02-19T11:12:01Z</time>
      </trkpt>
      <trkpt lat="42.63703" lon="0.92762">
        <ele>1875.67</ele>
        <time>2011-02-19T11:12:05Z</time>
      </trkpt>
      <trkpt lat="42.63703" lon="0.92752">
        <ele>1876.15</ele>
        <time>2011-02-19T11:12:17Z</time>
      </trkpt>
      <trkpt lat="42.63702" lon="0.92748">
        <ele>1878.07</ele>
        <time>2011-02-19T11:12:28Z</time>
      </trkpt>
      <trkpt lat="42.637" lon="0.92743">
        <ele>1879.03</ele>
        <time>2011-02-19T11:12:34Z</time>
      </trkpt>
      <trkpt lat="42.63698" lon="0.9274">
        <ele>1880.48</ele>
        <time>2011-02-19T11:12:46Z</time>
      </trkpt>
      <trkpt lat="42.63694" lon="0.92738">
        <ele>1881.92</ele>
        <time>2011-02-19T11:12:58Z</time>
      </trkpt>
      <trkpt lat="42.63687" lon="0.92733">
        <ele>1883.36</ele>
        <time>2011-02-19T11:13:10Z</time>
      </trkpt>
      <trkpt lat="42.63687" lon="0.92729">
        <ele>1884.8</ele>
        <time>2011-02-19T11:13:22Z</time>
      </trkpt>
      <trkpt lat="42.6369" lon="0.92725">
        <ele>1886.24</ele>
        <time>2011-02-19T11:13:32Z</time>
      </trkpt>
      <trkpt lat="42.6369" lon="0.92723">
        <ele>1885.76</ele>
        <time>2011-02-19T11:13:35Z</time>
      </trkpt>
      <trkpt lat="42.63692" lon="0.92722">
        <ele>1884.8</ele>
        <time>2011-02-19T11:13:49Z</time>
      </trkpt>
      <trkpt lat="42.63692" lon="0.92721">
        <ele>1886.24</ele>
        <time>2011-02-19T11:13:59Z</time>
      </trkpt>
      <trkpt lat="42.63691" lon="0.92717">
        <ele>1887.21</ele>
        <time>2011-02-19T11:14:11Z</time>
      </trkpt>
      <trkpt lat="42.63692" lon="0.92714">
        <ele>1887.21</ele>
        <time>2011-02-19T11:14:20Z</time>
      </trkpt>
      <trkpt lat="42.63694" lon="0.92712">
        <ele>1889.13</ele>
        <time>2011-02-19T11:14:32Z</time>
      </trkpt>
      <trkpt lat="42.63697" lon="0.92711">
        <ele>1891.05</ele>
        <time>2011-02-19T11:14:43Z</time>
      </trkpt>
      <trkpt lat="42.63697" lon="0.92711">
        <ele>1891.05</ele>
        <time>2011-02-19T11:14:58Z</time>
      </trkpt>
      <trkpt lat="42.63696" lon="0.92707">
        <ele>1892.97</ele>
        <time>2011-02-19T11:15:10Z</time>
      </trkpt>
      <trkpt lat="42.6369" lon="0.92702">
        <ele>1894.9</ele>
        <time>2011-02-19T11:15:20Z</time>
      </trkpt>
      <trkpt lat="42.63688" lon="0.92702">
        <ele>1895.38</ele>
        <time>2011-02-19T11:15:22Z</time>
      </trkpt>
      <trkpt lat="42.63685" lon="0.92694">
        <ele>1894.9</ele>
        <time>2011-02-19T11:15:34Z</time>
      </trkpt>
      <trkpt lat="42.63686" lon="0.92694">
        <ele>1896.82</ele>
        <time>2011-02-19T11:15:35Z</time>
      </trkpt>
      <trkpt lat="42.63693" lon="0.92687">
        <ele>1897.3</ele>
        <time>2011-02-19T11:15:47Z</time>
      </trkpt>
      <trkpt lat="42.63701" lon="0.92677">
        <ele>1898.26</ele>
        <time>2011-02-19T11:16:01Z</time>
      </trkpt>
      <trkpt lat="42.63707" lon="0.92665">
        <ele>1899.22</ele>
        <time>2011-02-19T11:16:16Z</time>
      </trkpt>
      <trkpt lat="42.63709" lon="0.9266">
        <ele>1900.66</ele>
        <time>2011-02-19T11:16:22Z</time>
      </trkpt>
      <trkpt lat="42.63713" lon="0.92648">
        <ele>1901.14</ele>
        <time>2011-02-19T11:16:35Z</time>
      </trkpt>
      <trkpt lat="42.63712" lon="0.92643">
        <ele>1902.59</ele>
        <time>2011-02-19T11:16:47Z</time>
      </trkpt>
      <trkpt lat="42.6371" lon="0.92633">
        <ele>1904.99</ele>
        <time>2011-02-19T11:17:00Z</time>
      </trkpt>
      <trkpt lat="42.63708" lon="0.92626">
        <ele>1906.43</ele>
        <time>2011-02-19T11:17:11Z</time>
      </trkpt>
      <trkpt lat="42.63705" lon="0.92619">
        <ele>1907.39</ele>
        <time>2011-02-19T11:17:25Z</time>
      </trkpt>
      <trkpt lat="42.63701" lon="0.92609">
        <ele>1910.28</ele>
        <time>2011-02-19T11:17:38Z</time>
      </trkpt>
      <trkpt lat="42.63695" lon="0.92601">
        <ele>1910.28</ele>
        <time>2011-02-19T11:17:49Z</time>
      </trkpt>
      <trkpt lat="42.63686" lon="0.92602">
        <ele>1910.76</ele>
        <time>2011-02-19T11:17:57Z</time>
      </trkpt>
      <trkpt lat="42.63678" lon="0.92603">
        <ele>1911.24</ele>
        <time>2011-02-19T11:18:05Z</time>
      </trkpt>
      <trkpt lat="42.63675" lon="0.92604">
        <ele>1912.2</ele>
        <time>2011-02-19T11:18:09Z</time>
      </trkpt>
      <trkpt lat="42.63668" lon="0.92603">
        <ele>1911.72</ele>
        <time>2011-02-19T11:18:16Z</time>
      </trkpt>
      <trkpt lat="42.63656" lon="0.92599">
        <ele>1912.2</ele>
        <time>2011-02-19T11:18:31Z</time>
      </trkpt>
      <trkpt lat="42.63656" lon="0.92599">
        <ele>1912.2</ele>
        <time>2011-02-19T11:19:38Z</time>
      </trkpt>
      <trkpt lat="42.63655" lon="0.92599">
        <ele>1913.16</ele>
        <time>2011-02-19T11:19:48Z</time>
      </trkpt>
      <trkpt lat="42.63655" lon="0.926">
        <ele>1910.28</ele>
        <time>2011-02-19T11:20:26Z</time>
      </trkpt>
      <trkpt lat="42.63655" lon="0.926">
        <ele>1906.91</ele>
        <time>2011-02-19T11:21:42Z</time>
      </trkpt>
      <trkpt lat="42.63655" lon="0.92599">
        <ele>1909.32</ele>
        <time>2011-02-19T11:21:43Z</time>
      </trkpt>
      <trkpt lat="42.63655" lon="0.92599">
        <ele>1912.2</ele>
        <time>2011-02-19T11:21:44Z</time>
      </trkpt>
      <trkpt lat="42.63655" lon="0.92599">
        <ele>1909.32</ele>
        <time>2011-02-19T11:21:45Z</time>
      </trkpt>
      <trkpt lat="42.63655" lon="0.92599">
        <ele>1912.2</ele>
        <time>2011-02-19T11:21:51Z</time>
      </trkpt>
      <trkpt lat="42.63655" lon="0.92599">
        <ele>1912.2</ele>
        <time>2011-02-19T11:22:00Z</time>
      </trkpt>
      <trkpt lat="42.63655" lon="0.92599">
        <ele>1912.2</ele>
        <time>2011-02-19T11:22:16Z</time>
      </trkpt>
      <trkpt lat="42.63652" lon="0.92597">
        <ele>1911.72</ele>
        <time>2011-02-19T11:22:20Z</time>
      </trkpt>
      <trkpt lat="42.63649" lon="0.92595">
        <ele>1912.68</ele>
        <time>2011-02-19T11:22:23Z</time>
      </trkpt>
      <trkpt lat="42.63645" lon="0.92591">
        <ele>1912.68</ele>
        <time>2011-02-19T11:22:28Z</time>
      </trkpt>
      <trkpt lat="42.63643" lon="0.92588">
        <ele>1912.68</ele>
        <time>2011-02-19T11:22:32Z</time>
      </trkpt>
      <trkpt lat="42.63639" lon="0.92582">
        <ele>1912.68</ele>
        <time>2011-02-19T11:22:38Z</time>
      </trkpt>
      <trkpt lat="42.63633" lon="0.92575">
        <ele>1913.16</ele>
        <time>2011-02-19T11:22:46Z</time>
      </trkpt>
      <trkpt lat="42.63628" lon="0.92571">
        <ele>1913.16</ele>
        <time>2011-02-19T11:22:51Z</time>
      </trkpt>
      <trkpt lat="42.63624" lon="0.92566">
        <ele>1913.16</ele>
        <time>2011-02-19T11:22:57Z</time>
      </trkpt>
      <trkpt lat="42.63617" lon="0.92556">
        <ele>1913.64</ele>
        <time>2011-02-19T11:23:09Z</time>
      </trkpt>
      <trkpt lat="42.63614" lon="0.92553">
        <ele>1914.12</ele>
        <time>2011-02-19T11:23:12Z</time>
      </trkpt>
      <trkpt lat="42.63608" lon="0.92539">
        <ele>1915.08</ele>
        <time>2011-02-19T11:23:24Z</time>
      </trkpt>
      <trkpt lat="42.63604" lon="0.92532">
        <ele>1915.08</ele>
        <time>2011-02-19T11:23:31Z</time>
      </trkpt>
      <trkpt lat="42.636" lon="0.92524">
        <ele>1915.56</ele>
        <time>2011-02-19T11:23:38Z</time>
      </trkpt>
      <trkpt lat="42.63598" lon="0.92516">
        <ele>1916.04</ele>
        <time>2011-02-19T11:23:46Z</time>
      </trkpt>
      <trkpt lat="42.63597" lon="0.92507">
        <ele>1917.01</ele>
        <time>2011-02-19T11:23:54Z</time>
      </trkpt>
      <trkpt lat="42.63597" lon="0.92499">
        <ele>1917.49</ele>
        <time>2011-02-19T11:24:02Z</time>
      </trkpt>
      <trkpt lat="42.63599" lon="0.92492">
        <ele>1917.49</ele>
        <time>2011-02-19T11:24:09Z</time>
      </trkpt>
      <trkpt lat="42.63602" lon="0.92487">
        <ele>1918.45</ele>
        <time>2011-02-19T11:24:14Z</time>
      </trkpt>
      <trkpt lat="42.6361" lon="0.9248">
        <ele>1919.41</ele>
        <time>2011-02-19T11:24:25Z</time>
      </trkpt>
      <trkpt lat="42.63613" lon="0.92477">
        <ele>1919.41</ele>
        <time>2011-02-19T11:24:29Z</time>
      </trkpt>
      <trkpt lat="42.63622" lon="0.92468">
        <ele>1920.85</ele>
        <time>2011-02-19T11:24:41Z</time>
      </trkpt>
      <trkpt lat="42.63626" lon="0.92463">
        <ele>1920.85</ele>
        <time>2011-02-19T11:24:46Z</time>
      </trkpt>
      <trkpt lat="42.63628" lon="0.92455">
        <ele>1921.33</ele>
        <time>2011-02-19T11:24:53Z</time>
      </trkpt>
      <trkpt lat="42.6363" lon="0.92444">
        <ele>1921.81</ele>
        <time>2011-02-19T11:25:02Z</time>
      </trkpt>
      <trkpt lat="42.6363" lon="0.92429">
        <ele>1922.29</ele>
        <time>2011-02-19T11:25:14Z</time>
      </trkpt>
      <trkpt lat="42.63631" lon="0.92421">
        <ele>1922.77</ele>
        <time>2011-02-19T11:25:21Z</time>
      </trkpt>
      <trkpt lat="42.63634" lon="0.92402">
        <ele>1923.74</ele>
        <time>2011-02-19T11:25:34Z</time>
      </trkpt>
      <trkpt lat="42.63635" lon="0.924">
        <ele>1923.74</ele>
        <time>2011-02-19T11:25:36Z</time>
      </trkpt>
      <trkpt lat="42.63637" lon="0.92393">
        <ele>1923.74</ele>
        <time>2011-02-19T11:25:42Z</time>
      </trkpt>
      <trkpt lat="42.63643" lon="0.92386">
        <ele>1924.22</ele>
        <time>2011-02-19T11:25:50Z</time>
      </trkpt>
      <trkpt lat="42.63649" lon="0.92382">
        <ele>1924.7</ele>
        <time>2011-02-19T11:25:56Z</time>
      </trkpt>
      <trkpt lat="42.63656" lon="0.9238">
        <ele>1925.18</ele>
        <time>2011-02-19T11:26:03Z</time>
      </trkpt>
      <trkpt lat="42.63669" lon="0.92372">
        <ele>1925.18</ele>
        <time>2011-02-19T11:26:15Z</time>
      </trkpt>
      <trkpt lat="42.63674" lon="0.92366">
        <ele>1925.66</ele>
        <time>2011-02-19T11:26:20Z</time>
      </trkpt>
      <trkpt lat="42.63677" lon="0.92362">
        <ele>1925.18</ele>
        <time>2011-02-19T11:26:25Z</time>
      </trkpt>
      <trkpt lat="42.6368" lon="0.92358">
        <ele>1925.18</ele>
        <time>2011-02-19T11:26:28Z</time>
      </trkpt>
      <trkpt lat="42.63682" lon="0.92349">
        <ele>1926.14</ele>
        <time>2011-02-19T11:26:35Z</time>
      </trkpt>
      <trkpt lat="42.63684" lon="0.92342">
        <ele>1925.66</ele>
        <time>2011-02-19T11:26:40Z</time>
      </trkpt>
      <trkpt lat="42.63684" lon="0.92327">
        <ele>1926.14</ele>
        <time>2011-02-19T11:26:51Z</time>
      </trkpt>
      <trkpt lat="42.63682" lon="0.9232">
        <ele>1926.62</ele>
        <time>2011-02-19T11:26:57Z</time>
      </trkpt>
      <trkpt lat="42.63681" lon="0.92313">
        <ele>1927.1</ele>
        <time>2011-02-19T11:27:03Z</time>
      </trkpt>
      <trkpt lat="42.63679" lon="0.92301">
        <ele>1927.1</ele>
        <time>2011-02-19T11:27:13Z</time>
      </trkpt>
      <trkpt lat="42.63675" lon="0.92287">
        <ele>1928.06</ele>
        <time>2011-02-19T11:27:23Z</time>
      </trkpt>
      <trkpt lat="42.63667" lon="0.92276">
        <ele>1928.54</ele>
        <time>2011-02-19T11:27:36Z</time>
      </trkpt>
      <trkpt lat="42.63665" lon="0.92273">
        <ele>1928.54</ele>
        <time>2011-02-19T11:27:40Z</time>
      </trkpt>
      <trkpt lat="42.6366" lon="0.92268">
        <ele>1929.02</ele>
        <time>2011-02-19T11:27:47Z</time>
      </trkpt>
      <trkpt lat="42.63655" lon="0.92262">
        <ele>1929.98</ele>
        <time>2011-02-19T11:27:55Z</time>
      </trkpt>
      <trkpt lat="42.63646" lon="0.9225">
        <ele>1930.46</ele>
        <time>2011-02-19T11:28:09Z</time>
      </trkpt>
      <trkpt lat="42.63635" lon="0.92241">
        <ele>1932.39</ele>
        <time>2011-02-19T11:28:22Z</time>
      </trkpt>
      <trkpt lat="42.63633" lon="0.9224">
        <ele>1931.91</ele>
        <time>2011-02-19T11:28:25Z</time>
      </trkpt>
      <trkpt lat="42.63622" lon="0.9223">
        <ele>1933.35</ele>
        <time>2011-02-19T11:28:39Z</time>
      </trkpt>
      <trkpt lat="42.63614" lon="0.92223">
        <ele>1933.83</ele>
        <time>2011-02-19T11:28:49Z</time>
      </trkpt>
      <trkpt lat="42.63604" lon="0.92217">
        <ele>1935.27</ele>
        <time>2011-02-19T11:29:04Z</time>
      </trkpt>
      <trkpt lat="42.63599" lon="0.92212">
        <ele>1935.75</ele>
        <time>2011-02-19T11:29:14Z</time>
      </trkpt>
      <trkpt lat="42.63591" lon="0.92202">
        <ele>1937.67</ele>
        <time>2011-02-19T11:29:28Z</time>
      </trkpt>
      <trkpt lat="42.63589" lon="0.92199">
        <ele>1937.19</ele>
        <time>2011-02-19T11:29:31Z</time>
      </trkpt>
      <trkpt lat="42.63586" lon="0.92195">
        <ele>1937.67</ele>
        <time>2011-02-19T11:29:36Z</time>
      </trkpt>
      <trkpt lat="42.63576" lon="0.9219">
        <ele>1938.16</ele>
        <time>2011-02-19T11:29:47Z</time>
      </trkpt>
      <trkpt lat="42.63573" lon="0.92189">
        <ele>1938.64</ele>
        <time>2011-02-19T11:29:52Z</time>
      </trkpt>
      <trkpt lat="42.63564" lon="0.92182">
        <ele>1940.08</ele>
        <time>2011-02-19T11:30:05Z</time>
      </trkpt>
      <trkpt lat="42.63556" lon="0.92171">
        <ele>1941.04</ele>
        <time>2011-02-19T11:30:19Z</time>
      </trkpt>
      <trkpt lat="42.63548" lon="0.92163">
        <ele>1942</ele>
        <time>2011-02-19T11:30:30Z</time>
      </trkpt>
      <trkpt lat="42.63543" lon="0.92156">
        <ele>1942.96</ele>
        <time>2011-02-19T11:30:41Z</time>
      </trkpt>
      <trkpt lat="42.63539" lon="0.92151">
        <ele>1943.92</ele>
        <time>2011-02-19T11:30:47Z</time>
      </trkpt>
      <trkpt lat="42.63533" lon="0.92147">
        <ele>1944.4</ele>
        <time>2011-02-19T11:30:54Z</time>
      </trkpt>
      <trkpt lat="42.63525" lon="0.92144">
        <ele>1945.36</ele>
        <time>2011-02-19T11:31:03Z</time>
      </trkpt>
      <trkpt lat="42.63514" lon="0.92147">
        <ele>1945.85</ele>
        <time>2011-02-19T11:31:17Z</time>
      </trkpt>
      <trkpt lat="42.63503" lon="0.92153">
        <ele>1947.29</ele>
        <time>2011-02-19T11:31:30Z</time>
      </trkpt>
      <trkpt lat="42.63502" lon="0.92154">
        <ele>1947.29</ele>
        <time>2011-02-19T11:31:31Z</time>
      </trkpt>
      <trkpt lat="42.63492" lon="0.92159">
        <ele>1948.25</ele>
        <time>2011-02-19T11:31:44Z</time>
      </trkpt>
      <trkpt lat="42.63485" lon="0.9216">
        <ele>1949.21</ele>
        <time>2011-02-19T11:31:53Z</time>
      </trkpt>
      <trkpt lat="42.63476" lon="0.92157">
        <ele>1950.17</ele>
        <time>2011-02-19T11:32:05Z</time>
      </trkpt>
      <trkpt lat="42.63476" lon="0.92156">
        <ele>1950.65</ele>
        <time>2011-02-19T11:32:06Z</time>
      </trkpt>
      <trkpt lat="42.63468" lon="0.92146">
        <ele>1952.09</ele>
        <time>2011-02-19T11:32:19Z</time>
      </trkpt>
      <trkpt lat="42.6346" lon="0.92133">
        <ele>1952.57</ele>
        <time>2011-02-19T11:32:32Z</time>
      </trkpt>
      <trkpt lat="42.63455" lon="0.9212">
        <ele>1954.02</ele>
        <time>2011-02-19T11:32:45Z</time>
      </trkpt>
      <trkpt lat="42.63453" lon="0.92115">
        <ele>1954.02</ele>
        <time>2011-02-19T11:32:49Z</time>
      </trkpt>
      <trkpt lat="42.63451" lon="0.92107">
        <ele>1954.02</ele>
        <time>2011-02-19T11:32:56Z</time>
      </trkpt>
      <trkpt lat="42.63449" lon="0.92095">
        <ele>1954.98</ele>
        <time>2011-02-19T11:33:06Z</time>
      </trkpt>
      <trkpt lat="42.6345" lon="0.92087">
        <ele>1955.46</ele>
        <time>2011-02-19T11:33:13Z</time>
      </trkpt>
      <trkpt lat="42.6345" lon="0.92075">
        <ele>1956.42</ele>
        <time>2011-02-19T11:33:25Z</time>
      </trkpt>
      <trkpt lat="42.63449" lon="0.92064">
        <ele>1957.38</ele>
        <time>2011-02-19T11:33:35Z</time>
      </trkpt>
      <trkpt lat="42.63445" lon="0.92055">
        <ele>1957.86</ele>
        <time>2011-02-19T11:33:44Z</time>
      </trkpt>
      <trkpt lat="42.63439" lon="0.9205">
        <ele>1958.34</ele>
        <time>2011-02-19T11:33:51Z</time>
      </trkpt>
      <trkpt lat="42.63429" lon="0.92046">
        <ele>1959.78</ele>
        <time>2011-02-19T11:34:04Z</time>
      </trkpt>
      <trkpt lat="42.63419" lon="0.92041">
        <ele>1961.23</ele>
        <time>2011-02-19T11:34:17Z</time>
      </trkpt>
      <trkpt lat="42.63409" lon="0.9204">
        <ele>1962.67</ele>
        <time>2011-02-19T11:34:31Z</time>
      </trkpt>
      <trkpt lat="42.63402" lon="0.9204">
        <ele>1962.67</ele>
        <time>2011-02-19T11:34:38Z</time>
      </trkpt>
      <trkpt lat="42.63394" lon="0.92039">
        <ele>1963.63</ele>
        <time>2011-02-19T11:34:47Z</time>
      </trkpt>
      <trkpt lat="42.63382" lon="0.92038">
        <ele>1965.07</ele>
        <time>2011-02-19T11:35:00Z</time>
      </trkpt>
      <trkpt lat="42.63377" lon="0.92037">
        <ele>1965.55</ele>
        <time>2011-02-19T11:35:06Z</time>
      </trkpt>
      <trkpt lat="42.63367" lon="0.9204">
        <ele>1966.51</ele>
        <time>2011-02-19T11:35:20Z</time>
      </trkpt>
      <trkpt lat="42.63359" lon="0.9204">
        <ele>1967.96</ele>
        <time>2011-02-19T11:35:30Z</time>
      </trkpt>
      <trkpt lat="42.63347" lon="0.92039">
        <ele>1968.44</ele>
        <time>2011-02-19T11:35:43Z</time>
      </trkpt>
      <trkpt lat="42.63334" lon="0.92047">
        <ele>1969.4</ele>
        <time>2011-02-19T11:35:57Z</time>
      </trkpt>
      <trkpt lat="42.63324" lon="0.92051">
        <ele>1968.92</ele>
        <time>2011-02-19T11:36:07Z</time>
      </trkpt>
      <trkpt lat="42.63312" lon="0.92058">
        <ele>1969.4</ele>
        <time>2011-02-19T11:36:20Z</time>
      </trkpt>
      <trkpt lat="42.63307" lon="0.9206">
        <ele>1969.4</ele>
        <time>2011-02-19T11:36:25Z</time>
      </trkpt>
      <trkpt lat="42.63299" lon="0.9207">
        <ele>1969.88</ele>
        <time>2011-02-19T11:36:35Z</time>
      </trkpt>
      <trkpt lat="42.6329" lon="0.92088">
        <ele>1969.88</ele>
        <time>2011-02-19T11:36:51Z</time>
      </trkpt>
      <trkpt lat="42.63284" lon="0.92105">
        <ele>1969.88</ele>
        <time>2011-02-19T11:37:04Z</time>
      </trkpt>
      <trkpt lat="42.63283" lon="0.92109">
        <ele>1970.36</ele>
        <time>2011-02-19T11:37:08Z</time>
      </trkpt>
      <trkpt lat="42.6328" lon="0.92116">
        <ele>1970.36</ele>
        <time>2011-02-19T11:37:15Z</time>
      </trkpt>
      <trkpt lat="42.63274" lon="0.9213">
        <ele>1971.32</ele>
        <time>2011-02-19T11:37:28Z</time>
      </trkpt>
      <trkpt lat="42.63272" lon="0.92133">
        <ele>1970.84</ele>
        <time>2011-02-19T11:37:31Z</time>
      </trkpt>
      <trkpt lat="42.63271" lon="0.92135">
        <ele>1970.36</ele>
        <time>2011-02-19T11:37:33Z</time>
      </trkpt>
      <trkpt lat="42.63264" lon="0.92139">
        <ele>1970.84</ele>
        <time>2011-02-19T11:37:42Z</time>
      </trkpt>
      <trkpt lat="42.63255" lon="0.92141">
        <ele>1971.32</ele>
        <time>2011-02-19T11:37:52Z</time>
      </trkpt>
      <trkpt lat="42.63249" lon="0.92141">
        <ele>1972.28</ele>
        <time>2011-02-19T11:37:57Z</time>
      </trkpt>
      <trkpt lat="42.6324" lon="0.9214">
        <ele>1972.76</ele>
        <time>2011-02-19T11:38:08Z</time>
      </trkpt>
      <trkpt lat="42.63232" lon="0.92133">
        <ele>1972.76</ele>
        <time>2011-02-19T11:38:17Z</time>
      </trkpt>
      <trkpt lat="42.63225" lon="0.92131">
        <ele>1973.72</ele>
        <time>2011-02-19T11:38:28Z</time>
      </trkpt>
      <trkpt lat="42.63218" lon="0.92126">
        <ele>1974.2</ele>
        <time>2011-02-19T11:38:41Z</time>
      </trkpt>
      <trkpt lat="42.63217" lon="0.92125">
        <ele>1974.69</ele>
        <time>2011-02-19T11:39:04Z</time>
      </trkpt>
      <trkpt lat="42.63216" lon="0.92125">
        <ele>1974.69</ele>
        <time>2011-02-19T11:39:34Z</time>
      </trkpt>
      <trkpt lat="42.63216" lon="0.92125">
        <ele>1974.69</ele>
        <time>2011-02-19T11:39:53Z</time>
      </trkpt>
      <trkpt lat="42.63213" lon="0.92127">
        <ele>1974.69</ele>
        <time>2011-02-19T11:40:03Z</time>
      </trkpt>
      <trkpt lat="42.63209" lon="0.92129">
        <ele>1975.17</ele>
        <time>2011-02-19T11:40:14Z</time>
      </trkpt>
      <trkpt lat="42.63207" lon="0.92132">
        <ele>1976.13</ele>
        <time>2011-02-19T11:40:20Z</time>
      </trkpt>
      <trkpt lat="42.63201" lon="0.92137">
        <ele>1978.05</ele>
        <time>2011-02-19T11:40:32Z</time>
      </trkpt>
      <trkpt lat="42.63194" lon="0.9214">
        <ele>1979.97</ele>
        <time>2011-02-19T11:40:43Z</time>
      </trkpt>
      <trkpt lat="42.63191" lon="0.9214">
        <ele>1980.45</ele>
        <time>2011-02-19T11:40:48Z</time>
      </trkpt>
      <trkpt lat="42.63183" lon="0.92143">
        <ele>1981.41</ele>
        <time>2011-02-19T11:40:59Z</time>
      </trkpt>
      <trkpt lat="42.63179" lon="0.92145">
        <ele>1982.38</ele>
        <time>2011-02-19T11:41:08Z</time>
      </trkpt>
      <trkpt lat="42.63174" lon="0.92151">
        <ele>1984.3</ele>
        <time>2011-02-19T11:41:20Z</time>
      </trkpt>
      <trkpt lat="42.63169" lon="0.92156">
        <ele>1986.22</ele>
        <time>2011-02-19T11:41:32Z</time>
      </trkpt>
      <trkpt lat="42.63165" lon="0.92162">
        <ele>1987.18</ele>
        <time>2011-02-19T11:41:47Z</time>
      </trkpt>
      <trkpt lat="42.6316" lon="0.9217">
        <ele>1989.59</ele>
        <time>2011-02-19T11:41:59Z</time>
      </trkpt>
      <trkpt lat="42.63154" lon="0.92179">
        <ele>1991.51</ele>
        <time>2011-02-19T11:42:10Z</time>
      </trkpt>
      <trkpt lat="42.6315" lon="0.92183">
        <ele>1992.47</ele>
        <time>2011-02-19T11:42:19Z</time>
      </trkpt>
      <trkpt lat="42.63146" lon="0.92191">
        <ele>1993.43</ele>
        <time>2011-02-19T11:42:30Z</time>
      </trkpt>
      <trkpt lat="42.6315" lon="0.92194">
        <ele>1994.39</ele>
        <time>2011-02-19T11:42:39Z</time>
      </trkpt>
      <trkpt lat="42.63151" lon="0.92198">
        <ele>1996.32</ele>
        <time>2011-02-19T11:42:53Z</time>
      </trkpt>
      <trkpt lat="42.63145" lon="0.92199">
        <ele>1997.76</ele>
        <time>2011-02-19T11:43:06Z</time>
      </trkpt>
      <trkpt lat="42.63136" lon="0.92204">
        <ele>1999.2</ele>
        <time>2011-02-19T11:43:19Z</time>
      </trkpt>
      <trkpt lat="42.6313" lon="0.92205">
        <ele>1999.68</ele>
        <time>2011-02-19T11:43:30Z</time>
      </trkpt>
      <trkpt lat="42.63126" lon="0.92205">
        <ele>2002.08</ele>
        <time>2011-02-19T11:43:41Z</time>
      </trkpt>
      <trkpt lat="42.63122" lon="0.92202">
        <ele>2003.04</ele>
        <time>2011-02-19T11:43:52Z</time>
      </trkpt>
      <trkpt lat="42.63114" lon="0.92204">
        <ele>2003.52</ele>
        <time>2011-02-19T11:44:03Z</time>
      </trkpt>
      <trkpt lat="42.63108" lon="0.92206">
        <ele>2004.49</ele>
        <time>2011-02-19T11:44:15Z</time>
      </trkpt>
      <trkpt lat="42.63103" lon="0.92209">
        <ele>2005.93</ele>
        <time>2011-02-19T11:44:25Z</time>
      </trkpt>
      <trkpt lat="42.63101" lon="0.9221">
        <ele>2007.37</ele>
        <time>2011-02-19T11:44:39Z</time>
      </trkpt>
      <trkpt lat="42.63097" lon="0.92218">
        <ele>2008.81</ele>
        <time>2011-02-19T11:44:52Z</time>
      </trkpt>
      <trkpt lat="42.63093" lon="0.92225">
        <ele>2010.25</ele>
        <time>2011-02-19T11:45:09Z</time>
      </trkpt>
      <trkpt lat="42.63088" lon="0.92231">
        <ele>2012.18</ele>
        <time>2011-02-19T11:45:19Z</time>
      </trkpt>
      <trkpt lat="42.63088" lon="0.92232">
        <ele>2012.18</ele>
        <time>2011-02-19T11:45:20Z</time>
      </trkpt>
      <trkpt lat="42.63089" lon="0.92237">
        <ele>2013.62</ele>
        <time>2011-02-19T11:45:30Z</time>
      </trkpt>
      <trkpt lat="42.63091" lon="0.92238">
        <ele>2014.58</ele>
        <time>2011-02-19T11:45:41Z</time>
      </trkpt>
      <trkpt lat="42.63092" lon="0.92238">
        <ele>2016.5</ele>
        <time>2011-02-19T11:45:52Z</time>
      </trkpt>
      <trkpt lat="42.63091" lon="0.92243">
        <ele>2017.46</ele>
        <time>2011-02-19T11:46:04Z</time>
      </trkpt>
      <trkpt lat="42.6309" lon="0.92247">
        <ele>2018.91</ele>
        <time>2011-02-19T11:46:19Z</time>
      </trkpt>
      <trkpt lat="42.6309" lon="0.92247">
        <ele>2018.91</ele>
        <time>2011-02-19T11:46:22Z</time>
      </trkpt>
      <trkpt lat="42.63084" lon="0.92248">
        <ele>2020.83</ele>
        <time>2011-02-19T11:46:32Z</time>
      </trkpt>
      <trkpt lat="42.63079" lon="0.92255">
        <ele>2021.31</ele>
        <time>2011-02-19T11:46:42Z</time>
      </trkpt>
      <trkpt lat="42.63076" lon="0.92262">
        <ele>2023.23</ele>
        <time>2011-02-19T11:46:54Z</time>
      </trkpt>
      <trkpt lat="42.63074" lon="0.92266">
        <ele>2024.67</ele>
        <time>2011-02-19T11:47:06Z</time>
      </trkpt>
      <trkpt lat="42.63069" lon="0.92269">
        <ele>2026.12</ele>
        <time>2011-02-19T11:47:15Z</time>
      </trkpt>
      <trkpt lat="42.63067" lon="0.92272">
        <ele>2026.6</ele>
        <time>2011-02-19T11:47:20Z</time>
      </trkpt>
      <trkpt lat="42.63066" lon="0.92276">
        <ele>2026.6</ele>
        <time>2011-02-19T11:47:24Z</time>
      </trkpt>
      <trkpt lat="42.63062" lon="0.92283">
        <ele>2028.04</ele>
        <time>2011-02-19T11:47:34Z</time>
      </trkpt>
      <trkpt lat="42.63058" lon="0.92292">
        <ele>2029.48</ele>
        <time>2011-02-19T11:47:49Z</time>
      </trkpt>
      <trkpt lat="42.63055" lon="0.92297">
        <ele>2030.44</ele>
        <time>2011-02-19T11:47:59Z</time>
      </trkpt>
      <trkpt lat="42.6306" lon="0.92298">
        <ele>2032.36</ele>
        <time>2011-02-19T11:48:11Z</time>
      </trkpt>
      <trkpt lat="42.63061" lon="0.92296">
        <ele>2032.36</ele>
        <time>2011-02-19T11:48:14Z</time>
      </trkpt>
      <trkpt lat="42.6307" lon="0.92296">
        <ele>2032.84</ele>
        <time>2011-02-19T11:48:27Z</time>
      </trkpt>
      <trkpt lat="42.6307" lon="0.92301">
        <ele>2033.81</ele>
        <time>2011-02-19T11:48:38Z</time>
      </trkpt>
      <trkpt lat="42.63066" lon="0.92306">
        <ele>2035.73</ele>
        <time>2011-02-19T11:48:50Z</time>
      </trkpt>
      <trkpt lat="42.63063" lon="0.92312">
        <ele>2037.17</ele>
        <time>2011-02-19T11:49:00Z</time>
      </trkpt>
      <trkpt lat="42.63057" lon="0.92321">
        <ele>2037.65</ele>
        <time>2011-02-19T11:49:11Z</time>
      </trkpt>
      <trkpt lat="42.63052" lon="0.92331">
        <ele>2039.57</ele>
        <time>2011-02-19T11:49:24Z</time>
      </trkpt>
      <trkpt lat="42.63052" lon="0.92339">
        <ele>2041.02</ele>
        <time>2011-02-19T11:49:35Z</time>
      </trkpt>
      <trkpt lat="42.63052" lon="0.9234">
        <ele>2041.02</ele>
        <time>2011-02-19T11:49:36Z</time>
      </trkpt>
      <trkpt lat="42.63051" lon="0.92344">
        <ele>2041.5</ele>
        <time>2011-02-19T11:49:40Z</time>
      </trkpt>
      <trkpt lat="42.63048" lon="0.92349">
        <ele>2042.46</ele>
        <time>2011-02-19T11:49:51Z</time>
      </trkpt>
      <trkpt lat="42.63048" lon="0.92351">
        <ele>2042.94</ele>
        <time>2011-02-19T11:49:53Z</time>
      </trkpt>
      <trkpt lat="42.63049" lon="0.92357">
        <ele>2043.42</ele>
        <time>2011-02-19T11:50:05Z</time>
      </trkpt>
      <trkpt lat="42.63046" lon="0.92362">
        <ele>2044.38</ele>
        <time>2011-02-19T11:50:20Z</time>
      </trkpt>
      <trkpt lat="42.63045" lon="0.92363">
        <ele>2043.9</ele>
        <time>2011-02-19T11:50:32Z</time>
      </trkpt>
      <trkpt lat="42.63045" lon="0.92363">
        <ele>2044.86</ele>
        <time>2011-02-19T11:50:35Z</time>
      </trkpt>
      <trkpt lat="42.63042" lon="0.9237">
        <ele>2044.38</ele>
        <time>2011-02-19T11:50:42Z</time>
      </trkpt>
      <trkpt lat="42.63041" lon="0.92376">
        <ele>2044.86</ele>
        <time>2011-02-19T11:50:46Z</time>
      </trkpt>
      <trkpt lat="42.6304" lon="0.92382">
        <ele>2043.9</ele>
        <time>2011-02-19T11:50:49Z</time>
      </trkpt>
      <trkpt lat="42.63034" lon="0.92397">
        <ele>2043.9</ele>
        <time>2011-02-19T11:51:00Z</time>
      </trkpt>
      <trkpt lat="42.63027" lon="0.92414">
        <ele>2042.94</ele>
        <time>2011-02-19T11:51:13Z</time>
      </trkpt>
      <trkpt lat="42.63024" lon="0.92418">
        <ele>2043.42</ele>
        <time>2011-02-19T11:51:17Z</time>
      </trkpt>
      <trkpt lat="42.63018" lon="0.92429">
        <ele>2043.9</ele>
        <time>2011-02-19T11:51:27Z</time>
      </trkpt>
      <trkpt lat="42.63014" lon="0.92438">
        <ele>2044.38</ele>
        <time>2011-02-19T11:51:34Z</time>
      </trkpt>
      <trkpt lat="42.63007" lon="0.92453">
        <ele>2043.9</ele>
        <time>2011-02-19T11:51:45Z</time>
      </trkpt>
      <trkpt lat="42.63005" lon="0.92458">
        <ele>2043.9</ele>
        <time>2011-02-19T11:51:49Z</time>
      </trkpt>
      <trkpt lat="42.63" lon="0.92468">
        <ele>2044.38</ele>
        <time>2011-02-19T11:51:57Z</time>
      </trkpt>
      <trkpt lat="42.62998" lon="0.92473">
        <ele>2044.38</ele>
        <time>2011-02-19T11:52:01Z</time>
      </trkpt>
      <trkpt lat="42.62994" lon="0.92487">
        <ele>2044.38</ele>
        <time>2011-02-19T11:52:10Z</time>
      </trkpt>
      <trkpt lat="42.62986" lon="0.92501">
        <ele>2044.38</ele>
        <time>2011-02-19T11:52:21Z</time>
      </trkpt>
      <trkpt lat="42.6298" lon="0.92508">
        <ele>2043.42</ele>
        <time>2011-02-19T11:52:33Z</time>
      </trkpt>
      <trkpt lat="42.62973" lon="0.92513">
        <ele>2044.86</ele>
        <time>2011-02-19T11:52:45Z</time>
      </trkpt>
      <trkpt lat="42.6297" lon="0.92514">
        <ele>2044.38</ele>
        <time>2011-02-19T11:52:49Z</time>
      </trkpt>
      <trkpt lat="42.62965" lon="0.92517">
        <ele>2044.86</ele>
        <time>2011-02-19T11:53:00Z</time>
      </trkpt>
      <trkpt lat="42.62961" lon="0.9252">
        <ele>2043.9</ele>
        <time>2011-02-19T11:53:10Z</time>
      </trkpt>
      <trkpt lat="42.62961" lon="0.9252">
        <ele>2044.38</ele>
        <time>2011-02-19T11:53:34Z</time>
      </trkpt>
      <trkpt lat="42.62961" lon="0.92521">
        <ele>2044.38</ele>
        <time>2011-02-19T11:54:00Z</time>
      </trkpt>
      <trkpt lat="42.6296" lon="0.92521">
        <ele>2043.9</ele>
        <time>2011-02-19T11:54:19Z</time>
      </trkpt>
      <trkpt lat="42.6296" lon="0.92521">
        <ele>2043.42</ele>
        <time>2011-02-19T11:54:25Z</time>
      </trkpt>
      <trkpt lat="42.6296" lon="0.92521">
        <ele>2041.02</ele>
        <time>2011-02-19T11:56:15Z</time>
      </trkpt>
      <trkpt lat="42.6296" lon="0.92521">
        <ele>2043.9</ele>
        <time>2011-02-19T11:56:32Z</time>
      </trkpt>
      <trkpt lat="42.62959" lon="0.92521">
        <ele>2043.9</ele>
        <time>2011-02-19T11:56:51Z</time>
      </trkpt>
      <trkpt lat="42.62959" lon="0.92521">
        <ele>2043.9</ele>
        <time>2011-02-19T11:57:19Z</time>
      </trkpt>
      <trkpt lat="42.62959" lon="0.9252">
        <ele>2043.9</ele>
        <time>2011-02-19T11:57:31Z</time>
      </trkpt>
      <trkpt lat="42.62959" lon="0.9252">
        <ele>2044.38</ele>
        <time>2011-02-19T11:58:00Z</time>
      </trkpt>
      <trkpt lat="42.62959" lon="0.92522">
        <ele>2043.9</ele>
        <time>2011-02-19T11:58:13Z</time>
      </trkpt>
      <trkpt lat="42.62956" lon="0.9253">
        <ele>2044.86</ele>
        <time>2011-02-19T11:58:24Z</time>
      </trkpt>
      <trkpt lat="42.62953" lon="0.92534">
        <ele>2044.86</ele>
        <time>2011-02-19T11:58:35Z</time>
      </trkpt>
      <trkpt lat="42.62946" lon="0.92528">
        <ele>2045.34</ele>
        <time>2011-02-19T11:58:45Z</time>
      </trkpt>
      <trkpt lat="42.62946" lon="0.92527">
        <ele>2044.38</ele>
        <time>2011-02-19T11:58:46Z</time>
      </trkpt>
      <trkpt lat="42.6294" lon="0.92522">
        <ele>2044.38</ele>
        <time>2011-02-19T11:58:54Z</time>
      </trkpt>
      <trkpt lat="42.62933" lon="0.92508">
        <ele>2044.86</ele>
        <time>2011-02-19T11:59:09Z</time>
      </trkpt>
      <trkpt lat="42.62926" lon="0.925">
        <ele>2044.86</ele>
        <time>2011-02-19T11:59:24Z</time>
      </trkpt>
      <trkpt lat="42.62922" lon="0.92494">
        <ele>2045.82</ele>
        <time>2011-02-19T11:59:38Z</time>
      </trkpt>
      <trkpt lat="42.62914" lon="0.92479">
        <ele>2046.3</ele>
        <time>2011-02-19T11:59:48Z</time>
      </trkpt>
      <trkpt lat="42.62905" lon="0.9247">
        <ele>2046.78</ele>
        <time>2011-02-19T12:00:02Z</time>
      </trkpt>
      <trkpt lat="42.62898" lon="0.92462">
        <ele>2047.75</ele>
        <time>2011-02-19T12:00:13Z</time>
      </trkpt>
      <trkpt lat="42.62891" lon="0.92453">
        <ele>2048.23</ele>
        <time>2011-02-19T12:00:23Z</time>
      </trkpt>
      <trkpt lat="42.62884" lon="0.92446">
        <ele>2049.19</ele>
        <time>2011-02-19T12:00:34Z</time>
      </trkpt>
      <trkpt lat="42.62875" lon="0.92439">
        <ele>2049.19</ele>
        <time>2011-02-19T12:00:47Z</time>
      </trkpt>
      <trkpt lat="42.62873" lon="0.92437">
        <ele>2049.67</ele>
        <time>2011-02-19T12:00:49Z</time>
      </trkpt>
      <trkpt lat="42.62866" lon="0.92431">
        <ele>2049.67</ele>
        <time>2011-02-19T12:01:01Z</time>
      </trkpt>
      <trkpt lat="42.62864" lon="0.92431">
        <ele>2050.63</ele>
        <time>2011-02-19T12:01:12Z</time>
      </trkpt>
      <trkpt lat="42.62863" lon="0.92431">
        <ele>2050.63</ele>
        <time>2011-02-19T12:01:31Z</time>
      </trkpt>
      <trkpt lat="42.62858" lon="0.92433">
        <ele>2052.55</ele>
        <time>2011-02-19T12:01:42Z</time>
      </trkpt>
      <trkpt lat="42.62852" lon="0.9243">
        <ele>2053.51</ele>
        <time>2011-02-19T12:01:49Z</time>
      </trkpt>
      <trkpt lat="42.62846" lon="0.92428">
        <ele>2055.44</ele>
        <time>2011-02-19T12:01:59Z</time>
      </trkpt>
      <trkpt lat="42.6284" lon="0.92423">
        <ele>2056.4</ele>
        <time>2011-02-19T12:02:11Z</time>
      </trkpt>
      <trkpt lat="42.62836" lon="0.9242">
        <ele>2057.84</ele>
        <time>2011-02-19T12:02:22Z</time>
      </trkpt>
      <trkpt lat="42.62831" lon="0.92419">
        <ele>2060.24</ele>
        <time>2011-02-19T12:02:33Z</time>
      </trkpt>
      <trkpt lat="42.62826" lon="0.92411">
        <ele>2060.72</ele>
        <time>2011-02-19T12:02:46Z</time>
      </trkpt>
      <trkpt lat="42.62824" lon="0.92413">
        <ele>2062.65</ele>
        <time>2011-02-19T12:03:00Z</time>
      </trkpt>
      <trkpt lat="42.62819" lon="0.92417">
        <ele>2063.61</ele>
        <time>2011-02-19T12:03:13Z</time>
      </trkpt>
      <trkpt lat="42.62813" lon="0.92418">
        <ele>2064.09</ele>
        <time>2011-02-19T12:03:24Z</time>
      </trkpt>
      <trkpt lat="42.62806" lon="0.92417">
        <ele>2064.57</ele>
        <time>2011-02-19T12:03:31Z</time>
      </trkpt>
      <trkpt lat="42.62795" lon="0.92413">
        <ele>2065.53</ele>
        <time>2011-02-19T12:03:44Z</time>
      </trkpt>
      <trkpt lat="42.62785" lon="0.9241">
        <ele>2066.49</ele>
        <time>2011-02-19T12:03:55Z</time>
      </trkpt>
      <trkpt lat="42.6278" lon="0.92407">
        <ele>2067.45</ele>
        <time>2011-02-19T12:04:04Z</time>
      </trkpt>
      <trkpt lat="42.62771" lon="0.92404">
        <ele>2068.41</ele>
        <time>2011-02-19T12:04:16Z</time>
      </trkpt>
      <trkpt lat="42.62764" lon="0.92404">
        <ele>2068.89</ele>
        <time>2011-02-19T12:04:25Z</time>
      </trkpt>
      <trkpt lat="42.62763" lon="0.92403">
        <ele>2068.89</ele>
        <time>2011-02-19T12:04:26Z</time>
      </trkpt>
      <trkpt lat="42.62761" lon="0.92403">
        <ele>2069.38</ele>
        <time>2011-02-19T12:04:28Z</time>
      </trkpt>
      <trkpt lat="42.62758" lon="0.92403">
        <ele>2068.89</ele>
        <time>2011-02-19T12:04:31Z</time>
      </trkpt>
      <trkpt lat="42.62751" lon="0.92402">
        <ele>2069.86</ele>
        <time>2011-02-19T12:04:41Z</time>
      </trkpt>
      <trkpt lat="42.6275" lon="0.92403">
        <ele>2069.86</ele>
        <time>2011-02-19T12:04:44Z</time>
      </trkpt>
      <trkpt lat="42.62749" lon="0.92408">
        <ele>2070.82</ele>
        <time>2011-02-19T12:04:49Z</time>
      </trkpt>
      <trkpt lat="42.62745" lon="0.92414">
        <ele>2072.26</ele>
        <time>2011-02-19T12:05:03Z</time>
      </trkpt>
      <trkpt lat="42.62745" lon="0.92414">
        <ele>2072.26</ele>
        <time>2011-02-19T12:05:04Z</time>
      </trkpt>
      <trkpt lat="42.6274" lon="0.92415">
        <ele>2073.7</ele>
        <time>2011-02-19T12:05:15Z</time>
      </trkpt>
      <trkpt lat="42.62734" lon="0.9242">
        <ele>2074.18</ele>
        <time>2011-02-19T12:05:25Z</time>
      </trkpt>
      <trkpt lat="42.62734" lon="0.9242">
        <ele>2074.18</ele>
        <time>2011-02-19T12:05:26Z</time>
      </trkpt>
      <trkpt lat="42.62729" lon="0.92424">
        <ele>2075.14</ele>
        <time>2011-02-19T12:05:36Z</time>
      </trkpt>
      <trkpt lat="42.62721" lon="0.92421">
        <ele>2077.07</ele>
        <time>2011-02-19T12:05:52Z</time>
      </trkpt>
      <trkpt lat="42.62721" lon="0.92422">
        <ele>2077.55</ele>
        <time>2011-02-19T12:06:18Z</time>
      </trkpt>
      <trkpt lat="42.62715" lon="0.92419">
        <ele>2078.51</ele>
        <time>2011-02-19T12:06:27Z</time>
      </trkpt>
      <trkpt lat="42.62707" lon="0.92421">
        <ele>2079.95</ele>
        <time>2011-02-19T12:06:42Z</time>
      </trkpt>
      <trkpt lat="42.62703" lon="0.92421">
        <ele>2080.43</ele>
        <time>2011-02-19T12:06:53Z</time>
      </trkpt>
      <trkpt lat="42.62703" lon="0.9242">
        <ele>2080.43</ele>
        <time>2011-02-19T12:07:05Z</time>
      </trkpt>
      <trkpt lat="42.62701" lon="0.92418">
        <ele>2082.83</ele>
        <time>2011-02-19T12:07:15Z</time>
      </trkpt>
      <trkpt lat="42.62697" lon="0.92419">
        <ele>2084.28</ele>
        <time>2011-02-19T12:07:29Z</time>
      </trkpt>
      <trkpt lat="42.62694" lon="0.92421">
        <ele>2086.2</ele>
        <time>2011-02-19T12:07:40Z</time>
      </trkpt>
      <trkpt lat="42.62692" lon="0.92419">
        <ele>2086.2</ele>
        <time>2011-02-19T12:07:50Z</time>
      </trkpt>
      <trkpt lat="42.6269" lon="0.92416">
        <ele>2087.64</ele>
        <time>2011-02-19T12:08:07Z</time>
      </trkpt>
      <trkpt lat="42.62689" lon="0.92411">
        <ele>2089.56</ele>
        <time>2011-02-19T12:08:17Z</time>
      </trkpt>
      <trkpt lat="42.62688" lon="0.9241">
        <ele>2090.04</ele>
        <time>2011-02-19T12:08:33Z</time>
      </trkpt>
      <trkpt lat="42.62688" lon="0.92404">
        <ele>2091.49</ele>
        <time>2011-02-19T12:08:43Z</time>
      </trkpt>
      <trkpt lat="42.62688" lon="0.924">
        <ele>2093.89</ele>
        <time>2011-02-19T12:08:55Z</time>
      </trkpt>
      <trkpt lat="42.62689" lon="0.92396">
        <ele>2094.37</ele>
        <time>2011-02-19T12:09:13Z</time>
      </trkpt>
      <trkpt lat="42.62685" lon="0.92394">
        <ele>2095.33</ele>
        <time>2011-02-19T12:09:22Z</time>
      </trkpt>
      <trkpt lat="42.62683" lon="0.92388">
        <ele>2097.73</ele>
        <time>2011-02-19T12:09:33Z</time>
      </trkpt>
      <trkpt lat="42.62682" lon="0.92388">
        <ele>2098.21</ele>
        <time>2011-02-19T12:09:45Z</time>
      </trkpt>
      <trkpt lat="42.62677" lon="0.92389">
        <ele>2100.62</ele>
        <time>2011-02-19T12:09:53Z</time>
      </trkpt>
      <trkpt lat="42.6267" lon="0.92385">
        <ele>2101.1</ele>
        <time>2011-02-19T12:10:03Z</time>
      </trkpt>
      <trkpt lat="42.62668" lon="0.92383">
        <ele>2102.54</ele>
        <time>2011-02-19T12:10:15Z</time>
      </trkpt>
      <trkpt lat="42.62666" lon="0.92378">
        <ele>2103.5</ele>
        <time>2011-02-19T12:10:25Z</time>
      </trkpt>
      <trkpt lat="42.62664" lon="0.92374">
        <ele>2105.42</ele>
        <time>2011-02-19T12:10:41Z</time>
      </trkpt>
      <trkpt lat="42.62663" lon="0.92372">
        <ele>2104.94</ele>
        <time>2011-02-19T12:10:53Z</time>
      </trkpt>
      <trkpt lat="42.62661" lon="0.92368">
        <ele>2105.42</ele>
        <time>2011-02-19T12:11:19Z</time>
      </trkpt>
      <trkpt lat="42.62659" lon="0.92359">
        <ele>2105.42</ele>
        <time>2011-02-19T12:11:31Z</time>
      </trkpt>
      <trkpt lat="42.62658" lon="0.92356">
        <ele>2105.42</ele>
        <time>2011-02-19T12:11:41Z</time>
      </trkpt>
      <trkpt lat="42.62656" lon="0.92354">
        <ele>2104.46</ele>
        <time>2011-02-19T12:11:51Z</time>
      </trkpt>
      <trkpt lat="42.62647" lon="0.92348">
        <ele>2101.58</ele>
        <time>2011-02-19T12:11:57Z</time>
      </trkpt>
      <trkpt lat="42.62647" lon="0.92346">
        <ele>2101.58</ele>
        <time>2011-02-19T12:11:59Z</time>
      </trkpt>
      <trkpt lat="42.62648" lon="0.9234">
        <ele>2101.1</ele>
        <time>2011-02-19T12:12:05Z</time>
      </trkpt>
      <trkpt lat="42.62651" lon="0.92332">
        <ele>2100.62</ele>
        <time>2011-02-19T12:12:13Z</time>
      </trkpt>
      <trkpt lat="42.62653" lon="0.92325">
        <ele>2101.58</ele>
        <time>2011-02-19T12:12:19Z</time>
      </trkpt>
      <trkpt lat="42.62654" lon="0.92322">
        <ele>2101.1</ele>
        <time>2011-02-19T12:12:22Z</time>
      </trkpt>
      <trkpt lat="42.62656" lon="0.92316">
        <ele>2100.62</ele>
        <time>2011-02-19T12:12:28Z</time>
      </trkpt>
      <trkpt lat="42.62658" lon="0.92311">
        <ele>2101.1</ele>
        <time>2011-02-19T12:12:33Z</time>
      </trkpt>
      <trkpt lat="42.62664" lon="0.92298">
        <ele>2100.14</ele>
        <time>2011-02-19T12:12:44Z</time>
      </trkpt>
      <trkpt lat="42.62664" lon="0.92297">
        <ele>2100.14</ele>
        <time>2011-02-19T12:12:45Z</time>
      </trkpt>
      <trkpt lat="42.62667" lon="0.92291">
        <ele>2100.62</ele>
        <time>2011-02-19T12:12:51Z</time>
      </trkpt>
      <trkpt lat="42.62668" lon="0.92282">
        <ele>2101.1</ele>
        <time>2011-02-19T12:12:58Z</time>
      </trkpt>
      <trkpt lat="42.62672" lon="0.92263">
        <ele>2101.58</ele>
        <time>2011-02-19T12:13:12Z</time>
      </trkpt>
      <trkpt lat="42.62674" lon="0.92249">
        <ele>2101.1</ele>
        <time>2011-02-19T12:13:25Z</time>
      </trkpt>
      <trkpt lat="42.62676" lon="0.92244">
        <ele>2102.54</ele>
        <time>2011-02-19T12:13:31Z</time>
      </trkpt>
      <trkpt lat="42.62678" lon="0.9224">
        <ele>2103.5</ele>
        <time>2011-02-19T12:13:38Z</time>
      </trkpt>
      <trkpt lat="42.62676" lon="0.92239">
        <ele>2103.98</ele>
        <time>2011-02-19T12:13:48Z</time>
      </trkpt>
      <trkpt lat="42.62672" lon="0.92238">
        <ele>2104.46</ele>
        <time>2011-02-19T12:13:52Z</time>
      </trkpt>
      <trkpt lat="42.62663" lon="0.92238">
        <ele>2105.91</ele>
        <time>2011-02-19T12:14:04Z</time>
      </trkpt>
      <trkpt lat="42.62662" lon="0.92239">
        <ele>2106.39</ele>
        <time>2011-02-19T12:14:08Z</time>
      </trkpt>
      <trkpt lat="42.62657" lon="0.92246">
        <ele>2106.87</ele>
        <time>2011-02-19T12:14:19Z</time>
      </trkpt>
      <trkpt lat="42.62653" lon="0.92251">
        <ele>2108.31</ele>
        <time>2011-02-19T12:14:28Z</time>
      </trkpt>
      <trkpt lat="42.62651" lon="0.92249">
        <ele>2109.75</ele>
        <time>2011-02-19T12:14:41Z</time>
      </trkpt>
      <trkpt lat="42.62649" lon="0.92242">
        <ele>2111.19</ele>
        <time>2011-02-19T12:14:52Z</time>
      </trkpt>
      <trkpt lat="42.62649" lon="0.92239">
        <ele>2112.15</ele>
        <time>2011-02-19T12:14:57Z</time>
      </trkpt>
      <trkpt lat="42.62649" lon="0.92231">
        <ele>2113.6</ele>
        <time>2011-02-19T12:15:10Z</time>
      </trkpt>
      <trkpt lat="42.62647" lon="0.92225">
        <ele>2115.52</ele>
        <time>2011-02-19T12:15:22Z</time>
      </trkpt>
      <trkpt lat="42.62646" lon="0.9222">
        <ele>2116.48</ele>
        <time>2011-02-19T12:15:31Z</time>
      </trkpt>
      <trkpt lat="42.62646" lon="0.92216">
        <ele>2116.96</ele>
        <time>2011-02-19T12:15:40Z</time>
      </trkpt>
      <trkpt lat="42.6265" lon="0.9221">
        <ele>2118.88</ele>
        <time>2011-02-19T12:15:51Z</time>
      </trkpt>
      <trkpt lat="42.62652" lon="0.92209">
        <ele>2120.32</ele>
        <time>2011-02-19T12:16:01Z</time>
      </trkpt>
      <trkpt lat="42.62654" lon="0.92205">
        <ele>2121.77</ele>
        <time>2011-02-19T12:16:10Z</time>
      </trkpt>
      <trkpt lat="42.62655" lon="0.92194">
        <ele>2123.21</ele>
        <time>2011-02-19T12:16:21Z</time>
      </trkpt>
      <trkpt lat="42.62655" lon="0.9219">
        <ele>2123.69</ele>
        <time>2011-02-19T12:16:35Z</time>
      </trkpt>
      <trkpt lat="42.62658" lon="0.9219">
        <ele>2124.17</ele>
        <time>2011-02-19T12:16:45Z</time>
      </trkpt>
      <trkpt lat="42.62661" lon="0.92193">
        <ele>2124.65</ele>
        <time>2011-02-19T12:16:49Z</time>
      </trkpt>
      <trkpt lat="42.62663" lon="0.92198">
        <ele>2125.13</ele>
        <time>2011-02-19T12:16:54Z</time>
      </trkpt>
      <trkpt lat="42.62668" lon="0.92199">
        <ele>2127.05</ele>
        <time>2011-02-19T12:17:06Z</time>
      </trkpt>
      <trkpt lat="42.62669" lon="0.92194">
        <ele>2128.98</ele>
        <time>2011-02-19T12:17:16Z</time>
      </trkpt>
      <trkpt lat="42.62668" lon="0.92192">
        <ele>2128.98</ele>
        <time>2011-02-19T12:17:19Z</time>
      </trkpt>
      <trkpt lat="42.62668" lon="0.92189">
        <ele>2129.94</ele>
        <time>2011-02-19T12:17:33Z</time>
      </trkpt>
      <trkpt lat="42.62669" lon="0.92188">
        <ele>2129.94</ele>
        <time>2011-02-19T12:17:47Z</time>
      </trkpt>
      <trkpt lat="42.62669" lon="0.92187">
        <ele>2129.94</ele>
        <time>2011-02-19T12:18:09Z</time>
      </trkpt>
      <trkpt lat="42.62669" lon="0.92187">
        <ele>2130.42</ele>
        <time>2011-02-19T12:18:25Z</time>
      </trkpt>
      <trkpt lat="42.62669" lon="0.92187">
        <ele>2130.42</ele>
        <time>2011-02-19T12:18:57Z</time>
      </trkpt>
      <trkpt lat="42.62672" lon="0.92187">
        <ele>2130.9</ele>
        <time>2011-02-19T12:19:01Z</time>
      </trkpt>
      <trkpt lat="42.62677" lon="0.92184">
        <ele>2132.82</ele>
        <time>2011-02-19T12:19:12Z</time>
      </trkpt>
      <trkpt lat="42.6268" lon="0.9218">
        <ele>2133.78</ele>
        <time>2011-02-19T12:19:18Z</time>
      </trkpt>
      <trkpt lat="42.62678" lon="0.92174">
        <ele>2134.74</ele>
        <time>2011-02-19T12:19:29Z</time>
      </trkpt>
      <trkpt lat="42.62676" lon="0.92172">
        <ele>2134.74</ele>
        <time>2011-02-19T12:19:32Z</time>
      </trkpt>
      <trkpt lat="42.62669" lon="0.92169">
        <ele>2133.78</ele>
        <time>2011-02-19T12:19:45Z</time>
      </trkpt>
      <trkpt lat="42.62668" lon="0.92167">
        <ele>2133.78</ele>
        <time>2011-02-19T12:19:59Z</time>
      </trkpt>
      <trkpt lat="42.62668" lon="0.92165">
        <ele>2133.78</ele>
        <time>2011-02-19T12:20:09Z</time>
      </trkpt>
      <trkpt lat="42.62668" lon="0.92165">
        <ele>2134.26</ele>
        <time>2011-02-19T12:20:52Z</time>
      </trkpt>
      <trkpt lat="42.62668" lon="0.92163">
        <ele>2134.26</ele>
        <time>2011-02-19T12:21:31Z</time>
      </trkpt>
      <trkpt lat="42.6267" lon="0.92158">
        <ele>2133.3</ele>
        <time>2011-02-19T12:21:45Z</time>
      </trkpt>
      <trkpt lat="42.62671" lon="0.92158">
        <ele>2134.26</ele>
        <time>2011-02-19T12:22:00Z</time>
      </trkpt>
      <trkpt lat="42.62671" lon="0.92156">
        <ele>2133.3</ele>
        <time>2011-02-19T12:22:13Z</time>
      </trkpt>
      <trkpt lat="42.62672" lon="0.92155">
        <ele>2133.3</ele>
        <time>2011-02-19T12:22:38Z</time>
      </trkpt>
      <trkpt lat="42.62674" lon="0.9215">
        <ele>2132.34</ele>
        <time>2011-02-19T12:22:47Z</time>
      </trkpt>
      <trkpt lat="42.62674" lon="0.92148">
        <ele>2130.9</ele>
        <time>2011-02-19T12:22:57Z</time>
      </trkpt>
      <trkpt lat="42.62674" lon="0.92145">
        <ele>2129.94</ele>
        <time>2011-02-19T12:23:01Z</time>
      </trkpt>
      <trkpt lat="42.62676" lon="0.92138">
        <ele>2128.98</ele>
        <time>2011-02-19T12:23:06Z</time>
      </trkpt>
      <trkpt lat="42.6267" lon="0.92126">
        <ele>2128.5</ele>
        <time>2011-02-19T12:23:17Z</time>
      </trkpt>
      <trkpt lat="42.62669" lon="0.92118">
        <ele>2126.57</ele>
        <time>2011-02-19T12:23:24Z</time>
      </trkpt>
      <trkpt lat="42.62669" lon="0.92112">
        <ele>2127.05</ele>
        <time>2011-02-19T12:23:37Z</time>
      </trkpt>
      <trkpt lat="42.62668" lon="0.92105">
        <ele>2126.09</ele>
        <time>2011-02-19T12:23:52Z</time>
      </trkpt>
      <trkpt lat="42.62667" lon="0.92099">
        <ele>2127.05</ele>
        <time>2011-02-19T12:23:57Z</time>
      </trkpt>
      <trkpt lat="42.62665" lon="0.92096">
        <ele>2127.05</ele>
        <time>2011-02-19T12:24:09Z</time>
      </trkpt>
      <trkpt lat="42.62665" lon="0.92096">
        <ele>2126.57</ele>
        <time>2011-02-19T12:24:10Z</time>
      </trkpt>
      <trkpt lat="42.62663" lon="0.9209">
        <ele>2126.09</ele>
        <time>2011-02-19T12:24:22Z</time>
      </trkpt>
      <trkpt lat="42.62659" lon="0.92083">
        <ele>2125.61</ele>
        <time>2011-02-19T12:24:32Z</time>
      </trkpt>
      <trkpt lat="42.62656" lon="0.92077">
        <ele>2124.65</ele>
        <time>2011-02-19T12:24:43Z</time>
      </trkpt>
      <trkpt lat="42.62656" lon="0.92072">
        <ele>2124.65</ele>
        <time>2011-02-19T12:24:53Z</time>
      </trkpt>
      <trkpt lat="42.62652" lon="0.92063">
        <ele>2124.65</ele>
        <time>2011-02-19T12:25:02Z</time>
      </trkpt>
      <trkpt lat="42.62644" lon="0.92048">
        <ele>2125.13</ele>
        <time>2011-02-19T12:25:17Z</time>
      </trkpt>
      <trkpt lat="42.62641" lon="0.92041">
        <ele>2126.09</ele>
        <time>2011-02-19T12:25:26Z</time>
      </trkpt>
      <trkpt lat="42.62638" lon="0.92037">
        <ele>2128.5</ele>
        <time>2011-02-19T12:25:39Z</time>
      </trkpt>
      <trkpt lat="42.62636" lon="0.92032">
        <ele>2128.98</ele>
        <time>2011-02-19T12:25:52Z</time>
      </trkpt>
      <trkpt lat="42.62632" lon="0.92028">
        <ele>2128.5</ele>
        <time>2011-02-19T12:26:03Z</time>
      </trkpt>
      <trkpt lat="42.6263" lon="0.92028">
        <ele>2129.46</ele>
        <time>2011-02-19T12:26:05Z</time>
      </trkpt>
      <trkpt lat="42.62629" lon="0.92025">
        <ele>2128.98</ele>
        <time>2011-02-19T12:26:16Z</time>
      </trkpt>
      <trkpt lat="42.62626" lon="0.92022">
        <ele>2127.53</ele>
        <time>2011-02-19T12:26:24Z</time>
      </trkpt>
      <trkpt lat="42.62624" lon="0.9202">
        <ele>2128.02</ele>
        <time>2011-02-19T12:26:35Z</time>
      </trkpt>
      <trkpt lat="42.62617" lon="0.92015">
        <ele>2126.57</ele>
        <time>2011-02-19T12:26:47Z</time>
      </trkpt>
      <trkpt lat="42.62613" lon="0.92014">
        <ele>2126.09</ele>
        <time>2011-02-19T12:26:51Z</time>
      </trkpt>
      <trkpt lat="42.62609" lon="0.92014">
        <ele>2125.61</ele>
        <time>2011-02-19T12:27:02Z</time>
      </trkpt>
      <trkpt lat="42.62605" lon="0.92014">
        <ele>2125.61</ele>
        <time>2011-02-19T12:27:07Z</time>
      </trkpt>
      <trkpt lat="42.62603" lon="0.92014">
        <ele>2124.65</ele>
        <time>2011-02-19T12:27:09Z</time>
      </trkpt>
      <trkpt lat="42.626" lon="0.92015">
        <ele>2124.17</ele>
        <time>2011-02-19T12:27:17Z</time>
      </trkpt>
      <trkpt lat="42.62599" lon="0.92014">
        <ele>2125.61</ele>
        <time>2011-02-19T12:27:30Z</time>
      </trkpt>
      <trkpt lat="42.62599" lon="0.92015">
        <ele>2125.13</ele>
        <time>2011-02-19T12:27:42Z</time>
      </trkpt>
      <trkpt lat="42.62599" lon="0.92015">
        <ele>2125.13</ele>
        <time>2011-02-19T12:27:56Z</time>
      </trkpt>
      <trkpt lat="42.626" lon="0.92015">
        <ele>2125.61</ele>
        <time>2011-02-19T12:28:11Z</time>
      </trkpt>
      <trkpt lat="42.626" lon="0.92015">
        <ele>2125.13</ele>
        <time>2011-02-19T12:28:25Z</time>
      </trkpt>
      <trkpt lat="42.626" lon="0.92015">
        <ele>2126.09</ele>
        <time>2011-02-19T12:28:36Z</time>
      </trkpt>
      <trkpt lat="42.626" lon="0.92015">
        <ele>2125.13</ele>
        <time>2011-02-19T12:28:38Z</time>
      </trkpt>
      <trkpt lat="42.62599" lon="0.92015">
        <ele>2125.61</ele>
        <time>2011-02-19T12:28:51Z</time>
      </trkpt>
      <trkpt lat="42.62594" lon="0.92014">
        <ele>2127.05</ele>
        <time>2011-02-19T12:28:58Z</time>
      </trkpt>
      <trkpt lat="42.62594" lon="0.9202">
        <ele>2127.05</ele>
        <time>2011-02-19T12:29:09Z</time>
      </trkpt>
      <trkpt lat="42.62591" lon="0.92017">
        <ele>2128.5</ele>
        <time>2011-02-19T12:29:17Z</time>
      </trkpt>
      <trkpt lat="42.62586" lon="0.92015">
        <ele>2129.46</ele>
        <time>2011-02-19T12:29:24Z</time>
      </trkpt>
      <trkpt lat="42.62575" lon="0.9201">
        <ele>2129.94</ele>
        <time>2011-02-19T12:29:35Z</time>
      </trkpt>
      <trkpt lat="42.62569" lon="0.92009">
        <ele>2130.42</ele>
        <time>2011-02-19T12:29:40Z</time>
      </trkpt>
      <trkpt lat="42.62568" lon="0.92006">
        <ele>2130.42</ele>
        <time>2011-02-19T12:29:45Z</time>
      </trkpt>
      <trkpt lat="42.62565" lon="0.91993">
        <ele>2132.34</ele>
        <time>2011-02-19T12:29:57Z</time>
      </trkpt>
      <trkpt lat="42.62563" lon="0.91984">
        <ele>2133.3</ele>
        <time>2011-02-19T12:30:09Z</time>
      </trkpt>
      <trkpt lat="42.62561" lon="0.91981">
        <ele>2133.78</ele>
        <time>2011-02-19T12:30:13Z</time>
      </trkpt>
      <trkpt lat="42.62557" lon="0.91971">
        <ele>2135.23</ele>
        <time>2011-02-19T12:30:25Z</time>
      </trkpt>
      <trkpt lat="42.62551" lon="0.91965">
        <ele>2136.19</ele>
        <time>2011-02-19T12:30:36Z</time>
      </trkpt>
      <trkpt lat="42.62548" lon="0.91958">
        <ele>2137.63</ele>
        <time>2011-02-19T12:30:46Z</time>
      </trkpt>
      <trkpt lat="42.62543" lon="0.91951">
        <ele>2138.59</ele>
        <time>2011-02-19T12:30:57Z</time>
      </trkpt>
      <trkpt lat="42.62536" lon="0.91945">
        <ele>2139.55</ele>
        <time>2011-02-19T12:31:09Z</time>
      </trkpt>
      <trkpt lat="42.6253" lon="0.91943">
        <ele>2140.51</ele>
        <time>2011-02-19T12:31:21Z</time>
      </trkpt>
      <trkpt lat="42.62523" lon="0.91944">
        <ele>2141.95</ele>
        <time>2011-02-19T12:31:35Z</time>
      </trkpt>
      <trkpt lat="42.62517" lon="0.91948">
        <ele>2143.4</ele>
        <time>2011-02-19T12:31:47Z</time>
      </trkpt>
      <trkpt lat="42.62514" lon="0.91952">
        <ele>2144.84</ele>
        <time>2011-02-19T12:31:58Z</time>
      </trkpt>
      <trkpt lat="42.62511" lon="0.91956">
        <ele>2145.8</ele>
        <time>2011-02-19T12:32:11Z</time>
      </trkpt>
      <trkpt lat="42.62509" lon="0.91958">
        <ele>2145.8</ele>
        <time>2011-02-19T12:32:27Z</time>
      </trkpt>
      <trkpt lat="42.62508" lon="0.9196">
        <ele>2146.28</ele>
        <time>2011-02-19T12:32:29Z</time>
      </trkpt>
      <trkpt lat="42.62505" lon="0.91964">
        <ele>2146.28</ele>
        <time>2011-02-19T12:32:32Z</time>
      </trkpt>
      <trkpt lat="42.62502" lon="0.9197">
        <ele>2146.76</ele>
        <time>2011-02-19T12:32:37Z</time>
      </trkpt>
      <trkpt lat="42.62498" lon="0.91977">
        <ele>2146.76</ele>
        <time>2011-02-19T12:32:42Z</time>
      </trkpt>
      <trkpt lat="42.62494" lon="0.91987">
        <ele>2145.8</ele>
        <time>2011-02-19T12:32:48Z</time>
      </trkpt>
      <trkpt lat="42.62479" lon="0.91994">
        <ele>2143.88</ele>
        <time>2011-02-19T12:33:00Z</time>
      </trkpt>
      <trkpt lat="42.62475" lon="0.91996">
        <ele>2143.4</ele>
        <time>2011-02-19T12:33:05Z</time>
      </trkpt>
      <trkpt lat="42.62462" lon="0.91999">
        <ele>2142.92</ele>
        <time>2011-02-19T12:33:16Z</time>
      </trkpt>
      <trkpt lat="42.62461" lon="0.91999">
        <ele>2142.44</ele>
        <time>2011-02-19T12:33:17Z</time>
      </trkpt>
      <trkpt lat="42.62457" lon="0.92001">
        <ele>2142.92</ele>
        <time>2011-02-19T12:33:21Z</time>
      </trkpt>
      <trkpt lat="42.62456" lon="0.92004">
        <ele>2142.44</ele>
        <time>2011-02-19T12:33:24Z</time>
      </trkpt>
      <trkpt lat="42.62449" lon="0.92012">
        <ele>2143.4</ele>
        <time>2011-02-19T12:33:35Z</time>
      </trkpt>
      <trkpt lat="42.62444" lon="0.92015">
        <ele>2143.4</ele>
        <time>2011-02-19T12:33:39Z</time>
      </trkpt>
      <trkpt lat="42.62437" lon="0.92026">
        <ele>2141.95</ele>
        <time>2011-02-19T12:33:51Z</time>
      </trkpt>
      <trkpt lat="42.62437" lon="0.92029">
        <ele>2140.99</ele>
        <time>2011-02-19T12:33:55Z</time>
      </trkpt>
      <trkpt lat="42.62435" lon="0.92037">
        <ele>2140.03</ele>
        <time>2011-02-19T12:33:59Z</time>
      </trkpt>
      <trkpt lat="42.62425" lon="0.92045">
        <ele>2138.59</ele>
        <time>2011-02-19T12:34:10Z</time>
      </trkpt>
      <trkpt lat="42.62424" lon="0.92045">
        <ele>2138.11</ele>
        <time>2011-02-19T12:34:21Z</time>
      </trkpt>
      <trkpt lat="42.62424" lon="0.92046">
        <ele>2138.11</ele>
        <time>2011-02-19T12:34:36Z</time>
      </trkpt>
      <trkpt lat="42.6242" lon="0.92051">
        <ele>2137.63</ele>
        <time>2011-02-19T12:34:44Z</time>
      </trkpt>
      <trkpt lat="42.6242" lon="0.92055">
        <ele>2137.63</ele>
        <time>2011-02-19T12:34:56Z</time>
      </trkpt>
      <trkpt lat="42.6242" lon="0.92055">
        <ele>2137.63</ele>
        <time>2011-02-19T12:35:10Z</time>
      </trkpt>
      <trkpt lat="42.62419" lon="0.92056">
        <ele>2137.63</ele>
        <time>2011-02-19T12:35:30Z</time>
      </trkpt>
      <trkpt lat="42.62418" lon="0.92059">
        <ele>2137.63</ele>
        <time>2011-02-19T12:35:38Z</time>
      </trkpt>
      <trkpt lat="42.62418" lon="0.92074">
        <ele>2136.19</ele>
        <time>2011-02-19T12:35:51Z</time>
      </trkpt>
      <trkpt lat="42.6242" lon="0.92068">
        <ele>2137.15</ele>
        <time>2011-02-19T12:35:56Z</time>
      </trkpt>
      <trkpt lat="42.6242" lon="0.92061">
        <ele>2137.63</ele>
        <time>2011-02-19T12:36:01Z</time>
      </trkpt>
      <trkpt lat="42.62421" lon="0.92057">
        <ele>2137.15</ele>
        <time>2011-02-19T12:36:12Z</time>
      </trkpt>
      <trkpt lat="42.62423" lon="0.92058">
        <ele>2136.19</ele>
        <time>2011-02-19T12:36:19Z</time>
      </trkpt>
      <trkpt lat="42.62426" lon="0.92057">
        <ele>2136.19</ele>
        <time>2011-02-19T12:37:22Z</time>
      </trkpt>
      <trkpt lat="42.62424" lon="0.92057">
        <ele>2137.15</ele>
        <time>2011-02-19T12:37:37Z</time>
      </trkpt>
      <trkpt lat="42.62424" lon="0.92057">
        <ele>2132.34</ele>
        <time>2011-02-19T12:37:50Z</time>
      </trkpt>
      <trkpt lat="42.62424" lon="0.92057">
        <ele>2139.55</ele>
        <time>2011-02-19T12:37:51Z</time>
      </trkpt>
      <trkpt lat="42.62424" lon="0.92057">
        <ele>2134.26</ele>
        <time>2011-02-19T12:37:52Z</time>
      </trkpt>
      <trkpt lat="42.62424" lon="0.92057">
        <ele>2137.63</ele>
        <time>2011-02-19T12:37:53Z</time>
      </trkpt>
      <trkpt lat="42.62424" lon="0.92058">
        <ele>2139.07</ele>
        <time>2011-02-19T12:42:30Z</time>
      </trkpt>
      <trkpt lat="42.62424" lon="0.92057">
        <ele>2136.67</ele>
        <time>2011-02-19T12:42:36Z</time>
      </trkpt>
      <trkpt lat="42.62423" lon="0.92056">
        <ele>2137.63</ele>
        <time>2011-02-19T12:43:55Z</time>
      </trkpt>
      <trkpt lat="42.62423" lon="0.92056">
        <ele>2136.19</ele>
        <time>2011-02-19T12:43:57Z</time>
      </trkpt>
      <trkpt lat="42.62423" lon="0.92056">
        <ele>2136.19</ele>
        <time>2011-02-19T12:44:27Z</time>
      </trkpt>
      <trkpt lat="42.62423" lon="0.92056">
        <ele>2131.86</ele>
        <time>2011-02-19T12:44:36Z</time>
      </trkpt>
      <trkpt lat="42.62423" lon="0.92056">
        <ele>2138.11</ele>
        <time>2011-02-19T12:44:37Z</time>
      </trkpt>
      <trkpt lat="42.62422" lon="0.92055">
        <ele>2134.26</ele>
        <time>2011-02-19T12:44:42Z</time>
      </trkpt>
      <trkpt lat="42.62422" lon="0.92055">
        <ele>2138.59</ele>
        <time>2011-02-19T12:44:45Z</time>
      </trkpt>
      <trkpt lat="42.62422" lon="0.92055">
        <ele>2129.46</ele>
        <time>2011-02-19T12:44:46Z</time>
      </trkpt>
      <trkpt lat="42.62422" lon="0.92055">
        <ele>2135.71</ele>
        <time>2011-02-19T12:44:47Z</time>
      </trkpt>
      <trkpt lat="42.62422" lon="0.92055">
        <ele>2138.59</ele>
        <time>2011-02-19T12:44:53Z</time>
      </trkpt>
      <trkpt lat="42.62422" lon="0.92055">
        <ele>2136.19</ele>
        <time>2011-02-19T12:44:56Z</time>
      </trkpt>
      <trkpt lat="42.62422" lon="0.92055">
        <ele>2133.3</ele>
        <time>2011-02-19T12:44:59Z</time>
      </trkpt>
      <trkpt lat="42.62422" lon="0.92055">
        <ele>2136.67</ele>
        <time>2011-02-19T12:45:01Z</time>
      </trkpt>
      <trkpt lat="42.62422" lon="0.92055">
        <ele>2132.82</ele>
        <time>2011-02-19T12:45:03Z</time>
      </trkpt>
      <trkpt lat="42.62422" lon="0.92055">
        <ele>2137.15</ele>
        <time>2011-02-19T12:45:04Z</time>
      </trkpt>
      <trkpt lat="42.62422" lon="0.92055">
        <ele>2140.03</ele>
        <time>2011-02-19T12:45:05Z</time>
      </trkpt>
      <trkpt lat="42.62422" lon="0.92055">
        <ele>2134.74</ele>
        <time>2011-02-19T12:45:06Z</time>
      </trkpt>
      <trkpt lat="42.62422" lon="0.92055">
        <ele>2129.46</ele>
        <time>2011-02-19T12:45:07Z</time>
      </trkpt>
      <trkpt lat="42.62422" lon="0.92055">
        <ele>2136.67</ele>
        <time>2011-02-19T12:45:08Z</time>
      </trkpt>
      <trkpt lat="42.62422" lon="0.92055">
        <ele>2137.63</ele>
        <time>2011-02-19T12:45:10Z</time>
      </trkpt>
      <trkpt lat="42.62422" lon="0.92055">
        <ele>2133.3</ele>
        <time>2011-02-19T12:45:11Z</time>
      </trkpt>
      <trkpt lat="42.62422" lon="0.92055">
        <ele>2134.26</ele>
        <time>2011-02-19T12:45:12Z</time>
      </trkpt>
      <trkpt lat="42.62422" lon="0.92055">
        <ele>2137.63</ele>
        <time>2011-02-19T12:45:14Z</time>
      </trkpt>
      <trkpt lat="42.62422" lon="0.92055">
        <ele>2134.26</ele>
        <time>2011-02-19T12:45:18Z</time>
      </trkpt>
      <trkpt lat="42.62422" lon="0.92055">
        <ele>2129.46</ele>
        <time>2011-02-19T12:45:20Z</time>
      </trkpt>
      <trkpt lat="42.62422" lon="0.92055">
        <ele>2136.19</ele>
        <time>2011-02-19T12:45:21Z</time>
      </trkpt>
      <trkpt lat="42.62423" lon="0.92058">
        <ele>2135.23</ele>
        <time>2011-02-19T12:48:55Z</time>
      </trkpt>
      <trkpt lat="42.62419" lon="0.92055">
        <ele>2135.23</ele>
        <time>2011-02-19T12:49:11Z</time>
      </trkpt>
      <trkpt lat="42.62429" lon="0.92054">
        <ele>2131.86</ele>
        <time>2011-02-19T13:01:04Z</time>
      </trkpt>
      <trkpt lat="42.62429" lon="0.92054">
        <ele>2131.86</ele>
        <time>2011-02-19T13:01:23Z</time>
      </trkpt>
      <trkpt lat="42.62428" lon="0.92054">
        <ele>2132.82</ele>
        <time>2011-02-19T13:03:15Z</time>
      </trkpt>
      <trkpt lat="42.62428" lon="0.92054">
        <ele>2128.02</ele>
        <time>2011-02-19T13:03:56Z</time>
      </trkpt>
      <trkpt lat="42.62428" lon="0.92054">
        <ele>2131.86</ele>
        <time>2011-02-19T13:03:58Z</time>
      </trkpt>
      <trkpt lat="42.62422" lon="0.92055">
        <ele>2130.42</ele>
        <time>2011-02-19T13:12:52Z</time>
      </trkpt>
      <trkpt lat="42.62423" lon="0.92055">
        <ele>2129.94</ele>
        <time>2011-02-19T13:15:27Z</time>
      </trkpt>
      <trkpt lat="42.62422" lon="0.92055">
        <ele>2134.26</ele>
        <time>2011-02-19T13:15:50Z</time>
      </trkpt>
      <trkpt lat="42.62422" lon="0.92055">
        <ele>2133.78</ele>
        <time>2011-02-19T13:15:51Z</time>
      </trkpt>
      <trkpt lat="42.62422" lon="0.92055">
        <ele>2130.9</ele>
        <time>2011-02-19T13:15:53Z</time>
      </trkpt>
      <trkpt lat="42.62422" lon="0.92055">
        <ele>2131.86</ele>
        <time>2011-02-19T13:15:54Z</time>
      </trkpt>
      <trkpt lat="42.62422" lon="0.92055">
        <ele>2131.38</ele>
        <time>2011-02-19T13:16:04Z</time>
      </trkpt>
      <trkpt lat="42.62422" lon="0.92054">
        <ele>2130.9</ele>
        <time>2011-02-19T13:16:05Z</time>
      </trkpt>
      <trkpt lat="42.62421" lon="0.92056">
        <ele>2131.38</ele>
        <time>2011-02-19T13:16:19Z</time>
      </trkpt>
      <trkpt lat="42.6242" lon="0.92056">
        <ele>2131.86</ele>
        <time>2011-02-19T13:16:42Z</time>
      </trkpt>
      <trkpt lat="42.62419" lon="0.92056">
        <ele>2131.86</ele>
        <time>2011-02-19T13:16:55Z</time>
      </trkpt>
      <trkpt lat="42.62419" lon="0.92056">
        <ele>2131.86</ele>
        <time>2011-02-19T13:17:21Z</time>
      </trkpt>
      <trkpt lat="42.6242" lon="0.92053">
        <ele>2131.38</ele>
        <time>2011-02-19T13:17:37Z</time>
      </trkpt>
      <trkpt lat="42.6242" lon="0.92053">
        <ele>2131.86</ele>
        <time>2011-02-19T13:17:56Z</time>
      </trkpt>
      <trkpt lat="42.6242" lon="0.92053">
        <ele>2131.38</ele>
        <time>2011-02-19T13:18:15Z</time>
      </trkpt>
      <trkpt lat="42.6242" lon="0.92052">
        <ele>2131.38</ele>
        <time>2011-02-19T13:18:28Z</time>
      </trkpt>
      <trkpt lat="42.6242" lon="0.92052">
        <ele>2130.9</ele>
        <time>2011-02-19T13:18:29Z</time>
      </trkpt>
      <trkpt lat="42.62419" lon="0.92052">
        <ele>2132.34</ele>
        <time>2011-02-19T13:18:40Z</time>
      </trkpt>
      <trkpt lat="42.62419" lon="0.92052">
        <ele>2131.38</ele>
        <time>2011-02-19T13:18:57Z</time>
      </trkpt>
      <trkpt lat="42.62419" lon="0.92052">
        <ele>2131.86</ele>
        <time>2011-02-19T13:19:15Z</time>
      </trkpt>
      <trkpt lat="42.62419" lon="0.92052">
        <ele>2132.34</ele>
        <time>2011-02-19T13:19:49Z</time>
      </trkpt>
      <trkpt lat="42.6242" lon="0.92052">
        <ele>2131.86</ele>
        <time>2011-02-19T13:20:13Z</time>
      </trkpt>
      <trkpt lat="42.62419" lon="0.92051">
        <ele>2131.86</ele>
        <time>2011-02-19T13:20:22Z</time>
      </trkpt>
      <trkpt lat="42.62419" lon="0.92051">
        <ele>2132.34</ele>
        <time>2011-02-19T13:20:35Z</time>
      </trkpt>
      <trkpt lat="42.62419" lon="0.92051">
        <ele>2132.82</ele>
        <time>2011-02-19T13:21:19Z</time>
      </trkpt>
      <trkpt lat="42.62419" lon="0.9205">
        <ele>2132.34</ele>
        <time>2011-02-19T13:21:42Z</time>
      </trkpt>
      <trkpt lat="42.62419" lon="0.9205">
        <ele>2131.86</ele>
        <time>2011-02-19T13:22:17Z</time>
      </trkpt>
      <trkpt lat="42.62419" lon="0.9205">
        <ele>2132.34</ele>
        <time>2011-02-19T13:22:41Z</time>
      </trkpt>
      <trkpt lat="42.62419" lon="0.9205">
        <ele>2132.34</ele>
        <time>2011-02-19T13:22:55Z</time>
      </trkpt>
      <trkpt lat="42.62418" lon="0.9205">
        <ele>2132.34</ele>
        <time>2011-02-19T13:22:59Z</time>
      </trkpt>
      <trkpt lat="42.62418" lon="0.9205">
        <ele>2132.34</ele>
        <time>2011-02-19T13:23:07Z</time>
      </trkpt>
      <trkpt lat="42.6242" lon="0.92043">
        <ele>2132.82</ele>
        <time>2011-02-19T13:23:19Z</time>
      </trkpt>
      <trkpt lat="42.6242" lon="0.92043">
        <ele>2133.78</ele>
        <time>2011-02-19T13:23:36Z</time>
      </trkpt>
      <trkpt lat="42.62421" lon="0.92044">
        <ele>2133.3</ele>
        <time>2011-02-19T13:23:49Z</time>
      </trkpt>
      <trkpt lat="42.62421" lon="0.92044">
        <ele>2132.82</ele>
        <time>2011-02-19T13:24:14Z</time>
      </trkpt>
      <trkpt lat="42.62421" lon="0.92044">
        <ele>2134.26</ele>
        <time>2011-02-19T13:24:17Z</time>
      </trkpt>
      <trkpt lat="42.62421" lon="0.92044">
        <ele>2132.82</ele>
        <time>2011-02-19T13:24:27Z</time>
      </trkpt>
      <trkpt lat="42.6242" lon="0.92042">
        <ele>2134.26</ele>
        <time>2011-02-19T13:24:36Z</time>
      </trkpt>
      <trkpt lat="42.6242" lon="0.92042">
        <ele>2134.26</ele>
        <time>2011-02-19T13:24:40Z</time>
      </trkpt>
      <trkpt lat="42.62423" lon="0.92039">
        <ele>2135.23</ele>
        <time>2011-02-19T13:24:50Z</time>
      </trkpt>
      <trkpt lat="42.62423" lon="0.92039">
        <ele>2135.23</ele>
        <time>2011-02-19T13:24:52Z</time>
      </trkpt>
      <trkpt lat="42.62431" lon="0.92031">
        <ele>2136.67</ele>
        <time>2011-02-19T13:25:04Z</time>
      </trkpt>
      <trkpt lat="42.62437" lon="0.92024">
        <ele>2137.63</ele>
        <time>2011-02-19T13:25:13Z</time>
      </trkpt>
      <trkpt lat="42.62444" lon="0.92013">
        <ele>2139.07</ele>
        <time>2011-02-19T13:25:27Z</time>
      </trkpt>
      <trkpt lat="42.62446" lon="0.92002">
        <ele>2141.47</ele>
        <time>2011-02-19T13:25:40Z</time>
      </trkpt>
      <trkpt lat="42.62446" lon="0.92001">
        <ele>2140.99</ele>
        <time>2011-02-19T13:25:41Z</time>
      </trkpt>
      <trkpt lat="42.62447" lon="0.91988">
        <ele>2140.51</ele>
        <time>2011-02-19T13:25:53Z</time>
      </trkpt>
      <trkpt lat="42.62454" lon="0.91972">
        <ele>2139.07</ele>
        <time>2011-02-19T13:26:06Z</time>
      </trkpt>
      <trkpt lat="42.6246" lon="0.91965">
        <ele>2139.55</ele>
        <time>2011-02-19T13:26:18Z</time>
      </trkpt>
      <trkpt lat="42.62463" lon="0.91961">
        <ele>2140.99</ele>
        <time>2011-02-19T13:26:25Z</time>
      </trkpt>
      <trkpt lat="42.62467" lon="0.91956">
        <ele>2140.99</ele>
        <time>2011-02-19T13:26:38Z</time>
      </trkpt>
      <trkpt lat="42.62469" lon="0.9195">
        <ele>2140.99</ele>
        <time>2011-02-19T13:26:45Z</time>
      </trkpt>
      <trkpt lat="42.62475" lon="0.91938">
        <ele>2140.99</ele>
        <time>2011-02-19T13:27:00Z</time>
      </trkpt>
      <trkpt lat="42.62475" lon="0.91935">
        <ele>2140.99</ele>
        <time>2011-02-19T13:27:12Z</time>
      </trkpt>
      <trkpt lat="42.62476" lon="0.91933">
        <ele>2141.47</ele>
        <time>2011-02-19T13:27:28Z</time>
      </trkpt>
      <trkpt lat="42.62477" lon="0.91927">
        <ele>2142.44</ele>
        <time>2011-02-19T13:27:51Z</time>
      </trkpt>
      <trkpt lat="42.62479" lon="0.9192">
        <ele>2143.88</ele>
        <time>2011-02-19T13:28:02Z</time>
      </trkpt>
      <trkpt lat="42.62481" lon="0.91918">
        <ele>2144.36</ele>
        <time>2011-02-19T13:28:17Z</time>
      </trkpt>
      <trkpt lat="42.62482" lon="0.91912">
        <ele>2145.32</ele>
        <time>2011-02-19T13:29:03Z</time>
      </trkpt>
      <trkpt lat="42.62485" lon="0.91906">
        <ele>2146.76</ele>
        <time>2011-02-19T13:29:08Z</time>
      </trkpt>
      <trkpt lat="42.62489" lon="0.91899">
        <ele>2149.16</ele>
        <time>2011-02-19T13:29:19Z</time>
      </trkpt>
      <trkpt lat="42.62493" lon="0.91893">
        <ele>2150.61</ele>
        <time>2011-02-19T13:29:31Z</time>
      </trkpt>
      <trkpt lat="42.62498" lon="0.91884">
        <ele>2153.01</ele>
        <time>2011-02-19T13:29:43Z</time>
      </trkpt>
      <trkpt lat="42.62498" lon="0.91876">
        <ele>2154.93</ele>
        <time>2011-02-19T13:29:54Z</time>
      </trkpt>
      <trkpt lat="42.62498" lon="0.91866">
        <ele>2157.82</ele>
        <time>2011-02-19T13:30:07Z</time>
      </trkpt>
      <trkpt lat="42.62498" lon="0.91866">
        <ele>2157.34</ele>
        <time>2011-02-19T13:30:37Z</time>
      </trkpt>
      <trkpt lat="42.62499" lon="0.91865">
        <ele>2156.86</ele>
        <time>2011-02-19T13:31:11Z</time>
      </trkpt>
      <trkpt lat="42.62499" lon="0.91864">
        <ele>2157.82</ele>
        <time>2011-02-19T13:31:30Z</time>
      </trkpt>
      <trkpt lat="42.62499" lon="0.91861">
        <ele>2158.3</ele>
        <time>2011-02-19T13:31:54Z</time>
      </trkpt>
      <trkpt lat="42.62499" lon="0.9186">
        <ele>2158.3</ele>
        <time>2011-02-19T13:31:56Z</time>
      </trkpt>
      <trkpt lat="42.62496" lon="0.91854">
        <ele>2159.26</ele>
        <time>2011-02-19T13:32:08Z</time>
      </trkpt>
      <trkpt lat="42.62493" lon="0.91849">
        <ele>2159.74</ele>
        <time>2011-02-19T13:32:29Z</time>
      </trkpt>
      <trkpt lat="42.62491" lon="0.91848">
        <ele>2159.74</ele>
        <time>2011-02-19T13:32:32Z</time>
      </trkpt>
      <trkpt lat="42.62482" lon="0.91835">
        <ele>2161.18</ele>
        <time>2011-02-19T13:32:46Z</time>
      </trkpt>
      <trkpt lat="42.62481" lon="0.91832">
        <ele>2160.7</ele>
        <time>2011-02-19T13:32:49Z</time>
      </trkpt>
      <trkpt lat="42.62478" lon="0.91829">
        <ele>2162.62</ele>
        <time>2011-02-19T13:32:53Z</time>
      </trkpt>
      <trkpt lat="42.62475" lon="0.91825">
        <ele>2162.62</ele>
        <time>2011-02-19T13:33:07Z</time>
      </trkpt>
      <trkpt lat="42.62474" lon="0.91824">
        <ele>2163.1</ele>
        <time>2011-02-19T13:33:26Z</time>
      </trkpt>
      <trkpt lat="42.62465" lon="0.91818">
        <ele>2164.55</ele>
        <time>2011-02-19T13:33:38Z</time>
      </trkpt>
      <trkpt lat="42.62459" lon="0.91812">
        <ele>2165.99</ele>
        <time>2011-02-19T13:33:50Z</time>
      </trkpt>
      <trkpt lat="42.62458" lon="0.91811">
        <ele>2165.99</ele>
        <time>2011-02-19T13:33:54Z</time>
      </trkpt>
      <trkpt lat="42.6245" lon="0.91806">
        <ele>2167.43</ele>
        <time>2011-02-19T13:34:06Z</time>
      </trkpt>
      <trkpt lat="42.62443" lon="0.91806">
        <ele>2168.87</ele>
        <time>2011-02-19T13:34:21Z</time>
      </trkpt>
      <trkpt lat="42.62435" lon="0.91804">
        <ele>2170.31</ele>
        <time>2011-02-19T13:34:32Z</time>
      </trkpt>
      <trkpt lat="42.6243" lon="0.91803">
        <ele>2170.79</ele>
        <time>2011-02-19T13:34:42Z</time>
      </trkpt>
      <trkpt lat="42.62421" lon="0.91798">
        <ele>2171.76</ele>
        <time>2011-02-19T13:34:56Z</time>
      </trkpt>
      <trkpt lat="42.62414" lon="0.91794">
        <ele>2172.72</ele>
        <time>2011-02-19T13:35:09Z</time>
      </trkpt>
      <trkpt lat="42.62407" lon="0.91789">
        <ele>2173.68</ele>
        <time>2011-02-19T13:35:21Z</time>
      </trkpt>
      <trkpt lat="42.624" lon="0.91785">
        <ele>2173.68</ele>
        <time>2011-02-19T13:35:35Z</time>
      </trkpt>
      <trkpt lat="42.62394" lon="0.91781">
        <ele>2174.64</ele>
        <time>2011-02-19T13:35:46Z</time>
      </trkpt>
      <trkpt lat="42.62391" lon="0.91779">
        <ele>2174.64</ele>
        <time>2011-02-19T13:36:07Z</time>
      </trkpt>
      <trkpt lat="42.62383" lon="0.91772">
        <ele>2177.04</ele>
        <time>2011-02-19T13:36:21Z</time>
      </trkpt>
      <trkpt lat="42.62378" lon="0.91768">
        <ele>2177.04</ele>
        <time>2011-02-19T13:36:28Z</time>
      </trkpt>
      <trkpt lat="42.62376" lon="0.91763">
        <ele>2177.52</ele>
        <time>2011-02-19T13:36:34Z</time>
      </trkpt>
      <trkpt lat="42.62373" lon="0.9175">
        <ele>2178.48</ele>
        <time>2011-02-19T13:36:49Z</time>
      </trkpt>
      <trkpt lat="42.6237" lon="0.91744">
        <ele>2181.37</ele>
        <time>2011-02-19T13:37:02Z</time>
      </trkpt>
      <trkpt lat="42.62368" lon="0.91741">
        <ele>2181.37</ele>
        <time>2011-02-19T13:37:11Z</time>
      </trkpt>
      <trkpt lat="42.62366" lon="0.91737">
        <ele>2182.33</ele>
        <time>2011-02-19T13:37:22Z</time>
      </trkpt>
      <trkpt lat="42.62363" lon="0.91732">
        <ele>2183.29</ele>
        <time>2011-02-19T13:37:32Z</time>
      </trkpt>
      <trkpt lat="42.62362" lon="0.91728">
        <ele>2184.73</ele>
        <time>2011-02-19T13:37:45Z</time>
      </trkpt>
      <trkpt lat="42.62357" lon="0.91724">
        <ele>2185.69</ele>
        <time>2011-02-19T13:37:55Z</time>
      </trkpt>
      <trkpt lat="42.62354" lon="0.91722">
        <ele>2185.69</ele>
        <time>2011-02-19T13:38:06Z</time>
      </trkpt>
      <trkpt lat="42.62352" lon="0.91721">
        <ele>2187.14</ele>
        <time>2011-02-19T13:38:18Z</time>
      </trkpt>
      <trkpt lat="42.62349" lon="0.91719">
        <ele>2187.62</ele>
        <time>2011-02-19T13:38:29Z</time>
      </trkpt>
      <trkpt lat="42.62344" lon="0.91717">
        <ele>2187.62</ele>
        <time>2011-02-19T13:38:42Z</time>
      </trkpt>
      <trkpt lat="42.62337" lon="0.91713">
        <ele>2187.62</ele>
        <time>2011-02-19T13:38:50Z</time>
      </trkpt>
      <trkpt lat="42.62328" lon="0.91709">
        <ele>2188.1</ele>
        <time>2011-02-19T13:38:59Z</time>
      </trkpt>
      <trkpt lat="42.62321" lon="0.91704">
        <ele>2187.14</ele>
        <time>2011-02-19T13:39:08Z</time>
      </trkpt>
      <trkpt lat="42.6231" lon="0.91694">
        <ele>2187.62</ele>
        <time>2011-02-19T13:39:21Z</time>
      </trkpt>
      <trkpt lat="42.62306" lon="0.9169">
        <ele>2188.58</ele>
        <time>2011-02-19T13:39:32Z</time>
      </trkpt>
      <trkpt lat="42.62303" lon="0.91687">
        <ele>2189.06</ele>
        <time>2011-02-19T13:39:39Z</time>
      </trkpt>
      <trkpt lat="42.62297" lon="0.91682">
        <ele>2190.98</ele>
        <time>2011-02-19T13:39:50Z</time>
      </trkpt>
      <trkpt lat="42.62293" lon="0.91676">
        <ele>2191.94</ele>
        <time>2011-02-19T13:40:00Z</time>
      </trkpt>
      <trkpt lat="42.62291" lon="0.91671">
        <ele>2192.42</ele>
        <time>2011-02-19T13:40:11Z</time>
      </trkpt>
      <trkpt lat="42.62289" lon="0.91662">
        <ele>2192.9</ele>
        <time>2011-02-19T13:40:25Z</time>
      </trkpt>
      <trkpt lat="42.62287" lon="0.91654">
        <ele>2193.87</ele>
        <time>2011-02-19T13:40:37Z</time>
      </trkpt>
      <trkpt lat="42.62286" lon="0.91649">
        <ele>2195.79</ele>
        <time>2011-02-19T13:40:49Z</time>
      </trkpt>
      <trkpt lat="42.62284" lon="0.91637">
        <ele>2196.27</ele>
        <time>2011-02-19T13:41:01Z</time>
      </trkpt>
      <trkpt lat="42.62282" lon="0.9163">
        <ele>2197.23</ele>
        <time>2011-02-19T13:41:12Z</time>
      </trkpt>
      <trkpt lat="42.6228" lon="0.91625">
        <ele>2198.67</ele>
        <time>2011-02-19T13:41:24Z</time>
      </trkpt>
      <trkpt lat="42.62279" lon="0.91623">
        <ele>2197.71</ele>
        <time>2011-02-19T13:41:27Z</time>
      </trkpt>
      <trkpt lat="42.62277" lon="0.91616">
        <ele>2198.67</ele>
        <time>2011-02-19T13:41:37Z</time>
      </trkpt>
      <trkpt lat="42.62276" lon="0.91615">
        <ele>2198.67</ele>
        <time>2011-02-19T13:41:41Z</time>
      </trkpt>
      <trkpt lat="42.62275" lon="0.91615">
        <ele>2199.15</ele>
        <time>2011-02-19T13:41:52Z</time>
      </trkpt>
      <trkpt lat="42.62276" lon="0.91614">
        <ele>2197.71</ele>
        <time>2011-02-19T13:42:17Z</time>
      </trkpt>
      <trkpt lat="42.62276" lon="0.91614">
        <ele>2199.15</ele>
        <time>2011-02-19T13:42:20Z</time>
      </trkpt>
      <trkpt lat="42.62276" lon="0.91614">
        <ele>2198.19</ele>
        <time>2011-02-19T13:42:22Z</time>
      </trkpt>
      <trkpt lat="42.62276" lon="0.91614">
        <ele>2197.71</ele>
        <time>2011-02-19T13:43:07Z</time>
      </trkpt>
      <trkpt lat="42.62276" lon="0.91614">
        <ele>2198.19</ele>
        <time>2011-02-19T13:44:16Z</time>
      </trkpt>
      <trkpt lat="42.62276" lon="0.91614">
        <ele>2198.67</ele>
        <time>2011-02-19T13:44:51Z</time>
      </trkpt>
      <trkpt lat="42.62275" lon="0.91612">
        <ele>2198.19</ele>
        <time>2011-02-19T13:45:06Z</time>
      </trkpt>
      <trkpt lat="42.62276" lon="0.91609">
        <ele>2199.15</ele>
        <time>2011-02-19T13:45:25Z</time>
      </trkpt>
      <trkpt lat="42.62271" lon="0.91593">
        <ele>2197.23</ele>
        <time>2011-02-19T13:45:39Z</time>
      </trkpt>
      <trkpt lat="42.62269" lon="0.9159">
        <ele>2197.23</ele>
        <time>2011-02-19T13:45:41Z</time>
      </trkpt>
      <trkpt lat="42.62262" lon="0.91579">
        <ele>2197.71</ele>
        <time>2011-02-19T13:45:52Z</time>
      </trkpt>
      <trkpt lat="42.62258" lon="0.91568">
        <ele>2199.15</ele>
        <time>2011-02-19T13:46:08Z</time>
      </trkpt>
      <trkpt lat="42.6225" lon="0.91555">
        <ele>2199.63</ele>
        <time>2011-02-19T13:46:21Z</time>
      </trkpt>
      <trkpt lat="42.62239" lon="0.91547">
        <ele>2200.11</ele>
        <time>2011-02-19T13:46:33Z</time>
      </trkpt>
      <trkpt lat="42.62237" lon="0.91545">
        <ele>2199.63</ele>
        <time>2011-02-19T13:46:41Z</time>
      </trkpt>
      <trkpt lat="42.62232" lon="0.91538">
        <ele>2199.63</ele>
        <time>2011-02-19T13:46:48Z</time>
      </trkpt>
      <trkpt lat="42.62224" lon="0.91528">
        <ele>2200.11</ele>
        <time>2011-02-19T13:46:59Z</time>
      </trkpt>
      <trkpt lat="42.6222" lon="0.91525">
        <ele>2199.63</ele>
        <time>2011-02-19T13:47:05Z</time>
      </trkpt>
      <trkpt lat="42.62213" lon="0.91522">
        <ele>2200.59</ele>
        <time>2011-02-19T13:47:12Z</time>
      </trkpt>
      <trkpt lat="42.6221" lon="0.91509">
        <ele>2201.08</ele>
        <time>2011-02-19T13:47:25Z</time>
      </trkpt>
      <trkpt lat="42.62207" lon="0.91498">
        <ele>2203</ele>
        <time>2011-02-19T13:47:37Z</time>
      </trkpt>
      <trkpt lat="42.62202" lon="0.91488">
        <ele>2203.48</ele>
        <time>2011-02-19T13:47:49Z</time>
      </trkpt>
      <trkpt lat="42.62202" lon="0.91487">
        <ele>2203.48</ele>
        <time>2011-02-19T13:47:51Z</time>
      </trkpt>
      <trkpt lat="42.62196" lon="0.91478">
        <ele>2203.96</ele>
        <time>2011-02-19T13:48:03Z</time>
      </trkpt>
      <trkpt lat="42.62191" lon="0.91469">
        <ele>2203.96</ele>
        <time>2011-02-19T13:48:15Z</time>
      </trkpt>
      <trkpt lat="42.62189" lon="0.9146">
        <ele>2206.36</ele>
        <time>2011-02-19T13:48:27Z</time>
      </trkpt>
      <trkpt lat="42.62188" lon="0.91457">
        <ele>2206.36</ele>
        <time>2011-02-19T13:48:30Z</time>
      </trkpt>
      <trkpt lat="42.62184" lon="0.91447">
        <ele>2207.32</ele>
        <time>2011-02-19T13:48:43Z</time>
      </trkpt>
      <trkpt lat="42.62184" lon="0.91446">
        <ele>2206.84</ele>
        <time>2011-02-19T13:48:44Z</time>
      </trkpt>
      <trkpt lat="42.62181" lon="0.91438">
        <ele>2208.77</ele>
        <time>2011-02-19T13:48:58Z</time>
      </trkpt>
      <trkpt lat="42.62177" lon="0.91426">
        <ele>2209.73</ele>
        <time>2011-02-19T13:49:10Z</time>
      </trkpt>
      <trkpt lat="42.62176" lon="0.91417">
        <ele>2211.65</ele>
        <time>2011-02-19T13:49:23Z</time>
      </trkpt>
      <trkpt lat="42.62174" lon="0.91406">
        <ele>2212.13</ele>
        <time>2011-02-19T13:49:35Z</time>
      </trkpt>
      <trkpt lat="42.62169" lon="0.91398">
        <ele>2213.57</ele>
        <time>2011-02-19T13:49:46Z</time>
      </trkpt>
      <trkpt lat="42.62162" lon="0.91388">
        <ele>2215.5</ele>
        <time>2011-02-19T13:50:01Z</time>
      </trkpt>
      <trkpt lat="42.62161" lon="0.91385">
        <ele>2215.5</ele>
        <time>2011-02-19T13:50:05Z</time>
      </trkpt>
      <trkpt lat="42.62159" lon="0.91378">
        <ele>2216.94</ele>
        <time>2011-02-19T13:50:12Z</time>
      </trkpt>
      <trkpt lat="42.62158" lon="0.91365">
        <ele>2216.94</ele>
        <time>2011-02-19T13:50:25Z</time>
      </trkpt>
      <trkpt lat="42.62155" lon="0.9135">
        <ele>2217.9</ele>
        <time>2011-02-19T13:50:39Z</time>
      </trkpt>
      <trkpt lat="42.62152" lon="0.91341">
        <ele>2218.38</ele>
        <time>2011-02-19T13:50:48Z</time>
      </trkpt>
      <trkpt lat="42.62153" lon="0.91336">
        <ele>2218.38</ele>
        <time>2011-02-19T13:50:52Z</time>
      </trkpt>
      <trkpt lat="42.6215" lon="0.91322">
        <ele>2218.38</ele>
        <time>2011-02-19T13:51:04Z</time>
      </trkpt>
      <trkpt lat="42.62148" lon="0.91309">
        <ele>2218.86</ele>
        <time>2011-02-19T13:51:16Z</time>
      </trkpt>
      <trkpt lat="42.62146" lon="0.91297">
        <ele>2218.86</ele>
        <time>2011-02-19T13:51:27Z</time>
      </trkpt>
      <trkpt lat="42.62144" lon="0.91291">
        <ele>2220.3</ele>
        <time>2011-02-19T13:51:34Z</time>
      </trkpt>
      <trkpt lat="42.6214" lon="0.91275">
        <ele>2220.3</ele>
        <time>2011-02-19T13:51:48Z</time>
      </trkpt>
      <trkpt lat="42.6214" lon="0.91274">
        <ele>2220.3</ele>
        <time>2011-02-19T13:51:49Z</time>
      </trkpt>
      <trkpt lat="42.62136" lon="0.91257">
        <ele>2220.3</ele>
        <time>2011-02-19T13:52:03Z</time>
      </trkpt>
      <trkpt lat="42.62135" lon="0.91249">
        <ele>2221.26</ele>
        <time>2011-02-19T13:52:10Z</time>
      </trkpt>
      <trkpt lat="42.62135" lon="0.91233">
        <ele>2222.22</ele>
        <time>2011-02-19T13:52:24Z</time>
      </trkpt>
      <trkpt lat="42.62135" lon="0.91222">
        <ele>2223.19</ele>
        <time>2011-02-19T13:52:34Z</time>
      </trkpt>
      <trkpt lat="42.62135" lon="0.91214">
        <ele>2222.71</ele>
        <time>2011-02-19T13:52:41Z</time>
      </trkpt>
      <trkpt lat="42.62134" lon="0.91205">
        <ele>2223.19</ele>
        <time>2011-02-19T13:52:50Z</time>
      </trkpt>
      <trkpt lat="42.62134" lon="0.91199">
        <ele>2223.19</ele>
        <time>2011-02-19T13:53:01Z</time>
      </trkpt>
      <trkpt lat="42.62134" lon="0.91186">
        <ele>2224.63</ele>
        <time>2011-02-19T13:53:15Z</time>
      </trkpt>
      <trkpt lat="42.62135" lon="0.91182">
        <ele>2225.11</ele>
        <time>2011-02-19T13:53:20Z</time>
      </trkpt>
      <trkpt lat="42.62136" lon="0.91165">
        <ele>2226.55</ele>
        <time>2011-02-19T13:53:35Z</time>
      </trkpt>
      <trkpt lat="42.62138" lon="0.91154">
        <ele>2227.99</ele>
        <time>2011-02-19T13:53:47Z</time>
      </trkpt>
      <trkpt lat="42.62139" lon="0.9115">
        <ele>2227.99</ele>
        <time>2011-02-19T13:53:50Z</time>
      </trkpt>
      <trkpt lat="42.6214" lon="0.91144">
        <ele>2228.95</ele>
        <time>2011-02-19T13:53:56Z</time>
      </trkpt>
      <trkpt lat="42.62143" lon="0.9113">
        <ele>2229.43</ele>
        <time>2011-02-19T13:54:11Z</time>
      </trkpt>
      <trkpt lat="42.62145" lon="0.91119">
        <ele>2231.36</ele>
        <time>2011-02-19T13:54:24Z</time>
      </trkpt>
      <trkpt lat="42.62144" lon="0.91118">
        <ele>2231.36</ele>
        <time>2011-02-19T13:54:26Z</time>
      </trkpt>
      <trkpt lat="42.62146" lon="0.91107">
        <ele>2231.36</ele>
        <time>2011-02-19T13:54:37Z</time>
      </trkpt>
      <trkpt lat="42.62147" lon="0.91102">
        <ele>2230.88</ele>
        <time>2011-02-19T13:54:42Z</time>
      </trkpt>
      <trkpt lat="42.62148" lon="0.91098">
        <ele>2230.88</ele>
        <time>2011-02-19T13:54:46Z</time>
      </trkpt>
      <trkpt lat="42.62149" lon="0.91087">
        <ele>2231.36</ele>
        <time>2011-02-19T13:54:58Z</time>
      </trkpt>
      <trkpt lat="42.62149" lon="0.91077">
        <ele>2232.32</ele>
        <time>2011-02-19T13:55:10Z</time>
      </trkpt>
      <trkpt lat="42.62149" lon="0.91062">
        <ele>2233.28</ele>
        <time>2011-02-19T13:55:22Z</time>
      </trkpt>
      <trkpt lat="42.62148" lon="0.9105">
        <ele>2234.24</ele>
        <time>2011-02-19T13:55:35Z</time>
      </trkpt>
      <trkpt lat="42.62148" lon="0.91047">
        <ele>2235.2</ele>
        <time>2011-02-19T13:55:38Z</time>
      </trkpt>
      <trkpt lat="42.62148" lon="0.91039">
        <ele>2235.68</ele>
        <time>2011-02-19T13:55:49Z</time>
      </trkpt>
      <trkpt lat="42.6215" lon="0.9103">
        <ele>2237.13</ele>
        <time>2011-02-19T13:56:03Z</time>
      </trkpt>
      <trkpt lat="42.62152" lon="0.91016">
        <ele>2238.57</ele>
        <time>2011-02-19T13:56:17Z</time>
      </trkpt>
      <trkpt lat="42.62153" lon="0.91006">
        <ele>2239.53</ele>
        <time>2011-02-19T13:56:29Z</time>
      </trkpt>
      <trkpt lat="42.62153" lon="0.90999">
        <ele>2240.49</ele>
        <time>2011-02-19T13:56:38Z</time>
      </trkpt>
      <trkpt lat="42.62154" lon="0.90992">
        <ele>2240.97</ele>
        <time>2011-02-19T13:56:46Z</time>
      </trkpt>
      <trkpt lat="42.62153" lon="0.90981">
        <ele>2242.41</ele>
        <time>2011-02-19T13:56:58Z</time>
      </trkpt>
      <trkpt lat="42.62154" lon="0.9097">
        <ele>2244.33</ele>
        <time>2011-02-19T13:57:09Z</time>
      </trkpt>
      <trkpt lat="42.62154" lon="0.90964">
        <ele>2245.3</ele>
        <time>2011-02-19T13:57:19Z</time>
      </trkpt>
      <trkpt lat="42.62155" lon="0.90955">
        <ele>2247.22</ele>
        <time>2011-02-19T13:57:32Z</time>
      </trkpt>
      <trkpt lat="42.62155" lon="0.9094">
        <ele>2247.22</ele>
        <time>2011-02-19T13:57:44Z</time>
      </trkpt>
      <trkpt lat="42.62154" lon="0.90931">
        <ele>2249.14</ele>
        <time>2011-02-19T13:57:58Z</time>
      </trkpt>
      <trkpt lat="42.62153" lon="0.90924">
        <ele>2250.58</ele>
        <time>2011-02-19T13:58:07Z</time>
      </trkpt>
      <trkpt lat="42.62152" lon="0.90914">
        <ele>2252.03</ele>
        <time>2011-02-19T13:58:22Z</time>
      </trkpt>
      <trkpt lat="42.62151" lon="0.90902">
        <ele>2252.51</ele>
        <time>2011-02-19T13:58:33Z</time>
      </trkpt>
      <trkpt lat="42.6215" lon="0.90895">
        <ele>2254.43</ele>
        <time>2011-02-19T13:58:43Z</time>
      </trkpt>
      <trkpt lat="42.6215" lon="0.90888">
        <ele>2255.87</ele>
        <time>2011-02-19T13:58:55Z</time>
      </trkpt>
      <trkpt lat="42.62151" lon="0.9088">
        <ele>2256.83</ele>
        <time>2011-02-19T13:59:08Z</time>
      </trkpt>
      <trkpt lat="42.62152" lon="0.90873">
        <ele>2258.27</ele>
        <time>2011-02-19T13:59:23Z</time>
      </trkpt>
      <trkpt lat="42.62152" lon="0.90871">
        <ele>2258.75</ele>
        <time>2011-02-19T13:59:40Z</time>
      </trkpt>
      <trkpt lat="42.62152" lon="0.90871">
        <ele>2258.75</ele>
        <time>2011-02-19T14:00:19Z</time>
      </trkpt>
      <trkpt lat="42.62152" lon="0.90869">
        <ele>2259.72</ele>
        <time>2011-02-19T14:02:29Z</time>
      </trkpt>
      <trkpt lat="42.62152" lon="0.90868">
        <ele>2259.72</ele>
        <time>2011-02-19T14:02:47Z</time>
      </trkpt>
      <trkpt lat="42.62152" lon="0.90869">
        <ele>2259.72</ele>
        <time>2011-02-19T14:03:28Z</time>
      </trkpt>
      <trkpt lat="42.62152" lon="0.90868">
        <ele>2260.68</ele>
        <time>2011-02-19T14:03:38Z</time>
      </trkpt>
      <trkpt lat="42.62153" lon="0.90865">
        <ele>2261.64</ele>
        <time>2011-02-19T14:03:46Z</time>
      </trkpt>
      <trkpt lat="42.62157" lon="0.90855">
        <ele>2263.08</ele>
        <time>2011-02-19T14:03:59Z</time>
      </trkpt>
      <trkpt lat="42.62162" lon="0.90843">
        <ele>2264.52</ele>
        <time>2011-02-19T14:04:13Z</time>
      </trkpt>
      <trkpt lat="42.62163" lon="0.90838">
        <ele>2265.48</ele>
        <time>2011-02-19T14:04:27Z</time>
      </trkpt>
      <trkpt lat="42.62165" lon="0.90833">
        <ele>2266.93</ele>
        <time>2011-02-19T14:04:39Z</time>
      </trkpt>
      <trkpt lat="42.62167" lon="0.90823">
        <ele>2270.29</ele>
        <time>2011-02-19T14:04:54Z</time>
      </trkpt>
      <trkpt lat="42.62168" lon="0.90814">
        <ele>2270.29</ele>
        <time>2011-02-19T14:05:05Z</time>
      </trkpt>
      <trkpt lat="42.62168" lon="0.90806">
        <ele>2272.21</ele>
        <time>2011-02-19T14:05:17Z</time>
      </trkpt>
      <trkpt lat="42.62168" lon="0.90797">
        <ele>2273.17</ele>
        <time>2011-02-19T14:05:28Z</time>
      </trkpt>
      <trkpt lat="42.62168" lon="0.90793">
        <ele>2275.58</ele>
        <time>2011-02-19T14:05:41Z</time>
      </trkpt>
      <trkpt lat="42.62168" lon="0.90793">
        <ele>2275.58</ele>
        <time>2011-02-19T14:06:03Z</time>
      </trkpt>
      <trkpt lat="42.62168" lon="0.9079">
        <ele>2276.54</ele>
        <time>2011-02-19T14:06:06Z</time>
      </trkpt>
      <trkpt lat="42.62168" lon="0.90783">
        <ele>2277.5</ele>
        <time>2011-02-19T14:06:12Z</time>
      </trkpt>
      <trkpt lat="42.62167" lon="0.90773">
        <ele>2278.46</ele>
        <time>2011-02-19T14:06:25Z</time>
      </trkpt>
      <trkpt lat="42.62166" lon="0.90769">
        <ele>2278.94</ele>
        <time>2011-02-19T14:06:37Z</time>
      </trkpt>
      <trkpt lat="42.62167" lon="0.9077">
        <ele>2279.42</ele>
        <time>2011-02-19T14:06:38Z</time>
      </trkpt>
      <trkpt lat="42.62176" lon="0.90776">
        <ele>2281.83</ele>
        <time>2011-02-19T14:06:50Z</time>
      </trkpt>
      <trkpt lat="42.6218" lon="0.90778">
        <ele>2283.27</ele>
        <time>2011-02-19T14:07:02Z</time>
      </trkpt>
      <trkpt lat="42.62182" lon="0.90779">
        <ele>2284.71</ele>
        <time>2011-02-19T14:07:14Z</time>
      </trkpt>
      <trkpt lat="42.62181" lon="0.90776">
        <ele>2285.67</ele>
        <time>2011-02-19T14:07:17Z</time>
      </trkpt>
      <trkpt lat="42.62181" lon="0.90768">
        <ele>2287.11</ele>
        <time>2011-02-19T14:07:30Z</time>
      </trkpt>
      <trkpt lat="42.6218" lon="0.90765">
        <ele>2288.56</ele>
        <time>2011-02-19T14:07:49Z</time>
      </trkpt>
      <trkpt lat="42.6218" lon="0.90761">
        <ele>2289.52</ele>
        <time>2011-02-19T14:08:00Z</time>
      </trkpt>
      <trkpt lat="42.62181" lon="0.90761">
        <ele>2289.52</ele>
        <time>2011-02-19T14:08:03Z</time>
      </trkpt>
      <trkpt lat="42.62186" lon="0.90763">
        <ele>2290</ele>
        <time>2011-02-19T14:08:08Z</time>
      </trkpt>
      <trkpt lat="42.62194" lon="0.90764">
        <ele>2291.44</ele>
        <time>2011-02-19T14:08:20Z</time>
      </trkpt>
      <trkpt lat="42.62198" lon="0.90766">
        <ele>2292.88</ele>
        <time>2011-02-19T14:08:31Z</time>
      </trkpt>
      <trkpt lat="42.62201" lon="0.90768">
        <ele>2294.32</ele>
        <time>2011-02-19T14:08:42Z</time>
      </trkpt>
      <trkpt lat="42.62199" lon="0.90766">
        <ele>2296.25</ele>
        <time>2011-02-19T14:08:49Z</time>
      </trkpt>
      <trkpt lat="42.62198" lon="0.9076">
        <ele>2297.69</ele>
        <time>2011-02-19T14:09:02Z</time>
      </trkpt>
      <trkpt lat="42.62196" lon="0.90752">
        <ele>2299.13</ele>
        <time>2011-02-19T14:09:14Z</time>
      </trkpt>
      <trkpt lat="42.62196" lon="0.90748">
        <ele>2300.09</ele>
        <time>2011-02-19T14:09:28Z</time>
      </trkpt>
      <trkpt lat="42.62196" lon="0.90745">
        <ele>2301.05</ele>
        <time>2011-02-19T14:09:38Z</time>
      </trkpt>
      <trkpt lat="42.62193" lon="0.90733">
        <ele>2303.94</ele>
        <time>2011-02-19T14:09:51Z</time>
      </trkpt>
      <trkpt lat="42.62193" lon="0.90733">
        <ele>2303.94</ele>
        <time>2011-02-19T14:10:07Z</time>
      </trkpt>
      <trkpt lat="42.62193" lon="0.9073">
        <ele>2304.9</ele>
        <time>2011-02-19T14:10:11Z</time>
      </trkpt>
      <trkpt lat="42.62192" lon="0.90727">
        <ele>2306.34</ele>
        <time>2011-02-19T14:10:23Z</time>
      </trkpt>
      <trkpt lat="42.622" lon="0.90729">
        <ele>2307.3</ele>
        <time>2011-02-19T14:10:35Z</time>
      </trkpt>
      <trkpt lat="42.62207" lon="0.90731">
        <ele>2308.74</ele>
        <time>2011-02-19T14:10:46Z</time>
      </trkpt>
      <trkpt lat="42.62212" lon="0.90734">
        <ele>2311.15</ele>
        <time>2011-02-19T14:11:03Z</time>
      </trkpt>
      <trkpt lat="42.6222" lon="0.90739">
        <ele>2312.59</ele>
        <time>2011-02-19T14:11:12Z</time>
      </trkpt>
      <trkpt lat="42.62226" lon="0.90744">
        <ele>2314.03</ele>
        <time>2011-02-19T14:11:25Z</time>
      </trkpt>
      <trkpt lat="42.62227" lon="0.90745">
        <ele>2314.51</ele>
        <time>2011-02-19T14:11:30Z</time>
      </trkpt>
      <trkpt lat="42.62229" lon="0.90742">
        <ele>2316.43</ele>
        <time>2011-02-19T14:11:41Z</time>
      </trkpt>
      <trkpt lat="42.62227" lon="0.9073">
        <ele>2316.91</ele>
        <time>2011-02-19T14:11:53Z</time>
      </trkpt>
      <trkpt lat="42.62226" lon="0.90724">
        <ele>2319.8</ele>
        <time>2011-02-19T14:12:06Z</time>
      </trkpt>
      <trkpt lat="42.62225" lon="0.90719">
        <ele>2321.72</ele>
        <time>2011-02-19T14:12:17Z</time>
      </trkpt>
      <trkpt lat="42.62223" lon="0.90713">
        <ele>2322.2</ele>
        <time>2011-02-19T14:12:26Z</time>
      </trkpt>
      <trkpt lat="42.62223" lon="0.90706">
        <ele>2323.64</ele>
        <time>2011-02-19T14:12:38Z</time>
      </trkpt>
      <trkpt lat="42.62221" lon="0.90701">
        <ele>2324.61</ele>
        <time>2011-02-19T14:12:48Z</time>
      </trkpt>
      <trkpt lat="42.6222" lon="0.90696">
        <ele>2326.53</ele>
        <time>2011-02-19T14:13:02Z</time>
      </trkpt>
      <trkpt lat="42.62218" lon="0.90687">
        <ele>2327.97</ele>
        <time>2011-02-19T14:13:13Z</time>
      </trkpt>
      <trkpt lat="42.62216" lon="0.90681">
        <ele>2330.85</ele>
        <time>2011-02-19T14:13:26Z</time>
      </trkpt>
      <trkpt lat="42.62215" lon="0.90676">
        <ele>2331.81</ele>
        <time>2011-02-19T14:13:36Z</time>
      </trkpt>
      <trkpt lat="42.62213" lon="0.9067">
        <ele>2333.74</ele>
        <time>2011-02-19T14:13:50Z</time>
      </trkpt>
      <trkpt lat="42.62212" lon="0.90664">
        <ele>2334.22</ele>
        <time>2011-02-19T14:14:02Z</time>
      </trkpt>
      <trkpt lat="42.62212" lon="0.90663">
        <ele>2335.18</ele>
        <time>2011-02-19T14:14:06Z</time>
      </trkpt>
      <trkpt lat="42.62213" lon="0.9066">
        <ele>2335.66</ele>
        <time>2011-02-19T14:14:18Z</time>
      </trkpt>
      <trkpt lat="42.62221" lon="0.90662">
        <ele>2338.54</ele>
        <time>2011-02-19T14:14:32Z</time>
      </trkpt>
      <trkpt lat="42.6222" lon="0.90655">
        <ele>2340.47</ele>
        <time>2011-02-19T14:14:43Z</time>
      </trkpt>
      <trkpt lat="42.62218" lon="0.90642">
        <ele>2341.91</ele>
        <time>2011-02-19T14:14:58Z</time>
      </trkpt>
      <trkpt lat="42.62217" lon="0.90637">
        <ele>2343.83</ele>
        <time>2011-02-19T14:15:11Z</time>
      </trkpt>
      <trkpt lat="42.62216" lon="0.90633">
        <ele>2344.79</ele>
        <time>2011-02-19T14:15:16Z</time>
      </trkpt>
      <trkpt lat="42.62215" lon="0.90623">
        <ele>2345.75</ele>
        <time>2011-02-19T14:15:32Z</time>
      </trkpt>
      <trkpt lat="42.62214" lon="0.90618">
        <ele>2347.68</ele>
        <time>2011-02-19T14:15:44Z</time>
      </trkpt>
      <trkpt lat="42.62213" lon="0.90618">
        <ele>2348.64</ele>
        <time>2011-02-19T14:15:46Z</time>
      </trkpt>
      <trkpt lat="42.6221" lon="0.9061">
        <ele>2350.56</ele>
        <time>2011-02-19T14:15:59Z</time>
      </trkpt>
      <trkpt lat="42.6221" lon="0.90606">
        <ele>2352.96</ele>
        <time>2011-02-19T14:16:08Z</time>
      </trkpt>
      <trkpt lat="42.62207" lon="0.90598">
        <ele>2353.44</ele>
        <time>2011-02-19T14:16:21Z</time>
      </trkpt>
      <trkpt lat="42.62205" lon="0.90595">
        <ele>2353.93</ele>
        <time>2011-02-19T14:16:34Z</time>
      </trkpt>
      <trkpt lat="42.62203" lon="0.90591">
        <ele>2354.41</ele>
        <time>2011-02-19T14:16:41Z</time>
      </trkpt>
      <trkpt lat="42.62202" lon="0.90585">
        <ele>2354.89</ele>
        <time>2011-02-19T14:16:50Z</time>
      </trkpt>
      <trkpt lat="42.62207" lon="0.90586">
        <ele>2356.81</ele>
        <time>2011-02-19T14:17:02Z</time>
      </trkpt>
      <trkpt lat="42.62207" lon="0.90586">
        <ele>2355.85</ele>
        <time>2011-02-19T14:17:04Z</time>
      </trkpt>
      <trkpt lat="42.62207" lon="0.90577">
        <ele>2359.69</ele>
        <time>2011-02-19T14:17:16Z</time>
      </trkpt>
      <trkpt lat="42.62204" lon="0.90568">
        <ele>2360.65</ele>
        <time>2011-02-19T14:17:32Z</time>
      </trkpt>
      <trkpt lat="42.62204" lon="0.90568">
        <ele>2360.65</ele>
        <time>2011-02-19T14:17:33Z</time>
      </trkpt>
      <trkpt lat="42.62201" lon="0.9056">
        <ele>2362.58</ele>
        <time>2011-02-19T14:17:44Z</time>
      </trkpt>
      <trkpt lat="42.62196" lon="0.90553">
        <ele>2363.54</ele>
        <time>2011-02-19T14:17:57Z</time>
      </trkpt>
      <trkpt lat="42.62193" lon="0.90545">
        <ele>2365.46</ele>
        <time>2011-02-19T14:18:14Z</time>
      </trkpt>
      <trkpt lat="42.62189" lon="0.90539">
        <ele>2366.42</ele>
        <time>2011-02-19T14:18:25Z</time>
      </trkpt>
      <trkpt lat="42.62188" lon="0.90533">
        <ele>2367.86</ele>
        <time>2011-02-19T14:18:37Z</time>
      </trkpt>
      <trkpt lat="42.62185" lon="0.90528">
        <ele>2368.83</ele>
        <time>2011-02-19T14:18:48Z</time>
      </trkpt>
      <trkpt lat="42.62185" lon="0.90528">
        <ele>2368.83</ele>
        <time>2011-02-19T14:18:50Z</time>
      </trkpt>
      <trkpt lat="42.62189" lon="0.90525">
        <ele>2369.31</ele>
        <time>2011-02-19T14:18:59Z</time>
      </trkpt>
      <trkpt lat="42.62197" lon="0.90522">
        <ele>2371.71</ele>
        <time>2011-02-19T14:19:14Z</time>
      </trkpt>
      <trkpt lat="42.62203" lon="0.90513">
        <ele>2373.63</ele>
        <time>2011-02-19T14:19:27Z</time>
      </trkpt>
      <trkpt lat="42.62201" lon="0.90503">
        <ele>2375.07</ele>
        <time>2011-02-19T14:19:40Z</time>
      </trkpt>
      <trkpt lat="42.62198" lon="0.90496">
        <ele>2377</ele>
        <time>2011-02-19T14:19:54Z</time>
      </trkpt>
      <trkpt lat="42.62198" lon="0.9049">
        <ele>2378.92</ele>
        <time>2011-02-19T14:20:08Z</time>
      </trkpt>
      <trkpt lat="42.62197" lon="0.90486">
        <ele>2380.36</ele>
        <time>2011-02-19T14:20:18Z</time>
      </trkpt>
      <trkpt lat="42.62195" lon="0.9048">
        <ele>2381.32</ele>
        <time>2011-02-19T14:20:29Z</time>
      </trkpt>
      <trkpt lat="42.62193" lon="0.90472">
        <ele>2382.76</ele>
        <time>2011-02-19T14:20:41Z</time>
      </trkpt>
      <trkpt lat="42.62192" lon="0.90466">
        <ele>2383.73</ele>
        <time>2011-02-19T14:20:53Z</time>
      </trkpt>
      <trkpt lat="42.62191" lon="0.9046">
        <ele>2386.13</ele>
        <time>2011-02-19T14:21:04Z</time>
      </trkpt>
      <trkpt lat="42.62192" lon="0.90458">
        <ele>2386.61</ele>
        <time>2011-02-19T14:21:13Z</time>
      </trkpt>
      <trkpt lat="42.62191" lon="0.90455">
        <ele>2388.53</ele>
        <time>2011-02-19T14:21:26Z</time>
      </trkpt>
      <trkpt lat="42.62186" lon="0.90446">
        <ele>2389.01</ele>
        <time>2011-02-19T14:21:39Z</time>
      </trkpt>
      <trkpt lat="42.62184" lon="0.90445">
        <ele>2390.94</ele>
        <time>2011-02-19T14:21:50Z</time>
      </trkpt>
      <trkpt lat="42.62183" lon="0.90445">
        <ele>2391.9</ele>
        <time>2011-02-19T14:22:04Z</time>
      </trkpt>
      <trkpt lat="42.62174" lon="0.9044">
        <ele>2393.34</ele>
        <time>2011-02-19T14:22:17Z</time>
      </trkpt>
      <trkpt lat="42.62172" lon="0.90439">
        <ele>2394.78</ele>
        <time>2011-02-19T14:22:34Z</time>
      </trkpt>
      <trkpt lat="42.62163" lon="0.90436">
        <ele>2396.7</ele>
        <time>2011-02-19T14:22:47Z</time>
      </trkpt>
      <trkpt lat="42.62163" lon="0.90436">
        <ele>2399.11</ele>
        <time>2011-02-19T14:23:01Z</time>
      </trkpt>
      <trkpt lat="42.6216" lon="0.90436">
        <ele>2399.59</ele>
        <time>2011-02-19T14:23:12Z</time>
      </trkpt>
      <trkpt lat="42.62158" lon="0.90425">
        <ele>2401.99</ele>
        <time>2011-02-19T14:23:22Z</time>
      </trkpt>
      <trkpt lat="42.62157" lon="0.90413">
        <ele>2403.43</ele>
        <time>2011-02-19T14:23:34Z</time>
      </trkpt>
      <trkpt lat="42.62158" lon="0.90412">
        <ele>2403.91</ele>
        <time>2011-02-19T14:23:47Z</time>
      </trkpt>
      <trkpt lat="42.62161" lon="0.90404">
        <ele>2406.8</ele>
        <time>2011-02-19T14:23:59Z</time>
      </trkpt>
      <trkpt lat="42.62164" lon="0.90399">
        <ele>2406.8</ele>
        <time>2011-02-19T14:24:12Z</time>
      </trkpt>
      <trkpt lat="42.62169" lon="0.90393">
        <ele>2409.2</ele>
        <time>2011-02-19T14:24:24Z</time>
      </trkpt>
      <trkpt lat="42.6217" lon="0.90392">
        <ele>2410.64</ele>
        <time>2011-02-19T14:24:45Z</time>
      </trkpt>
      <trkpt lat="42.62174" lon="0.90385">
        <ele>2411.6</ele>
        <time>2011-02-19T14:25:04Z</time>
      </trkpt>
      <trkpt lat="42.62176" lon="0.90379">
        <ele>2411.6</ele>
        <time>2011-02-19T14:25:19Z</time>
      </trkpt>
      <trkpt lat="42.62178" lon="0.90374">
        <ele>2413.53</ele>
        <time>2011-02-19T14:25:28Z</time>
      </trkpt>
      <trkpt lat="42.62173" lon="0.90364">
        <ele>2414.97</ele>
        <time>2011-02-19T14:25:41Z</time>
      </trkpt>
      <trkpt lat="42.62171" lon="0.90351">
        <ele>2416.41</ele>
        <time>2011-02-19T14:25:54Z</time>
      </trkpt>
      <trkpt lat="42.6217" lon="0.90345">
        <ele>2417.85</ele>
        <time>2011-02-19T14:26:10Z</time>
      </trkpt>
      <trkpt lat="42.62168" lon="0.90336">
        <ele>2419.78</ele>
        <time>2011-02-19T14:26:22Z</time>
      </trkpt>
      <trkpt lat="42.62168" lon="0.90335">
        <ele>2419.3</ele>
        <time>2011-02-19T14:26:42Z</time>
      </trkpt>
      <trkpt lat="42.62168" lon="0.90336">
        <ele>2420.26</ele>
        <time>2011-02-19T14:27:34Z</time>
      </trkpt>
      <trkpt lat="42.62168" lon="0.90336">
        <ele>2419.78</ele>
        <time>2011-02-19T14:28:12Z</time>
      </trkpt>
      <trkpt lat="42.62167" lon="0.90335">
        <ele>2419.78</ele>
        <time>2011-02-19T14:28:42Z</time>
      </trkpt>
      <trkpt lat="42.62167" lon="0.90334">
        <ele>2419.3</ele>
        <time>2011-02-19T14:29:22Z</time>
      </trkpt>
      <trkpt lat="42.62167" lon="0.90334">
        <ele>2419.3</ele>
        <time>2011-02-19T14:29:46Z</time>
      </trkpt>
      <trkpt lat="42.62168" lon="0.90334">
        <ele>2419.78</ele>
        <time>2011-02-19T14:30:13Z</time>
      </trkpt>
      <trkpt lat="42.62168" lon="0.90334">
        <ele>2419.78</ele>
        <time>2011-02-19T14:31:11Z</time>
      </trkpt>
      <trkpt lat="42.62167" lon="0.90333">
        <ele>2419.78</ele>
        <time>2011-02-19T14:32:04Z</time>
      </trkpt>
      <trkpt lat="42.62167" lon="0.90333">
        <ele>2419.78</ele>
        <time>2011-02-19T14:32:33Z</time>
      </trkpt>
      <trkpt lat="42.62166" lon="0.90333">
        <ele>2419.78</ele>
        <time>2011-02-19T14:32:42Z</time>
      </trkpt>
      <trkpt lat="42.62166" lon="0.90333">
        <ele>2418.81</ele>
        <time>2011-02-19T14:33:37Z</time>
      </trkpt>
      <trkpt lat="42.62166" lon="0.90334">
        <ele>2418.81</ele>
        <time>2011-02-19T14:33:59Z</time>
      </trkpt>
      <trkpt lat="42.62166" lon="0.90333">
        <ele>2419.78</ele>
        <time>2011-02-19T14:34:18Z</time>
      </trkpt>
      <trkpt lat="42.62166" lon="0.90327">
        <ele>2420.74</ele>
        <time>2011-02-19T14:34:45Z</time>
      </trkpt>
      <trkpt lat="42.62165" lon="0.90322">
        <ele>2422.18</ele>
        <time>2011-02-19T14:34:59Z</time>
      </trkpt>
      <trkpt lat="42.62162" lon="0.90312">
        <ele>2426.02</ele>
        <time>2011-02-19T14:35:12Z</time>
      </trkpt>
      <trkpt lat="42.62158" lon="0.90308">
        <ele>2426.5</ele>
        <time>2011-02-19T14:35:25Z</time>
      </trkpt>
      <trkpt lat="42.62151" lon="0.90306">
        <ele>2428.91</ele>
        <time>2011-02-19T14:35:41Z</time>
      </trkpt>
      <trkpt lat="42.62149" lon="0.90305">
        <ele>2431.79</ele>
        <time>2011-02-19T14:35:52Z</time>
      </trkpt>
      <trkpt lat="42.62149" lon="0.90305">
        <ele>2431.31</ele>
        <time>2011-02-19T14:35:53Z</time>
      </trkpt>
      <trkpt lat="42.62147" lon="0.90302">
        <ele>2431.79</ele>
        <time>2011-02-19T14:36:03Z</time>
      </trkpt>
      <trkpt lat="42.62151" lon="0.90291">
        <ele>2434.68</ele>
        <time>2011-02-19T14:36:19Z</time>
      </trkpt>
      <trkpt lat="42.62152" lon="0.90287">
        <ele>2435.16</ele>
        <time>2011-02-19T14:36:23Z</time>
      </trkpt>
      <trkpt lat="42.62158" lon="0.9028">
        <ele>2437.08</ele>
        <time>2011-02-19T14:36:36Z</time>
      </trkpt>
      <trkpt lat="42.62159" lon="0.90274">
        <ele>2437.56</ele>
        <time>2011-02-19T14:36:42Z</time>
      </trkpt>
      <trkpt lat="42.62163" lon="0.90267">
        <ele>2439.48</ele>
        <time>2011-02-19T14:36:56Z</time>
      </trkpt>
      <trkpt lat="42.62167" lon="0.90256">
        <ele>2441.41</ele>
        <time>2011-02-19T14:37:10Z</time>
      </trkpt>
      <trkpt lat="42.62168" lon="0.90247">
        <ele>2442.85</ele>
        <time>2011-02-19T14:37:21Z</time>
      </trkpt>
      <trkpt lat="42.62169" lon="0.9024">
        <ele>2443.81</ele>
        <time>2011-02-19T14:37:36Z</time>
      </trkpt>
      <trkpt lat="42.62169" lon="0.90231">
        <ele>2445.73</ele>
        <time>2011-02-19T14:37:51Z</time>
      </trkpt>
      <trkpt lat="42.62168" lon="0.90218">
        <ele>2448.62</ele>
        <time>2011-02-19T14:38:06Z</time>
      </trkpt>
      <trkpt lat="42.6217" lon="0.90217">
        <ele>2449.58</ele>
        <time>2011-02-19T14:38:15Z</time>
      </trkpt>
      <trkpt lat="42.62173" lon="0.90216">
        <ele>2451.5</ele>
        <time>2011-02-19T14:38:24Z</time>
      </trkpt>
      <trkpt lat="42.62178" lon="0.90211">
        <ele>2452.94</ele>
        <time>2011-02-19T14:38:35Z</time>
      </trkpt>
      <trkpt lat="42.62179" lon="0.90203">
        <ele>2454.86</ele>
        <time>2011-02-19T14:38:50Z</time>
      </trkpt>
      <trkpt lat="42.62179" lon="0.90193">
        <ele>2456.31</ele>
        <time>2011-02-19T14:38:58Z</time>
      </trkpt>
      <trkpt lat="42.6218" lon="0.90182">
        <ele>2458.23</ele>
        <time>2011-02-19T14:39:12Z</time>
      </trkpt>
      <trkpt lat="42.62179" lon="0.90176">
        <ele>2460.15</ele>
        <time>2011-02-19T14:39:29Z</time>
      </trkpt>
      <trkpt lat="42.62179" lon="0.90162">
        <ele>2462.07</ele>
        <time>2011-02-19T14:39:43Z</time>
      </trkpt>
      <trkpt lat="42.6218" lon="0.90152">
        <ele>2464</ele>
        <time>2011-02-19T14:39:56Z</time>
      </trkpt>
      <trkpt lat="42.62181" lon="0.90145">
        <ele>2464.48</ele>
        <time>2011-02-19T14:40:08Z</time>
      </trkpt>
      <trkpt lat="42.62181" lon="0.90145">
        <ele>2464.48</ele>
        <time>2011-02-19T14:40:31Z</time>
      </trkpt>
      <trkpt lat="42.62181" lon="0.90145">
        <ele>2464.48</ele>
        <time>2011-02-19T14:40:48Z</time>
      </trkpt>
      <trkpt lat="42.62181" lon="0.90145">
        <ele>2461.11</ele>
        <time>2011-02-19T14:40:50Z</time>
      </trkpt>
      <trkpt lat="42.62181" lon="0.90145">
        <ele>2462.55</ele>
        <time>2011-02-19T14:40:51Z</time>
      </trkpt>
      <trkpt lat="42.62182" lon="0.90146">
        <ele>2463.52</ele>
        <time>2011-02-19T14:40:53Z</time>
      </trkpt>
      <trkpt lat="42.62183" lon="0.90138">
        <ele>2464.96</ele>
        <time>2011-02-19T14:41:03Z</time>
      </trkpt>
      <trkpt lat="42.62183" lon="0.90129">
        <ele>2464.96</ele>
        <time>2011-02-19T14:41:15Z</time>
      </trkpt>
      <trkpt lat="42.62183" lon="0.90125">
        <ele>2465.92</ele>
        <time>2011-02-19T14:41:45Z</time>
      </trkpt>
      <trkpt lat="42.62182" lon="0.90109">
        <ele>2466.88</ele>
        <time>2011-02-19T14:41:59Z</time>
      </trkpt>
      <trkpt lat="42.62182" lon="0.90107">
        <ele>2466.88</ele>
        <time>2011-02-19T14:42:01Z</time>
      </trkpt>
      <trkpt lat="42.62184" lon="0.90093">
        <ele>2466.88</ele>
        <time>2011-02-19T14:42:12Z</time>
      </trkpt>
      <trkpt lat="42.62182" lon="0.90087">
        <ele>2467.36</ele>
        <time>2011-02-19T14:42:18Z</time>
      </trkpt>
      <trkpt lat="42.62182" lon="0.9008">
        <ele>2468.8</ele>
        <time>2011-02-19T14:42:25Z</time>
      </trkpt>
      <trkpt lat="42.62181" lon="0.90069">
        <ele>2469.76</ele>
        <time>2011-02-19T14:42:36Z</time>
      </trkpt>
      <trkpt lat="42.62177" lon="0.90062">
        <ele>2471.21</ele>
        <time>2011-02-19T14:42:50Z</time>
      </trkpt>
      <trkpt lat="42.62177" lon="0.90062">
        <ele>2469.76</ele>
        <time>2011-02-19T14:42:53Z</time>
      </trkpt>
      <trkpt lat="42.62177" lon="0.90062">
        <ele>2470.73</ele>
        <time>2011-02-19T14:43:13Z</time>
      </trkpt>
      <trkpt lat="42.62176" lon="0.90062">
        <ele>2470.24</ele>
        <time>2011-02-19T14:43:37Z</time>
      </trkpt>
      <trkpt lat="42.62173" lon="0.90063">
        <ele>2471.21</ele>
        <time>2011-02-19T14:44:05Z</time>
      </trkpt>
      <trkpt lat="42.6217" lon="0.90062">
        <ele>2472.17</ele>
        <time>2011-02-19T14:44:09Z</time>
      </trkpt>
      <trkpt lat="42.6216" lon="0.90058">
        <ele>2472.65</ele>
        <time>2011-02-19T14:44:21Z</time>
      </trkpt>
      <trkpt lat="42.62154" lon="0.90054">
        <ele>2474.09</ele>
        <time>2011-02-19T14:44:32Z</time>
      </trkpt>
      <trkpt lat="42.62147" lon="0.90051">
        <ele>2475.05</ele>
        <time>2011-02-19T14:44:46Z</time>
      </trkpt>
      <trkpt lat="42.62141" lon="0.90049">
        <ele>2475.05</ele>
        <time>2011-02-19T14:44:57Z</time>
      </trkpt>
      <trkpt lat="42.62138" lon="0.9005">
        <ele>2476.01</ele>
        <time>2011-02-19T14:45:09Z</time>
      </trkpt>
      <trkpt lat="42.62137" lon="0.90052">
        <ele>2475.53</ele>
        <time>2011-02-19T14:45:13Z</time>
      </trkpt>
      <trkpt lat="42.62137" lon="0.90057">
        <ele>2476.01</ele>
        <time>2011-02-19T14:45:18Z</time>
      </trkpt>
      <trkpt lat="42.62142" lon="0.90064">
        <ele>2475.53</ele>
        <time>2011-02-19T14:45:25Z</time>
      </trkpt>
      <trkpt lat="42.62144" lon="0.90077">
        <ele>2476.01</ele>
        <time>2011-02-19T14:45:35Z</time>
      </trkpt>
      <trkpt lat="42.62146" lon="0.90079">
        <ele>2476.97</ele>
        <time>2011-02-19T14:45:40Z</time>
      </trkpt>
      <trkpt lat="42.6215" lon="0.90087">
        <ele>2478.42</ele>
        <time>2011-02-19T14:45:50Z</time>
      </trkpt>
      <trkpt lat="42.6215" lon="0.90088">
        <ele>2478.9</ele>
        <time>2011-02-19T14:45:51Z</time>
      </trkpt>
      <trkpt lat="42.62152" lon="0.90097">
        <ele>2479.38</ele>
        <time>2011-02-19T14:46:06Z</time>
      </trkpt>
      <trkpt lat="42.62152" lon="0.90097">
        <ele>2480.82</ele>
        <time>2011-02-19T14:46:08Z</time>
      </trkpt>
      <trkpt lat="42.62152" lon="0.90097">
        <ele>2479.38</ele>
        <time>2011-02-19T14:46:21Z</time>
      </trkpt>
      <trkpt lat="42.62152" lon="0.90097">
        <ele>2478.9</ele>
        <time>2011-02-19T14:46:36Z</time>
      </trkpt>
      <trkpt lat="42.62152" lon="0.90097">
        <ele>2479.38</ele>
        <time>2011-02-19T14:46:58Z</time>
      </trkpt>
      <trkpt lat="42.62152" lon="0.90098">
        <ele>2479.38</ele>
        <time>2011-02-19T14:47:18Z</time>
      </trkpt>
      <trkpt lat="42.62153" lon="0.90099">
        <ele>2477.94</ele>
        <time>2011-02-19T14:47:56Z</time>
      </trkpt>
      <trkpt lat="42.62152" lon="0.901">
        <ele>2479.38</ele>
        <time>2011-02-19T14:47:59Z</time>
      </trkpt>
      <trkpt lat="42.62152" lon="0.901">
        <ele>2477.94</ele>
        <time>2011-02-19T14:48:02Z</time>
      </trkpt>
      <trkpt lat="42.62152" lon="0.90101">
        <ele>2477.45</ele>
        <time>2011-02-19T14:54:06Z</time>
      </trkpt>
      <trkpt lat="42.62152" lon="0.90101">
        <ele>2479.86</ele>
        <time>2011-02-19T14:55:05Z</time>
      </trkpt>
      <trkpt lat="42.62152" lon="0.90101">
        <ele>2478.9</ele>
        <time>2011-02-19T14:55:08Z</time>
      </trkpt>
      <trkpt lat="42.62152" lon="0.90101">
        <ele>2477.94</ele>
        <time>2011-02-19T14:55:35Z</time>
      </trkpt>
      <trkpt lat="42.62153" lon="0.90099">
        <ele>2477.45</ele>
        <time>2011-02-19T14:57:16Z</time>
      </trkpt>
      <trkpt lat="42.62153" lon="0.90099">
        <ele>2473.61</ele>
        <time>2011-02-19T14:57:24Z</time>
      </trkpt>
      <trkpt lat="42.62153" lon="0.90099">
        <ele>2479.38</ele>
        <time>2011-02-19T14:57:26Z</time>
      </trkpt>
      <trkpt lat="42.62153" lon="0.90099">
        <ele>2477.94</ele>
        <time>2011-02-19T14:57:27Z</time>
      </trkpt>
      <trkpt lat="42.62153" lon="0.90099">
        <ele>2475.05</ele>
        <time>2011-02-19T14:57:29Z</time>
      </trkpt>
      <trkpt lat="42.62153" lon="0.90099">
        <ele>2477.94</ele>
        <time>2011-02-19T14:57:31Z</time>
      </trkpt>
      <trkpt lat="42.62153" lon="0.90099">
        <ele>2477.45</ele>
        <time>2011-02-19T14:57:32Z</time>
      </trkpt>
      <trkpt lat="42.62153" lon="0.90099">
        <ele>2480.82</ele>
        <time>2011-02-19T14:57:33Z</time>
      </trkpt>
      <trkpt lat="42.62153" lon="0.90099">
        <ele>2479.86</ele>
        <time>2011-02-19T14:57:34Z</time>
      </trkpt>
      <trkpt lat="42.62152" lon="0.90099">
        <ele>2478.42</ele>
        <time>2011-02-19T14:57:36Z</time>
      </trkpt>
      <trkpt lat="42.62152" lon="0.90099">
        <ele>2479.38</ele>
        <time>2011-02-19T14:57:46Z</time>
      </trkpt>
      <trkpt lat="42.62152" lon="0.90099">
        <ele>2478.9</ele>
        <time>2011-02-19T14:58:07Z</time>
      </trkpt>
      <trkpt lat="42.62152" lon="0.90099">
        <ele>2479.38</ele>
        <time>2011-02-19T14:58:29Z</time>
      </trkpt>
      <trkpt lat="42.62152" lon="0.90099">
        <ele>2477.94</ele>
        <time>2011-02-19T14:58:59Z</time>
      </trkpt>
      <trkpt lat="42.62152" lon="0.90099">
        <ele>2478.42</ele>
        <time>2011-02-19T14:59:22Z</time>
      </trkpt>
      <trkpt lat="42.62152" lon="0.90099">
        <ele>2479.86</ele>
        <time>2011-02-19T14:59:28Z</time>
      </trkpt>
      <trkpt lat="42.62152" lon="0.90099">
        <ele>2477.94</ele>
        <time>2011-02-19T14:59:43Z</time>
      </trkpt>
      <trkpt lat="42.62152" lon="0.90099">
        <ele>2478.42</ele>
        <time>2011-02-19T14:59:58Z</time>
      </trkpt>
      <trkpt lat="42.62153" lon="0.901">
        <ele>2477.94</ele>
        <time>2011-02-19T15:00:39Z</time>
      </trkpt>
      <trkpt lat="42.62152" lon="0.901">
        <ele>2477.94</ele>
        <time>2011-02-19T15:01:02Z</time>
      </trkpt>
      <trkpt lat="42.62152" lon="0.901">
        <ele>2478.42</ele>
        <time>2011-02-19T15:01:17Z</time>
      </trkpt>
      <trkpt lat="42.62152" lon="0.901">
        <ele>2477.45</ele>
        <time>2011-02-19T15:02:13Z</time>
      </trkpt>
      <trkpt lat="42.62152" lon="0.90099">
        <ele>2478.42</ele>
        <time>2011-02-19T15:02:32Z</time>
      </trkpt>
      <trkpt lat="42.62152" lon="0.90099">
        <ele>2478.42</ele>
        <time>2011-02-19T15:02:49Z</time>
      </trkpt>
      <trkpt lat="42.62152" lon="0.90099">
        <ele>2478.42</ele>
        <time>2011-02-19T15:02:50Z</time>
      </trkpt>
      <trkpt lat="42.6215" lon="0.90099">
        <ele>2478.9</ele>
        <time>2011-02-19T15:02:52Z</time>
      </trkpt>
      <trkpt lat="42.62142" lon="0.90106">
        <ele>2475.05</ele>
        <time>2011-02-19T15:02:55Z</time>
      </trkpt>
      <trkpt lat="42.62142" lon="0.90109">
        <ele>2475.05</ele>
        <time>2011-02-19T15:02:56Z</time>
      </trkpt>
      <trkpt lat="42.62139" lon="0.90115">
        <ele>2475.05</ele>
        <time>2011-02-19T15:03:07Z</time>
      </trkpt>
      <trkpt lat="42.62139" lon="0.90117">
        <ele>2475.05</ele>
        <time>2011-02-19T15:03:20Z</time>
      </trkpt>
      <trkpt lat="42.62134" lon="0.90136">
        <ele>2472.17</ele>
        <time>2011-02-19T15:03:26Z</time>
      </trkpt>
      <trkpt lat="42.62134" lon="0.90139">
        <ele>2472.65</ele>
        <time>2011-02-19T15:03:36Z</time>
      </trkpt>
      <trkpt lat="42.62137" lon="0.9014">
        <ele>2471.69</ele>
        <time>2011-02-19T15:03:48Z</time>
      </trkpt>
      <trkpt lat="42.62137" lon="0.9014">
        <ele>2472.65</ele>
        <time>2011-02-19T15:03:58Z</time>
      </trkpt>
      <trkpt lat="42.62137" lon="0.9014">
        <ele>2472.17</ele>
        <time>2011-02-19T15:04:08Z</time>
      </trkpt>
      <trkpt lat="42.62137" lon="0.9014">
        <ele>2472.65</ele>
        <time>2011-02-19T15:04:19Z</time>
      </trkpt>
      <trkpt lat="42.62137" lon="0.9014">
        <ele>2472.17</ele>
        <time>2011-02-19T15:04:23Z</time>
      </trkpt>
      <trkpt lat="42.62145" lon="0.90146">
        <ele>2469.76</ele>
        <time>2011-02-19T15:04:27Z</time>
      </trkpt>
      <trkpt lat="42.62147" lon="0.90146">
        <ele>2468.32</ele>
        <time>2011-02-19T15:04:34Z</time>
      </trkpt>
      <trkpt lat="42.6214" lon="0.90165">
        <ele>2464.96</ele>
        <time>2011-02-19T15:04:39Z</time>
      </trkpt>
      <trkpt lat="42.62136" lon="0.90182">
        <ele>2461.11</ele>
        <time>2011-02-19T15:04:42Z</time>
      </trkpt>
      <trkpt lat="42.62134" lon="0.90185">
        <ele>2459.19</ele>
        <time>2011-02-19T15:04:44Z</time>
      </trkpt>
      <trkpt lat="42.62134" lon="0.90185">
        <ele>2459.67</ele>
        <time>2011-02-19T15:04:51Z</time>
      </trkpt>
      <trkpt lat="42.62137" lon="0.90197">
        <ele>2458.23</ele>
        <time>2011-02-19T15:04:55Z</time>
      </trkpt>
      <trkpt lat="42.62138" lon="0.90208">
        <ele>2454.38</ele>
        <time>2011-02-19T15:04:57Z</time>
      </trkpt>
      <trkpt lat="42.6214" lon="0.9022">
        <ele>2451.98</ele>
        <time>2011-02-19T15:04:59Z</time>
      </trkpt>
      <trkpt lat="42.62142" lon="0.90232">
        <ele>2448.13</ele>
        <time>2011-02-19T15:05:01Z</time>
      </trkpt>
      <trkpt lat="42.62147" lon="0.90248">
        <ele>2445.73</ele>
        <time>2011-02-19T15:05:04Z</time>
      </trkpt>
      <trkpt lat="42.62147" lon="0.90251">
        <ele>2443.81</ele>
        <time>2011-02-19T15:05:05Z</time>
      </trkpt>
      <trkpt lat="42.62147" lon="0.90258">
        <ele>2443.33</ele>
        <time>2011-02-19T15:05:15Z</time>
      </trkpt>
      <trkpt lat="42.6215" lon="0.90257">
        <ele>2442.37</ele>
        <time>2011-02-19T15:05:30Z</time>
      </trkpt>
      <trkpt lat="42.6215" lon="0.90258">
        <ele>2442.85</ele>
        <time>2011-02-19T15:05:47Z</time>
      </trkpt>
      <trkpt lat="42.62149" lon="0.90257">
        <ele>2442.85</ele>
        <time>2011-02-19T15:05:59Z</time>
      </trkpt>
      <trkpt lat="42.6215" lon="0.90258">
        <ele>2442.85</ele>
        <time>2011-02-19T15:06:37Z</time>
      </trkpt>
      <trkpt lat="42.6215" lon="0.90258">
        <ele>2441.89</ele>
        <time>2011-02-19T15:07:16Z</time>
      </trkpt>
      <trkpt lat="42.6215" lon="0.90258">
        <ele>2442.85</ele>
        <time>2011-02-19T15:07:38Z</time>
      </trkpt>
      <trkpt lat="42.62151" lon="0.90257">
        <ele>2442.37</ele>
        <time>2011-02-19T15:07:50Z</time>
      </trkpt>
      <trkpt lat="42.62158" lon="0.90257">
        <ele>2441.89</ele>
        <time>2011-02-19T15:07:53Z</time>
      </trkpt>
      <trkpt lat="42.62172" lon="0.90273">
        <ele>2436.6</ele>
        <time>2011-02-19T15:07:57Z</time>
      </trkpt>
      <trkpt lat="42.62177" lon="0.90292">
        <ele>2431.79</ele>
        <time>2011-02-19T15:08:00Z</time>
      </trkpt>
      <trkpt lat="42.62178" lon="0.90299">
        <ele>2429.87</ele>
        <time>2011-02-19T15:08:01Z</time>
      </trkpt>
      <trkpt lat="42.6218" lon="0.90314">
        <ele>2426.5</ele>
        <time>2011-02-19T15:08:03Z</time>
      </trkpt>
      <trkpt lat="42.62183" lon="0.90332">
        <ele>2422.18</ele>
        <time>2011-02-19T15:08:06Z</time>
      </trkpt>
      <trkpt lat="42.6217" lon="0.9035">
        <ele>2416.41</ele>
        <time>2011-02-19T15:08:10Z</time>
      </trkpt>
      <trkpt lat="42.62168" lon="0.90351">
        <ele>2415.93</ele>
        <time>2011-02-19T15:08:11Z</time>
      </trkpt>
      <trkpt lat="42.62167" lon="0.90351">
        <ele>2415.93</ele>
        <time>2011-02-19T15:08:18Z</time>
      </trkpt>
      <trkpt lat="42.62159" lon="0.9038">
        <ele>2413.53</ele>
        <time>2011-02-19T15:08:30Z</time>
      </trkpt>
      <trkpt lat="42.62159" lon="0.90381">
        <ele>2413.53</ele>
        <time>2011-02-19T15:08:35Z</time>
      </trkpt>
      <trkpt lat="42.62159" lon="0.90398">
        <ele>2410.64</ele>
        <time>2011-02-19T15:08:39Z</time>
      </trkpt>
      <trkpt lat="42.62157" lon="0.90419">
        <ele>2404.39</ele>
        <time>2011-02-19T15:08:43Z</time>
      </trkpt>
      <trkpt lat="42.62166" lon="0.90421">
        <ele>2398.63</ele>
        <time>2011-02-19T15:08:46Z</time>
      </trkpt>
      <trkpt lat="42.62168" lon="0.90421">
        <ele>2398.63</ele>
        <time>2011-02-19T15:08:47Z</time>
      </trkpt>
      <trkpt lat="42.6217" lon="0.90438">
        <ele>2394.3</ele>
        <time>2011-02-19T15:08:51Z</time>
      </trkpt>
      <trkpt lat="42.6217" lon="0.90446">
        <ele>2394.3</ele>
        <time>2011-02-19T15:08:52Z</time>
      </trkpt>
      <trkpt lat="42.6217" lon="0.90453">
        <ele>2391.42</ele>
        <time>2011-02-19T15:08:53Z</time>
      </trkpt>
      <trkpt lat="42.62177" lon="0.90474">
        <ele>2386.13</ele>
        <time>2011-02-19T15:08:56Z</time>
      </trkpt>
      <trkpt lat="42.62182" lon="0.90487">
        <ele>2380.36</ele>
        <time>2011-02-19T15:08:58Z</time>
      </trkpt>
      <trkpt lat="42.62191" lon="0.9051">
        <ele>2374.11</ele>
        <time>2011-02-19T15:09:02Z</time>
      </trkpt>
      <trkpt lat="42.62194" lon="0.9051">
        <ele>2372.19</ele>
        <time>2011-02-19T15:09:11Z</time>
      </trkpt>
      <trkpt lat="42.62194" lon="0.9051">
        <ele>2372.67</ele>
        <time>2011-02-19T15:09:25Z</time>
      </trkpt>
      <trkpt lat="42.62194" lon="0.9051">
        <ele>2371.71</ele>
        <time>2011-02-19T15:09:56Z</time>
      </trkpt>
      <trkpt lat="42.62194" lon="0.90508">
        <ele>2372.19</ele>
        <time>2011-02-19T15:10:09Z</time>
      </trkpt>
      <trkpt lat="42.62186" lon="0.90513">
        <ele>2371.23</ele>
        <time>2011-02-19T15:10:19Z</time>
      </trkpt>
      <trkpt lat="42.62184" lon="0.90513">
        <ele>2370.75</ele>
        <time>2011-02-19T15:10:23Z</time>
      </trkpt>
      <trkpt lat="42.6218" lon="0.90514">
        <ele>2370.75</ele>
        <time>2011-02-19T15:10:26Z</time>
      </trkpt>
      <trkpt lat="42.62174" lon="0.90513">
        <ele>2370.75</ele>
        <time>2011-02-19T15:10:37Z</time>
      </trkpt>
      <trkpt lat="42.62173" lon="0.90511">
        <ele>2370.27</ele>
        <time>2011-02-19T15:10:48Z</time>
      </trkpt>
      <trkpt lat="42.62164" lon="0.90509">
        <ele>2368.83</ele>
        <time>2011-02-19T15:10:58Z</time>
      </trkpt>
      <trkpt lat="42.62162" lon="0.90508">
        <ele>2368.35</ele>
        <time>2011-02-19T15:11:10Z</time>
      </trkpt>
      <trkpt lat="42.62162" lon="0.90508">
        <ele>2368.83</ele>
        <time>2011-02-19T15:11:18Z</time>
      </trkpt>
      <trkpt lat="42.62158" lon="0.9052">
        <ele>2365.46</ele>
        <time>2011-02-19T15:11:22Z</time>
      </trkpt>
      <trkpt lat="42.62162" lon="0.90537">
        <ele>2359.21</ele>
        <time>2011-02-19T15:11:25Z</time>
      </trkpt>
      <trkpt lat="42.62162" lon="0.90542">
        <ele>2355.85</ele>
        <time>2011-02-19T15:11:26Z</time>
      </trkpt>
      <trkpt lat="42.6216" lon="0.90545">
        <ele>2356.81</ele>
        <time>2011-02-19T15:11:27Z</time>
      </trkpt>
      <trkpt lat="42.62157" lon="0.90545">
        <ele>2353.44</ele>
        <time>2011-02-19T15:11:30Z</time>
      </trkpt>
      <trkpt lat="42.62152" lon="0.90546">
        <ele>2353.44</ele>
        <time>2011-02-19T15:11:40Z</time>
      </trkpt>
      <trkpt lat="42.62141" lon="0.90558">
        <ele>2348.16</ele>
        <time>2011-02-19T15:11:43Z</time>
      </trkpt>
      <trkpt lat="42.62138" lon="0.90562">
        <ele>2346.72</ele>
        <time>2011-02-19T15:11:44Z</time>
      </trkpt>
      <trkpt lat="42.62134" lon="0.90571">
        <ele>2344.31</ele>
        <time>2011-02-19T15:11:46Z</time>
      </trkpt>
      <trkpt lat="42.62135" lon="0.9059">
        <ele>2339.99</ele>
        <time>2011-02-19T15:11:49Z</time>
      </trkpt>
      <trkpt lat="42.62135" lon="0.90597">
        <ele>2336.62</ele>
        <time>2011-02-19T15:11:50Z</time>
      </trkpt>
      <trkpt lat="42.62133" lon="0.90603">
        <ele>2332.3</ele>
        <time>2011-02-19T15:11:51Z</time>
      </trkpt>
      <trkpt lat="42.6213" lon="0.90605">
        <ele>2331.33</ele>
        <time>2011-02-19T15:11:53Z</time>
      </trkpt>
      <trkpt lat="42.6213" lon="0.90605">
        <ele>2330.85</ele>
        <time>2011-02-19T15:12:11Z</time>
      </trkpt>
      <trkpt lat="42.6213" lon="0.90604">
        <ele>2331.33</ele>
        <time>2011-02-19T15:12:59Z</time>
      </trkpt>
      <trkpt lat="42.6213" lon="0.90603">
        <ele>2330.85</ele>
        <time>2011-02-19T15:13:30Z</time>
      </trkpt>
      <trkpt lat="42.62131" lon="0.90602">
        <ele>2330.85</ele>
        <time>2011-02-19T15:14:22Z</time>
      </trkpt>
      <trkpt lat="42.62131" lon="0.90602">
        <ele>2330.37</ele>
        <time>2011-02-19T15:15:15Z</time>
      </trkpt>
      <trkpt lat="42.62144" lon="0.90619">
        <ele>2326.05</ele>
        <time>2011-02-19T15:15:20Z</time>
      </trkpt>
      <trkpt lat="42.62151" lon="0.9063">
        <ele>2321.24</ele>
        <time>2011-02-19T15:15:22Z</time>
      </trkpt>
      <trkpt lat="42.62152" lon="0.90646">
        <ele>2318.36</ele>
        <time>2011-02-19T15:15:24Z</time>
      </trkpt>
      <trkpt lat="42.62153" lon="0.90655">
        <ele>2314.99</ele>
        <time>2011-02-19T15:15:25Z</time>
      </trkpt>
      <trkpt lat="42.62153" lon="0.90664">
        <ele>2311.15</ele>
        <time>2011-02-19T15:15:26Z</time>
      </trkpt>
      <trkpt lat="42.6215" lon="0.90702">
        <ele>2299.13</ele>
        <time>2011-02-19T15:15:30Z</time>
      </trkpt>
      <trkpt lat="42.62147" lon="0.90704">
        <ele>2298.65</ele>
        <time>2011-02-19T15:15:36Z</time>
      </trkpt>
      <trkpt lat="42.62147" lon="0.90704">
        <ele>2297.21</ele>
        <time>2011-02-19T15:15:50Z</time>
      </trkpt>
      <trkpt lat="42.62147" lon="0.90704">
        <ele>2297.69</ele>
        <time>2011-02-19T15:16:06Z</time>
      </trkpt>
      <trkpt lat="42.62146" lon="0.90704">
        <ele>2297.69</ele>
        <time>2011-02-19T15:16:32Z</time>
      </trkpt>
      <trkpt lat="42.62146" lon="0.90705">
        <ele>2297.69</ele>
        <time>2011-02-19T15:16:42Z</time>
      </trkpt>
      <trkpt lat="42.62149" lon="0.90722">
        <ele>2293.84</ele>
        <time>2011-02-19T15:16:47Z</time>
      </trkpt>
      <trkpt lat="42.62157" lon="0.90733">
        <ele>2287.59</ele>
        <time>2011-02-19T15:16:49Z</time>
      </trkpt>
      <trkpt lat="42.62159" lon="0.90748">
        <ele>2283.27</ele>
        <time>2011-02-19T15:16:51Z</time>
      </trkpt>
      <trkpt lat="42.62159" lon="0.90757">
        <ele>2280.87</ele>
        <time>2011-02-19T15:16:52Z</time>
      </trkpt>
      <trkpt lat="42.6216" lon="0.90777">
        <ele>2274.62</ele>
        <time>2011-02-19T15:16:54Z</time>
      </trkpt>
      <trkpt lat="42.62159" lon="0.90806">
        <ele>2267.89</ele>
        <time>2011-02-19T15:16:57Z</time>
      </trkpt>
      <trkpt lat="42.62158" lon="0.90816">
        <ele>2265.48</ele>
        <time>2011-02-19T15:16:58Z</time>
      </trkpt>
      <trkpt lat="42.62154" lon="0.90836">
        <ele>2262.6</ele>
        <time>2011-02-19T15:17:00Z</time>
      </trkpt>
      <trkpt lat="42.62148" lon="0.90864">
        <ele>2257.79</ele>
        <time>2011-02-19T15:17:03Z</time>
      </trkpt>
      <trkpt lat="42.62142" lon="0.90888">
        <ele>2254.43</ele>
        <time>2011-02-19T15:17:06Z</time>
      </trkpt>
      <trkpt lat="42.62139" lon="0.90911">
        <ele>2250.1</ele>
        <time>2011-02-19T15:17:09Z</time>
      </trkpt>
      <trkpt lat="42.62139" lon="0.90938">
        <ele>2247.22</ele>
        <time>2011-02-19T15:17:13Z</time>
      </trkpt>
      <trkpt lat="42.62141" lon="0.90941">
        <ele>2245.78</ele>
        <time>2011-02-19T15:17:15Z</time>
      </trkpt>
      <trkpt lat="42.62142" lon="0.9094">
        <ele>2246.26</ele>
        <time>2011-02-19T15:17:29Z</time>
      </trkpt>
      <trkpt lat="42.62143" lon="0.9094">
        <ele>2246.26</ele>
        <time>2011-02-19T15:17:43Z</time>
      </trkpt>
      <trkpt lat="42.62142" lon="0.9094">
        <ele>2245.78</ele>
        <time>2011-02-19T15:17:59Z</time>
      </trkpt>
      <trkpt lat="42.62142" lon="0.9094">
        <ele>2246.26</ele>
        <time>2011-02-19T15:18:11Z</time>
      </trkpt>
      <trkpt lat="42.62142" lon="0.9094">
        <ele>2245.78</ele>
        <time>2011-02-19T15:18:31Z</time>
      </trkpt>
      <trkpt lat="42.62142" lon="0.9094">
        <ele>2245.78</ele>
        <time>2011-02-19T15:19:12Z</time>
      </trkpt>
      <trkpt lat="42.62142" lon="0.9094">
        <ele>2246.26</ele>
        <time>2011-02-19T15:19:36Z</time>
      </trkpt>
      <trkpt lat="42.62142" lon="0.9094">
        <ele>2245.3</ele>
        <time>2011-02-19T15:20:03Z</time>
      </trkpt>
      <trkpt lat="42.62142" lon="0.9094">
        <ele>2245.78</ele>
        <time>2011-02-19T15:20:25Z</time>
      </trkpt>
      <trkpt lat="42.6214" lon="0.90942">
        <ele>2244.82</ele>
        <time>2011-02-19T15:20:45Z</time>
      </trkpt>
      <trkpt lat="42.62139" lon="0.90948">
        <ele>2244.33</ele>
        <time>2011-02-19T15:20:57Z</time>
      </trkpt>
      <trkpt lat="42.62139" lon="0.90956">
        <ele>2243.37</ele>
        <time>2011-02-19T15:21:09Z</time>
      </trkpt>
      <trkpt lat="42.62138" lon="0.90961">
        <ele>2241.93</ele>
        <time>2011-02-19T15:21:13Z</time>
      </trkpt>
      <trkpt lat="42.62138" lon="0.9098">
        <ele>2240.01</ele>
        <time>2011-02-19T15:21:19Z</time>
      </trkpt>
      <trkpt lat="42.62139" lon="0.90986">
        <ele>2239.53</ele>
        <time>2011-02-19T15:21:21Z</time>
      </trkpt>
      <trkpt lat="42.62148" lon="0.91">
        <ele>2237.61</ele>
        <time>2011-02-19T15:21:26Z</time>
      </trkpt>
      <trkpt lat="42.62152" lon="0.91011">
        <ele>2237.61</ele>
        <time>2011-02-19T15:21:36Z</time>
      </trkpt>
      <trkpt lat="42.62154" lon="0.91025">
        <ele>2236.16</ele>
        <time>2011-02-19T15:21:47Z</time>
      </trkpt>
      <trkpt lat="42.62155" lon="0.91061">
        <ele>2233.28</ele>
        <time>2011-02-19T15:21:59Z</time>
      </trkpt>
      <trkpt lat="42.62152" lon="0.9108">
        <ele>2231.36</ele>
        <time>2011-02-19T15:22:03Z</time>
      </trkpt>
      <trkpt lat="42.62151" lon="0.91105">
        <ele>2229.43</ele>
        <time>2011-02-19T15:22:12Z</time>
      </trkpt>
      <trkpt lat="42.6215" lon="0.91109">
        <ele>2229.43</ele>
        <time>2011-02-19T15:22:25Z</time>
      </trkpt>
      <trkpt lat="42.62149" lon="0.91114">
        <ele>2229.92</ele>
        <time>2011-02-19T15:22:32Z</time>
      </trkpt>
      <trkpt lat="42.62143" lon="0.91143">
        <ele>2227.03</ele>
        <time>2011-02-19T15:22:41Z</time>
      </trkpt>
      <trkpt lat="42.6214" lon="0.91162">
        <ele>2225.59</ele>
        <time>2011-02-19T15:22:45Z</time>
      </trkpt>
      <trkpt lat="42.62136" lon="0.91189">
        <ele>2224.15</ele>
        <time>2011-02-19T15:22:50Z</time>
      </trkpt>
      <trkpt lat="42.62137" lon="0.91232">
        <ele>2220.78</ele>
        <time>2011-02-19T15:22:58Z</time>
      </trkpt>
      <trkpt lat="42.62141" lon="0.91272">
        <ele>2218.86</ele>
        <time>2011-02-19T15:23:07Z</time>
      </trkpt>
      <trkpt lat="42.62151" lon="0.91312">
        <ele>2218.38</ele>
        <time>2011-02-19T15:23:18Z</time>
      </trkpt>
      <trkpt lat="42.62155" lon="0.9134">
        <ele>2216.94</ele>
        <time>2011-02-19T15:23:28Z</time>
      </trkpt>
      <trkpt lat="42.62158" lon="0.91361">
        <ele>2216.94</ele>
        <time>2011-02-19T15:23:41Z</time>
      </trkpt>
      <trkpt lat="42.62158" lon="0.91361">
        <ele>2215.98</ele>
        <time>2011-02-19T15:23:57Z</time>
      </trkpt>
      <trkpt lat="42.62158" lon="0.91361">
        <ele>2215.98</ele>
        <time>2011-02-19T15:24:28Z</time>
      </trkpt>
      <trkpt lat="42.62158" lon="0.91361">
        <ele>2215.98</ele>
        <time>2011-02-19T15:25:11Z</time>
      </trkpt>
      <trkpt lat="42.62159" lon="0.91366">
        <ele>2215.5</ele>
        <time>2011-02-19T15:25:27Z</time>
      </trkpt>
      <trkpt lat="42.62161" lon="0.91377">
        <ele>2215.01</ele>
        <time>2011-02-19T15:25:37Z</time>
      </trkpt>
      <trkpt lat="42.62162" lon="0.91384">
        <ele>2214.05</ele>
        <time>2011-02-19T15:25:41Z</time>
      </trkpt>
      <trkpt lat="42.62164" lon="0.91416">
        <ele>2211.65</ele>
        <time>2011-02-19T15:25:51Z</time>
      </trkpt>
      <trkpt lat="42.62165" lon="0.91421">
        <ele>2210.21</ele>
        <time>2011-02-19T15:25:52Z</time>
      </trkpt>
      <trkpt lat="42.62178" lon="0.91473">
        <ele>2206.84</ele>
        <time>2011-02-19T15:25:58Z</time>
      </trkpt>
      <trkpt lat="42.62188" lon="0.91497">
        <ele>2203.48</ele>
        <time>2011-02-19T15:26:01Z</time>
      </trkpt>
      <trkpt lat="42.622" lon="0.91515">
        <ele>2202.04</ele>
        <time>2011-02-19T15:26:06Z</time>
      </trkpt>
      <trkpt lat="42.62217" lon="0.91523">
        <ele>2200.11</ele>
        <time>2011-02-19T15:26:10Z</time>
      </trkpt>
      <trkpt lat="42.62237" lon="0.91539">
        <ele>2199.63</ele>
        <time>2011-02-19T15:26:21Z</time>
      </trkpt>
      <trkpt lat="42.62242" lon="0.91545">
        <ele>2199.15</ele>
        <time>2011-02-19T15:26:26Z</time>
      </trkpt>
      <trkpt lat="42.62257" lon="0.91557">
        <ele>2199.15</ele>
        <time>2011-02-19T15:26:40Z</time>
      </trkpt>
      <trkpt lat="42.62271" lon="0.91588">
        <ele>2197.71</ele>
        <time>2011-02-19T15:26:52Z</time>
      </trkpt>
      <trkpt lat="42.62277" lon="0.91602">
        <ele>2197.23</ele>
        <time>2011-02-19T15:27:02Z</time>
      </trkpt>
      <trkpt lat="42.62281" lon="0.91618">
        <ele>2197.71</ele>
        <time>2011-02-19T15:27:14Z</time>
      </trkpt>
      <trkpt lat="42.62291" lon="0.9166">
        <ele>2194.35</ele>
        <time>2011-02-19T15:27:24Z</time>
      </trkpt>
      <trkpt lat="42.62293" lon="0.91668">
        <ele>2193.39</ele>
        <time>2011-02-19T15:27:25Z</time>
      </trkpt>
      <trkpt lat="42.62326" lon="0.91705">
        <ele>2189.06</ele>
        <time>2011-02-19T15:27:31Z</time>
      </trkpt>
      <trkpt lat="42.6234" lon="0.91714">
        <ele>2187.62</ele>
        <time>2011-02-19T15:27:34Z</time>
      </trkpt>
      <trkpt lat="42.62342" lon="0.91717">
        <ele>2186.66</ele>
        <time>2011-02-19T15:27:37Z</time>
      </trkpt>
      <trkpt lat="42.62345" lon="0.91718">
        <ele>2187.14</ele>
        <time>2011-02-19T15:27:42Z</time>
      </trkpt>
      <trkpt lat="42.62358" lon="0.91724">
        <ele>2185.69</ele>
        <time>2011-02-19T15:27:48Z</time>
      </trkpt>
      <trkpt lat="42.62373" lon="0.91751">
        <ele>2181.85</ele>
        <time>2011-02-19T15:27:53Z</time>
      </trkpt>
      <trkpt lat="42.62381" lon="0.91764">
        <ele>2178</ele>
        <time>2011-02-19T15:27:55Z</time>
      </trkpt>
      <trkpt lat="42.62401" lon="0.91781">
        <ele>2175.12</ele>
        <time>2011-02-19T15:27:59Z</time>
      </trkpt>
      <trkpt lat="42.62433" lon="0.91802">
        <ele>2170.31</ele>
        <time>2011-02-19T15:28:06Z</time>
      </trkpt>
      <trkpt lat="42.62452" lon="0.9181">
        <ele>2168.87</ele>
        <time>2011-02-19T15:28:11Z</time>
      </trkpt>
      <trkpt lat="42.62463" lon="0.91816">
        <ele>2165.99</ele>
        <time>2011-02-19T15:28:13Z</time>
      </trkpt>
      <trkpt lat="42.62472" lon="0.91825">
        <ele>2165.51</ele>
        <time>2011-02-19T15:28:15Z</time>
      </trkpt>
      <trkpt lat="42.62496" lon="0.91849">
        <ele>2159.26</ele>
        <time>2011-02-19T15:28:21Z</time>
      </trkpt>
      <trkpt lat="42.62501" lon="0.91857">
        <ele>2158.3</ele>
        <time>2011-02-19T15:28:23Z</time>
      </trkpt>
      <trkpt lat="42.62501" lon="0.91863">
        <ele>2156.86</ele>
        <time>2011-02-19T15:28:25Z</time>
      </trkpt>
      <trkpt lat="42.625" lon="0.91866">
        <ele>2156.37</ele>
        <time>2011-02-19T15:28:37Z</time>
      </trkpt>
      <trkpt lat="42.625" lon="0.91866">
        <ele>2156.37</ele>
        <time>2011-02-19T15:28:46Z</time>
      </trkpt>
      <trkpt lat="42.62501" lon="0.91871">
        <ele>2155.41</ele>
        <time>2011-02-19T15:28:48Z</time>
      </trkpt>
      <trkpt lat="42.625" lon="0.91885">
        <ele>2151.57</ele>
        <time>2011-02-19T15:28:52Z</time>
      </trkpt>
      <trkpt lat="42.625" lon="0.91885">
        <ele>2151.09</ele>
        <time>2011-02-19T15:28:53Z</time>
      </trkpt>
      <trkpt lat="42.62501" lon="0.91888">
        <ele>2150.61</ele>
        <time>2011-02-19T15:28:56Z</time>
      </trkpt>
      <trkpt lat="42.62492" lon="0.91905">
        <ele>2149.16</ele>
        <time>2011-02-19T15:28:59Z</time>
      </trkpt>
      <trkpt lat="42.62484" lon="0.9192">
        <ele>2144.36</ele>
        <time>2011-02-19T15:29:01Z</time>
      </trkpt>
      <trkpt lat="42.6248" lon="0.91927">
        <ele>2143.88</ele>
        <time>2011-02-19T15:29:02Z</time>
      </trkpt>
      <trkpt lat="42.62476" lon="0.91935">
        <ele>2144.36</ele>
        <time>2011-02-19T15:29:03Z</time>
      </trkpt>
      <trkpt lat="42.6247" lon="0.91951">
        <ele>2141.95</ele>
        <time>2011-02-19T15:29:05Z</time>
      </trkpt>
      <trkpt lat="42.62456" lon="0.91974">
        <ele>2139.07</ele>
        <time>2011-02-19T15:29:09Z</time>
      </trkpt>
      <trkpt lat="42.62452" lon="0.91984">
        <ele>2138.59</ele>
        <time>2011-02-19T15:29:16Z</time>
      </trkpt>
      <trkpt lat="42.62451" lon="0.91991">
        <ele>2139.55</ele>
        <time>2011-02-19T15:29:25Z</time>
      </trkpt>
      <trkpt lat="42.62453" lon="0.91999">
        <ele>2138.59</ele>
        <time>2011-02-19T15:29:36Z</time>
      </trkpt>
      <trkpt lat="42.62454" lon="0.92001">
        <ele>2139.07</ele>
        <time>2011-02-19T15:29:38Z</time>
      </trkpt>
      <trkpt lat="42.62454" lon="0.92003">
        <ele>2139.07</ele>
        <time>2011-02-19T15:29:40Z</time>
      </trkpt>
      <trkpt lat="42.62451" lon="0.92009">
        <ele>2138.59</ele>
        <time>2011-02-19T15:29:46Z</time>
      </trkpt>
      <trkpt lat="42.62438" lon="0.92024">
        <ele>2136.67</ele>
        <time>2011-02-19T15:29:54Z</time>
      </trkpt>
      <trkpt lat="42.6243" lon="0.92042">
        <ele>2133.78</ele>
        <time>2011-02-19T15:30:00Z</time>
      </trkpt>
      <trkpt lat="42.6243" lon="0.92043">
        <ele>2133.3</ele>
        <time>2011-02-19T15:30:02Z</time>
      </trkpt>
      <trkpt lat="42.62429" lon="0.92046">
        <ele>2132.82</ele>
        <time>2011-02-19T15:30:16Z</time>
      </trkpt>
      <trkpt lat="42.62429" lon="0.92047">
        <ele>2133.3</ele>
        <time>2011-02-19T15:30:28Z</time>
      </trkpt>
      <trkpt lat="42.62429" lon="0.92047">
        <ele>2133.3</ele>
        <time>2011-02-19T15:30:49Z</time>
      </trkpt>
      <trkpt lat="42.62428" lon="0.92046">
        <ele>2132.82</ele>
        <time>2011-02-19T15:31:13Z</time>
      </trkpt>
      <trkpt lat="42.62428" lon="0.92046">
        <ele>2132.82</ele>
        <time>2011-02-19T15:31:14Z</time>
      </trkpt>
      <trkpt lat="42.62427" lon="0.92049">
        <ele>2132.34</ele>
        <time>2011-02-19T15:31:16Z</time>
      </trkpt>
      <trkpt lat="42.62423" lon="0.92052">
        <ele>2132.82</ele>
        <time>2011-02-19T15:31:28Z</time>
      </trkpt>
      <trkpt lat="42.62423" lon="0.92052">
        <ele>2132.34</ele>
        <time>2011-02-19T15:31:45Z</time>
      </trkpt>
      <trkpt lat="42.62421" lon="0.92052">
        <ele>2132.34</ele>
        <time>2011-02-19T15:32:10Z</time>
      </trkpt>
      <trkpt lat="42.62422" lon="0.92051">
        <ele>2133.3</ele>
        <time>2011-02-19T15:32:22Z</time>
      </trkpt>
      <trkpt lat="42.6242" lon="0.92053">
        <ele>2131.38</ele>
        <time>2011-02-19T15:33:09Z</time>
      </trkpt>
      <trkpt lat="42.6242" lon="0.92053">
        <ele>2132.34</ele>
        <time>2011-02-19T15:33:11Z</time>
      </trkpt>
      <trkpt lat="42.62419" lon="0.92047">
        <ele>2132.82</ele>
        <time>2011-02-19T15:33:46Z</time>
      </trkpt>
      <trkpt lat="42.6242" lon="0.92053">
        <ele>2132.82</ele>
        <time>2011-02-19T15:33:47Z</time>
      </trkpt>
      <trkpt lat="42.62422" lon="0.92057">
        <ele>2132.82</ele>
        <time>2011-02-19T15:34:27Z</time>
      </trkpt>
      <trkpt lat="42.62422" lon="0.92057">
        <ele>2133.78</ele>
        <time>2011-02-19T15:34:30Z</time>
      </trkpt>
      <trkpt lat="42.62422" lon="0.92057">
        <ele>2133.78</ele>
        <time>2011-02-19T15:35:10Z</time>
      </trkpt>
      <trkpt lat="42.62422" lon="0.92057">
        <ele>2134.26</ele>
        <time>2011-02-19T15:39:50Z</time>
      </trkpt>
      <trkpt lat="42.62422" lon="0.92057">
        <ele>2129.94</ele>
        <time>2011-02-19T15:39:59Z</time>
      </trkpt>
      <trkpt lat="42.62422" lon="0.92057">
        <ele>2129.94</ele>
        <time>2011-02-19T15:40:00Z</time>
      </trkpt>
      <trkpt lat="42.62422" lon="0.92057">
        <ele>2131.38</ele>
        <time>2011-02-19T15:40:01Z</time>
      </trkpt>
      <trkpt lat="42.62422" lon="0.92057">
        <ele>2134.74</ele>
        <time>2011-02-19T15:44:59Z</time>
      </trkpt>
      <trkpt lat="42.62422" lon="0.92057">
        <ele>2134.74</ele>
        <time>2011-02-19T15:45:00Z</time>
      </trkpt>
      <trkpt lat="42.62422" lon="0.92057">
        <ele>2131.38</ele>
        <time>2011-02-19T15:45:02Z</time>
      </trkpt>
      <trkpt lat="42.62422" lon="0.92057">
        <ele>2132.34</ele>
        <time>2011-02-19T15:46:52Z</time>
      </trkpt>
      <trkpt lat="42.62422" lon="0.92057">
        <ele>2127.05</ele>
        <time>2011-02-19T15:46:55Z</time>
      </trkpt>
      <trkpt lat="42.62422" lon="0.92057">
        <ele>2129.46</ele>
        <time>2011-02-19T15:46:56Z</time>
      </trkpt>
      <trkpt lat="42.62422" lon="0.92057">
        <ele>2127.05</ele>
        <time>2011-02-19T15:46:59Z</time>
      </trkpt>
      <trkpt lat="42.62422" lon="0.92057">
        <ele>2127.05</ele>
        <time>2011-02-19T15:47:00Z</time>
      </trkpt>
      <trkpt lat="42.62422" lon="0.92057">
        <ele>2132.34</ele>
        <time>2011-02-19T15:47:01Z</time>
      </trkpt>
      <trkpt lat="42.62422" lon="0.92057">
        <ele>2127.05</ele>
        <time>2011-02-19T15:47:02Z</time>
      </trkpt>
      <trkpt lat="42.62422" lon="0.92057">
        <ele>2132.34</ele>
        <time>2011-02-19T15:47:03Z</time>
      </trkpt>
      <trkpt lat="42.62422" lon="0.92057">
        <ele>2135.71</ele>
        <time>2011-02-19T15:47:07Z</time>
      </trkpt>
      <trkpt lat="42.62422" lon="0.92057">
        <ele>2132.82</ele>
        <time>2011-02-19T15:47:08Z</time>
      </trkpt>
      <trkpt lat="42.62422" lon="0.92057">
        <ele>2132.82</ele>
        <time>2011-02-19T15:47:09Z</time>
      </trkpt>
      <trkpt lat="42.62422" lon="0.92057">
        <ele>2127.53</ele>
        <time>2011-02-19T15:47:15Z</time>
      </trkpt>
      <trkpt lat="42.62422" lon="0.92057">
        <ele>2127.53</ele>
        <time>2011-02-19T15:47:16Z</time>
      </trkpt>
      <trkpt lat="42.62422" lon="0.92057">
        <ele>2134.26</ele>
        <time>2011-02-19T15:47:17Z</time>
      </trkpt>
      <trkpt lat="42.62422" lon="0.92057">
        <ele>2135.71</ele>
        <time>2011-02-19T15:47:18Z</time>
      </trkpt>
      <trkpt lat="42.62422" lon="0.92057">
        <ele>2133.3</ele>
        <time>2011-02-19T15:47:19Z</time>
      </trkpt>
      <trkpt lat="42.62422" lon="0.92057">
        <ele>2126.09</ele>
        <time>2011-02-19T15:47:20Z</time>
      </trkpt>
      <trkpt lat="42.62422" lon="0.92057">
        <ele>2131.38</ele>
        <time>2011-02-19T15:47:21Z</time>
      </trkpt>
      <trkpt lat="42.62422" lon="0.92057">
        <ele>2133.78</ele>
        <time>2011-02-19T15:47:22Z</time>
      </trkpt>
      <trkpt lat="42.62422" lon="0.92057">
        <ele>2129.94</ele>
        <time>2011-02-19T15:47:24Z</time>
      </trkpt>
      <trkpt lat="42.62422" lon="0.92057">
        <ele>2133.3</ele>
        <time>2011-02-19T15:47:28Z</time>
      </trkpt>
      <trkpt lat="42.62422" lon="0.92057">
        <ele>2128.5</ele>
        <time>2011-02-19T15:47:30Z</time>
      </trkpt>
      <trkpt lat="42.62422" lon="0.92057">
        <ele>2128.02</ele>
        <time>2011-02-19T15:47:32Z</time>
      </trkpt>
      <trkpt lat="42.62422" lon="0.92057">
        <ele>2131.86</ele>
        <time>2011-02-19T15:47:33Z</time>
      </trkpt>
      <trkpt lat="42.62422" lon="0.92057">
        <ele>2131.86</ele>
        <time>2011-02-19T15:47:34Z</time>
      </trkpt>
    </trkseg>
  </trk>
</gpx>